[[{"header":{"parameterUnit":"m.s-1","parameterCategory":1,"la1":30.6,"la2":28.766,"lo1":-90.7593,"lo2":-88.6598,"dy":0.0162,"dx":0.0183,"nx":116,"ny":114,"refTime":"2024-03-11T00:00:00:Z","depth":0,"parameterNumber":2,"parameterNumberName":"U-component_of_WINDS"},"data":[0.0,0.0,0.0,0.0,0.0,0.0,0.0,0.0,0.0,0.0,0.0,0.0,0.0,0.0,0.0,0.0,0.0,0.0,0.0,0.0,0.0,0.0,0.0,0.0,0.0,0.0,0.0,0.0,0.0,0.0,0.0,0.0,0.0,0.0,0.0,0.0,0.0,0.0,0.0,0.0,0.0,0.0,0.0,0.0,0.0,0.0,0.0,0.0,0.0,0.0,0.0,0.0,0.0,0.0,0.0,0.0,0.0,0.0,0.0,0.0,0.0,0.0,0.0,0.0,0.0,0.0,0.0,0.0,0.0,0.0,0.0,0.0,0.0,0.0,0.0,0.0,0.0,0.0,0.0,0.0,0.0,0.0,0.0,0.0,0.0,0.0,0.0,0.0,0.0,0.0,0.0,0.0,0.0,0.0,0.0,0.0,0.0,0.0,0.0,0.0,0.0,0.0,0.0,0.0,0.0,0.0,0.0,0.0,0.0,0.0,0.0,0.0,0.0,0.0,0.0,0.0,0.0,0.0,0.0,0.0,0.0,0.0,0.0,0.0,0.0,0.0,0.0,0.0,0.0,0.0,0.0,0.0,0.0,0.0,0.0,0.0,0.0,0.0,0.0,0.0,0.0,0.0,0.0,0.0,0.0,0.0,0.0,0.0,0.0,0.0,0.0,0.0,0.0,0.0,0.0,0.0,0.0,0.0,0.0,0.0,0.0,0.0,0.0,0.0,0.0,0.0,0.0,0.0,0.0,0.0,0.0,0.0,0.0,0.0,0.0,0.0,0.0,0.0,0.0,0.0,0.0,0.0,0.0,0.0,0.0,0.0,0.0,0.0,0.0,0.0,0.0,0.0,0.0,0.0,0.0,0.0,0.0,0.0,0.0,0.0,0.0,0.0,0.0,0.0,0.0,0.0,0.0,0.0,0.0,0.0,0.0,0.0,0.0,0.0,0.0,0.0,0.0,0.0,0.0,0.0,0.0,0.0,0.0,0.0,0.0,0.0,0.0,0.0,0.0,0.0,0.0,0.0,0.0,0.0,0.0,0.0,0.0,0.0,0.0,0.0,0.0,0.0,0.0,0.0,0.0,0.0,0.0,0.0,0.0,0.0,0.0,0.0,0.0,0.0,0.0,0.0,0.0,0.0,0.0,0.0,0.0,0.0,0.0,0.0,0.0,0.0,0.0,0.0,0.0,0.0,0.0,0.0,0.0,0.0,0.0,0.0,0.0,0.0,0.0,0.0,0.0,0.0,0.0,0.0,0.0,0.0,0.0,0.0,0.0,0.0,0.0,0.0,0.0,0.0,0.0,0.0,0.0,0.0,0.0,0.0,0.0,0.0,0.0,0.0,0.0,0.0,0.0,0.0,0.0,0.0,0.0,0.0,0.0,0.0,0.0,0.0,0.0,0.0,0.0,0.0,0.0,0.0,0.0,0.0,0.0,0.0,0.0,0.0,0.0,0.0,0.0,0.0,0.0,0.0,0.0,0.0,0.0,0.0,0.0,0.0,0.0,0.0,0.0,0.0,0.0,0.0,0.0,0.0,0.0,0.0,0.0,0.0,0.0,0.0,0.0,0.0,0.0,0.0,0.0,0.0,0.0,0.0,0.0,0.0,0.0,0.0,0.0,0.0,0.0,0.0,0.0,0.0,0.0,0.0,0.0,0.0,0.0,0.0,0.0,0.0,0.0,0.0,0.0,0.0,0.0,0.0,0.0,0.0,0.0,0.0,0.0,0.0,0.0,0.0,0.0,0.0,0.0,0.0,0.0,0.0,0.0,0.0,0.0,0.0,0.0,0.0,0.0,0.0,0.0,0.0,0.0,0.0,0.0,0.0,0.0,0.0,0.0,0.0,0.0,0.0,0.0,0.0,0.0,0.0,0.0,0.0,0.0,0.0,0.0,0.0,0.0,0.0,0.0,0.0,0.0,0.0,0.0,0.0,0.0,0.0,0.0,0.0,0.0,0.0,0.0,0.0,0.0,0.0,0.0,0.0,0.0,0.0,0.0,0.0,0.0,0.0,0.0,0.0,0.0,0.0,0.0,0.0,0.0,0.0,0.0,0.0,0.0,0.0,0.0,0.0,0.0,0.0,0.0,0.0,0.0,0.0,0.0,0.0,0.0,0.0,0.0,0.0,0.0,0.0,0.0,0.0,0.0,0.0,0.0,0.0,0.0,0.0,0.0,0.0,0.0,0.0,0.0,0.0,0.0,0.0,0.0,0.0,0.0,0.0,0.0,0.0,0.0,0.0,0.0,0.0,0.0,0.0,0.0,0.0,0.0,0.0,0.0,0.0,0.0,0.0,0.0,0.0,0.0,0.0,0.0,0.0,0.0,0.0,0.0,0.0,0.0,0.0,0.0,0.0,0.0,0.0,0.0,0.0,0.0,0.0,0.0,0.0,0.0,0.0,0.0,0.0,0.0,0.0,0.0,0.0,0.0,0.0,0.0,0.0,0.0,0.0,0.0,0.0,0.0,0.0,0.0,0.0,0.0,0.0,0.0,0.0,0.0,0.0,0.0,0.0,0.0,0.0,0.0,0.0,0.0,0.0,0.0,0.0,0.0,0.0,0.0,0.0,0.0,0.0,0.0,0.0,0.0,0.0,0.0,0.0,0.0,0.0,0.0,0.0,0.0,0.0,0.0,0.0,0.0,0.0,0.0,0.0,0.0,0.0,0.0,0.0,0.0,0.0,0.0,0.0,0.0,0.0,0.0,0.0,0.0,0.0,0.0,0.0,0.0,0.0,0.0,0.0,0.0,0.0,0.0,0.0,0.0,0.0,0.0,0.0,0.0,0.0,0.0,0.0,0.0,0.0,0.0,0.0,0.0,0.0,0.0,0.0,0.0,0.0,0.0,0.0,0.0,0.0,0.0,0.0,0.0,0.0,0.0,0.0,0.0,0.0,0.0,0.0,0.0,0.0,0.0,0.0,0.0,0.0,0.0,0.0,0.0,0.0,0.0,0.0,0.0,0.0,0.0,0.0,0.0,0.0,0.0,0.0,0.0,0.0,0.0,0.0,0.0,0.0,0.0,0.0,0.0,0.0,0.0,0.0,0.0,0.0,0.0,0.0,0.0,0.0,0.0,0.0,0.0,0.0,0.0,0.0,0.0,0.0,0.0,0.0,0.0,0.0,0.0,0.0,0.0,0.0,0.0,0.0,0.0,0.0,0.0,0.0,0.0,0.0,0.0,0.0,0.0,0.0,0.0,0.0,0.0,0.0,0.0,0.0,0.0,0.0,0.0,0.0,0.0,0.0,0.0,0.0,0.0,0.0,0.0,0.0,0.0,0.0,0.0,0.0,0.0,0.0,0.0,0.0,0.0,0.0,0.0,0.0,0.0,0.0,0.0,0.0,0.0,0.0,0.0,0.0,0.0,0.0,0.0,0.0,0.0,0.0,0.0,0.0,0.0,0.0,0.0,0.0,0.0,0.0,0.0,0.0,0.0,0.0,0.0,0.0,0.0,0.0,0.0,0.0,0.0,0.0,0.0,0.0,0.0,0.0,0.0,0.0,0.0,0.0,0.0,0.0,0.0,0.0,0.0,0.0,0.0,0.0,0.0,0.0,0.0,0.0,0.0,0.0,0.0,0.0,0.0,0.0,0.0,0.0,0.0,0.0,0.0,0.0,0.0,0.0,0.0,0.0,0.0,0.0,0.0,0.0,0.0,0.0,0.0,0.0,0.0,0.0,0.0,0.0,0.0,0.0,0.0,0.0,0.0,0.0,0.0,0.0,0.0,0.0,0.0,0.0,0.0,0.0,0.0,0.0,0.0,0.0,0.0,0.0,0.0,0.0,0.0,0.0,0.0,0.0,0.0,0.0,0.0,0.0,0.0,0.0,0.0,0.0,0.0,0.0,0.0,0.0,0.0,0.0,0.0,0.0,0.0,0.0,0.0,0.0,0.0,0.0,0.0,0.0,0.0,0.0,0.0,0.0,0.0,0.0,0.0,0.0,0.0,0.0,0.0,0.0,0.0,0.0,0.0,0.0,0.0,0.0,0.0,0.0,0.0,0.0,0.0,0.0,0.0,0.0,0.0,0.0,0.0,0.0,0.0,0.0,0.0,0.0,0.0,0.0,0.0,0.0,0.0,0.0,0.0,0.0,0.0,0.0,0.0,0.0,0.0,0.0,0.0,0.0,0.0,0.0,0.0,0.0,0.0,0.0,0.0,0.0,0.0,0.0,0.0,0.0,0.0,0.0,0.0,0.0,0.0,0.0,0.0,0.0,0.0,0.0,0.0,0.0,0.0,0.0,0.0,0.0,0.0,0.0,0.0,0.0,0.0,0.0,0.0,0.0,0.0,0.0,0.0,0.0,0.0,0.0,0.0,0.0,0.0,0.0,0.0,0.0,0.0,0.0,0.0,0.0,0.0,0.0,0.0,0.0,0.0,0.0,0.0,0.0,0.0,0.0,0.0,0.0,0.0,0.0,0.0,0.0,0.0,0.0,0.0,0.0,0.0,0.0,0.0,0.0,0.0,0.0,0.0,0.0,0.0,0.0,0.0,0.0,0.0,0.0,0.0,0.0,0.0,0.0,0.0,0.0,0.0,0.0,0.0,0.0,0.0,0.0,0.0,0.0,0.0,0.0,0.0,0.0,0.0,0.0,0.0,0.0,0.0,0.0,0.0,0.0,0.0,0.0,0.0,0.0,0.0,0.0,0.0,0.0,0.0,0.0,0.0,0.0,0.0,0.0,0.0,0.0,0.0,0.0,0.0,0.0,0.0,0.0,0.0,0.0,0.0,0.0,0.0,0.0,0.0,0.0,0.0,0.0,0.0,0.0,0.0,0.0,0.0,0.0,0.0,0.0,0.0,0.0,0.0,0.0,0.0,0.0,0.0,0.0,0.0,0.0,0.0,0.0,0.0,0.0,0.0,0.0,0.0,0.0,0.0,0.0,0.0,0.0,0.0,0.0,0.0,0.0,0.0,0.0,0.0,0.0,0.0,0.0,0.0,0.0,0.0,0.0,0.0,0.0,0.0,0.0,0.0,0.0,0.0,0.0,0.0,0.0,0.0,0.0,0.0,0.0,0.0,0.0,0.0,0.0,0.0,0.0,0.0,0.0,0.0,0.0,0.0,0.0,0.0,0.0,0.0,0.0,0.0,0.0,0.0,0.0,0.0,0.0,0.0,0.0,0.0,0.0,0.0,0.0,0.0,0.0,0.0,0.0,0.0,0.0,0.0,0.0,0.0,0.0,0.0,0.0,0.0,0.0,0.0,0.0,0.0,0.0,0.0,0.0,0.0,0.0,0.0,0.0,0.0,0.0,0.0,0.0,0.0,0.0,0.0,0.0,0.0,0.0,0.0,0.0,0.0,0.0,0.0,0.0,0.0,0.0,0.0,0.0,0.0,0.0,0.0,0.0,0.0,0.0,0.0,0.0,0.0,0.0,0.0,0.0,0.0,0.0,0.0,0.0,0.0,0.0,0.0,0.0,0.0,0.0,0.0,0.0,0.0,0.0,0.0,0.0,0.0,0.0,0.0,0.0,0.0,0.0,0.0,0.0,0.0,0.0,0.0,0.0,0.0,0.0,0.0,0.0,0.0,0.0,0.0,0.0,0.0,0.0,0.0,0.0,0.0,0.0,0.0,0.0,0.0,0.0,0.0,0.0,0.0,0.0,0.0,0.0,0.0,0.0,0.0,0.0,0.0,0.0,0.0,0.0,0.0,0.0,0.0,0.0,0.0,0.0,0.0,0.0,0.0,0.0,0.0,0.0,0.0,0.0,0.0,0.0,0.0,0.0,0.0,0.0,0.0,0.0,0.0,0.0,0.0,0.0,0.0,0.0,0.0,0.0,0.0,0.0,0.0,0.0,0.0,0.0,0.0,0.0,0.0,0.0,0.0,0.0,0.0,0.0,0.0,0.0,0.0,0.0,0.0,0.0,0.0,0.0,0.0,0.0,0.0,0.0,0.0,0.0,0.0,0.0,0.0,0.0,0.0,0.0,0.0,0.0,0.0,0.0,0.0,0.0,0.0,0.0,0.0,0.0,0.0,0.0,0.0,0.0,0.0,0.0,0.0,0.0,0.0,0.0,0.0,0.0,0.0,0.0,0.0,0.0,0.0,0.0,0.0,0.0,0.0,0.0,0.0,0.0,1.1072,0.0,0.0,0.0,0.0,0.0,0.0,0.0,0.0,0.0,0.0,0.0,0.0,0.0,0.0,0.0,0.0,0.0,0.0,0.0,0.0,0.0,0.0,0.0,0.0,0.0,0.0,0.0,0.0775,0.0769,0.0804,0.0801,0.0847,0.0953,0.0927,0.1017,0.1255,0.1159,0.1371,0.1911,0.2235,0.2895,0.3876,0.0,0.0,0.0,0.0,0.0,0.0,0.0,0.0,0.0,0.0,0.0,0.0,0.0,0.0,0.0,0.0,0.0,0.0,0.0,0.0,0.0,0.0,0.0,0.0,0.0,0.0,0.0,0.0,0.0,0.0,0.0,0.0,0.0,0.0,0.0,0.0,0.0,0.0,0.0,0.0,0.0,0.0,0.0,0.0,0.0,0.0,0.0,0.0,0.0,0.0,0.0,0.0,0.0,0.0,0.0,0.0,0.0,0.0,0.0,0.0,0.0,0.0,0.0,0.0,0.0,0.0,0.0,0.0,0.0,0.0,0.0,0.0,0.0,0.0,1.1252,0.0,0.0,0.0,0.0,0.0,0.0,0.0,0.0,0.0,0.0,0.0,0.0,0.0,0.0,0.0,0.0,0.0,0.0,0.0,0.0,0.0,0.0,0.0,0.0397,0.0416,0.0629,0.0616,0.0618,0.068,0.0661,0.0683,0.0761,0.0697,0.0757,0.0945,0.0893,0.1129,0.1662,0.2338,0.3311,0.4541,0.0,0.0,0.0,0.0,0.0,0.0,0.0,0.0,0.0,0.0,0.0,0.0,0.0,0.0,0.0,0.0,0.0,0.0,0.0,0.0,0.0,0.0,0.0,0.0,0.0,0.0,0.0,0.0,0.0,0.0,0.0,0.0,0.0,0.0,0.0,0.0,0.0,0.0,0.0,0.0,0.0,0.0,0.0,0.0,0.0,0.0,0.0,0.0,0.0,0.0,0.0,0.0,0.0,0.0,0.0,0.0,0.0,0.0,0.0,0.0,0.0,0.0,0.0,0.0,0.0,0.0,0.0,1.3216,1.3619,1.3859,1.4354,1.4598,1.4558,1.2697,1.1842,1.1757,0.0,0.0,0.0,0.0,0.0,0.0,0.0,0.0,0.0,0.0,0.0,0.0,0.0,0.0,0.0,0.0,0.0,0.0,0.0,0.0,0.0,0.0,0.0062,0.0154,0.0421,0.0281,0.0299,0.0591,0.0502,0.0494,0.0623,0.056,0.0593,0.074,0.0734,0.0985,0.1526,0.2483,0.3283,0.3926,0.4323,0.4649,0.4939,0.0,0.0,0.0,0.0,0.0,0.0,0.0,0.0,0.0,0.0,0.0,0.0,0.0,0.0,0.0,0.0,0.0,0.0,0.0,0.0,0.0,0.0,0.0,0.0,0.0,0.0,0.0,0.0,0.0,0.0,0.0,0.0,0.0,0.0,0.0,0.0,0.0,0.0,0.0,0.0,0.0,0.0,0.0,0.0,0.8172,0.915,0.0,0.0,0.0,0.0,0.0,0.0,0.0,0.0,0.0,0.0,0.0,0.0,0.0,1.1255,1.1917,1.2496,1.2849,1.2938,1.3606,1.424,1.4818,1.4845,1.5152,1.5637,1.4617,0.0,1.3717,1.349,0.0,0.0,0.0,0.0,0.0,0.0,0.0,0.0,0.0,0.0,0.0,0.0,0.0,0.0,0.0,0.0,0.0,0.0,0.0,0.0,0.0,-0.0121,0.0025,0.0218,0.0389,0.0398,0.017,0.0374,0.0352,0.0,0.0099,0.0118,0.0025,-0.0121,0.0228,0.1112,0.1999,0.2774,0.3413,0.366,0.4073,0.4606,0.453,0.473,0.5099,0.4958,0.0,0.0,0.0,0.0,0.0,0.0,0.0,0.0,0.0,0.0,0.0,0.0,0.0,0.0,0.0,0.0,0.0,0.0,0.0,0.0,0.0,0.0,0.0,0.0,0.0,0.0,0.0,0.0,0.0,0.0,0.0,0.0,0.0,0.0,0.0,0.0,0.0,0.0,0.0,0.7868,0.8406,0.9136,0.9239,0.9178,0.0,0.0,0.0,0.0,0.0,0.0,0.0,0.0,0.0,1.1361,1.1705,1.2191,1.2814,1.3585,1.4141,1.4525,1.5073,1.5522,1.5846,1.5812,1.5963,1.6208,1.5787,1.5521,1.5303,1.4159,1.3599,1.3451,0.0,0.0,0.0,0.0,1.3534,1.3633,0.0,0.0,0.0,0.0,0.0,0.0,0.0,0.0,0.0,0.0,0.0,0.0,-0.0614,-0.0352,-0.0138,0.0009,0.0354,0.0297,-0.0334,-0.0056,-0.0191,-0.0928,-0.0768,-0.0768,-0.1004,-0.0939,-0.0377,0.0701,0.1402,0.2116,0.2819,0.2955,0.3409,0.4095,0.4114,0.4514,0.5156,0.494,0.4803,0.0,0.0,0.0,0.0,0.0,0.0,0.0,0.0,0.0,0.0,0.0,0.0,0.0,0.0,0.0,0.0,0.0,0.0,0.0,0.0,0.0,0.0,0.0,0.0,0.0,0.0,0.0,0.0,0.0,0.0,0.0,0.0,0.0,0.0,0.0,0.0,0.0,0.0,0.8245,0.8593,0.9158,0.9438,0.9518,0.0,0.0,0.0,0.0,0.0,0.0,1.1022,1.1375,1.1799,1.2257,1.2733,1.3311,1.398,1.4676,1.5254,1.5696,1.6016,1.6289,1.6493,1.6417,1.6471,1.6622,1.638,1.6321,1.6273,1.4892,1.4304,1.4297,1.4317,1.4424,1.4573,1.4852,1.499,1.5187,0.0,0.0,0.0,0.0,0.0,0.0,0.0,0.0,0.0,0.0,0.0,-0.1644,-0.1124,-0.0716,-0.0398,-0.0204,-0.0107,-0.0283,-0.0827,-0.1023,-0.1436,-0.2178,-0.2197,-0.2255,-0.2391,-0.1413,-0.0465,0.0423,0.0843,0.14,0.2059,0.2387,0.2901,0.3555,0.4003,0.4534,0.5093,0.4821,0.4749,0.4803,0.0,0.0,0.0,0.0,0.0,0.0,0.0,0.0,0.0,0.0,0.0,0.0,0.0,0.0,0.0,0.0,0.0,0.0,0.0,0.0,0.0,0.0,0.0,0.0,0.0,0.0,0.0,0.0,0.0,0.0,0.0,0.0,0.0,0.0,0.0,0.0,0.0,0.0,0.0,0.9734,1.0147,0.0,0.0,0.0,0.0,1.1105,1.1085,1.1408,1.2172,1.1935,1.2483,1.4021,1.4226,1.4719,1.5582,1.5818,1.5864,1.5694,1.559,1.5877,1.6494,1.6162,1.6368,1.6942,1.6301,1.613,1.631,1.6274,1.6004,1.5619,1.5739,1.5649,1.5475,1.5806,1.6408,1.7121,0.0,0.0,0.0,0.0,0.0,0.0,0.0,0.0,-0.2766,-0.2762,-0.2523,-0.2211,-0.1851,-0.1137,-0.0652,-0.0534,-0.0307,-0.0468,-0.1171,-0.1488,-0.1957,-0.266,-0.294,-0.3037,-0.2956,-0.1857,-0.1215,-0.1074,-0.0459,0.0025,0.0403,0.0816,0.1473,0.2298,0.2856,0.3506,0.4237,0.4874,0.506,0.4959,0.5261,0.5051,0.0,0.0,0.0,0.0,0.0,0.0,0.0,0.0,0.0,0.0,0.0,0.0,0.0,0.0,0.0,0.0,0.0,0.0,0.0,0.0,0.0,0.0,0.0,0.0,0.0,0.0,0.0,0.0,0.0,0.0,0.0,0.0,0.0,0.0,0.0,0.0,0.0,1.0256,1.071,0.0,1.0986,1.1102,1.1329,1.1636,1.1984,1.2414,1.2918,1.3121,1.351,1.4178,1.4338,1.4545,1.4861,1.5277,1.5459,1.5378,1.5643,1.5887,1.6112,1.5985,1.6078,1.6279,1.6043,1.6038,1.6182,1.6284,1.6162,1.5903,1.6149,1.6268,1.6372,1.6658,1.7097,1.7611,0.0,0.0,0.0,0.0,0.0,0.0,0.0,0.0,-0.3516,-0.3441,-0.314,-0.2772,-0.2347,-0.1489,-0.0962,-0.1034,-0.0732,-0.0964,-0.1976,-0.2332,-0.2883,-0.374,-0.3929,-0.3817,-0.3414,-0.2555,-0.2121,-0.2137,-0.1505,-0.1057,-0.0756,-0.0365,0.0273,0.1086,0.1743,0.2522,0.3425,0.4387,0.4856,0.4999,0.5375,0.528,0.4907,0.0,0.0,0.0,0.0,0.0,0.0,0.0,0.0,0.0,0.0,0.0,0.0,0.0,0.0,0.0,0.0,0.0,0.0,0.0,0.0,0.0,0.0,0.0,0.0,0.0,0.0,0.0,0.0,0.0,0.0,0.0,0.0,0.0,0.0,0.0,0.931,1.0405,1.0809,1.1131,1.1467,1.1668,1.1989,1.2527,1.298,1.3284,1.3459,1.3724,1.3988,1.4231,1.4363,1.4472,1.4574,1.4994,1.5165,1.5095,1.537,1.5497,1.5497,1.5454,1.5439,1.5439,1.5483,1.5613,1.5801,1.6007,1.6175,1.6299,1.657,1.6906,1.7267,1.7485,1.7872,1.8381,0.0,0.0,0.0,0.0,0.0,0.0,0.0,-0.3932,-0.4078,-0.3629,-0.3614,-0.3363,-0.2638,-0.1775,-0.137,-0.1702,-0.1449,-0.1854,-0.3228,-0.3599,-0.4288,-0.5458,-0.5176,-0.4629,-0.3829,-0.3469,-0.3081,-0.264,-0.2244,-0.1807,-0.1344,-0.1082,-0.0632,0.0,0.0728,0.1652,0.2699,0.3311,0.4081,0.4894,0.525,0.5358,0.5281,0.0,0.0,0.0,0.0,0.0,0.0,0.0,0.0,0.0,0.0,0.0,0.0,0.0,0.0,0.0,0.0,0.0,0.0,0.0,0.0,0.0,0.0,0.0,0.0,0.0,0.0,0.0,0.0,0.0,0.0,0.0,0.0,0.0,0.7708,0.8772,0.9697,1.0173,1.0479,1.1022,1.2027,1.2348,1.2878,1.3777,1.3911,1.3894,1.3765,1.3626,1.3768,1.4214,1.4383,1.4573,1.482,1.5035,1.5059,1.4848,1.473,1.4662,1.4662,1.4529,1.4484,1.4484,1.4617,1.4878,1.5225,1.5551,1.6127,1.6827,1.7088,1.7559,1.8116,1.8245,1.8805,1.9517,0.0,0.0,0.0,0.0,0.0,0.0,0.0,-0.4704,-0.5093,-0.5157,-0.4764,-0.4316,-0.3919,-0.2878,-0.2294,-0.2479,-0.2685,-0.304,-0.3629,-0.455,-0.5297,-0.5771,-0.519,-0.4634,-0.4171,-0.3451,-0.3212,-0.3468,-0.3166,-0.2855,-0.2535,-0.2463,-0.1816,-0.0692,-0.006,0.0828,0.1883,0.2632,0.34,0.416,0.4832,0.5154,0.525,0.0,0.0,0.0,0.0,0.0,0.0,0.0,0.0,0.0,0.0,0.0,0.0,0.0,0.0,0.0,0.0,0.0,0.0,0.0,0.0,0.0,0.0,0.0,0.0,0.0,0.0,0.0,0.0,0.0,0.0,0.0,0.0,0.8943,0.9255,0.9619,1.0157,1.0974,1.1395,1.1842,1.2414,1.2618,1.2702,1.2674,1.282,1.2854,1.2717,1.2722,1.2777,1.2842,1.3223,1.3343,1.3231,1.3723,1.3938,1.3887,1.3857,1.3827,1.3833,1.3941,1.3986,1.401,1.4121,1.4547,1.5126,1.5233,1.5806,1.6657,1.674,1.7298,1.8117,1.8203,1.8799,1.9538,0.0,0.0,0.0,0.0,0.0,0.0,0.0,-0.4743,-0.5129,-0.5426,-0.4908,-0.4517,-0.4522,-0.3544,-0.3018,-0.3316,-0.3527,-0.3879,-0.4431,-0.5388,-0.5844,0.0,0.0,-0.4836,-0.4556,-0.3858,-0.3748,-0.4267,-0.3855,-0.3523,-0.3287,-0.3185,-0.2542,-0.1481,-0.0924,-0.0091,0.0958,0.1645,0.2414,0.3227,0.3829,0.4412,0.4931,0.5124,0.5373,0.5661,0.5886,0.6011,0.6095,0.6146,0.0,0.0,0.0,0.0,0.0,0.0,0.0,0.0,0.0,0.0,0.0,0.0,0.0,0.0,0.0,0.0,0.0,0.0,0.0,0.0,0.0,0.0,0.0,0.0,0.8556,0.9611,1.0302,1.027,1.0456,1.1264,1.1473,1.1768,1.2372,1.2493,1.2544,1.2546,1.2595,1.2549,1.239,1.2375,1.2309,1.2181,1.2516,1.263,1.2473,1.2873,1.3086,1.3086,1.317,1.3216,1.3216,1.3392,1.3452,0.0,1.3874,1.4329,1.4785,1.5097,1.5754,0.0,0.0,0.0,0.0,0.0,1.8919,1.9372,0.0,0.0,0.0,0.0,0.0,0.0,0.0,-0.4418,-0.4689,-0.5022,-0.46,-0.4404,-0.4771,-0.4003,-0.3669,-0.4169,-0.4201,-0.4578,-0.5489,-0.6129,0.0,-0.5397,-0.5327,-0.5206,-0.4986,-0.458,-0.4574,-0.4982,-0.4408,-0.4001,-0.3736,-0.3493,-0.2971,-0.2211,-0.1774,-0.0962,0.0108,0.0588,0.1343,0.225,0.2601,0.342,0.4443,0.4485,0.4871,0.5397,0.5551,0.5883,0.6276,0.6443,0.0,0.0,0.0,0.0,0.0,0.0,0.0,0.0,0.0,0.0,0.0,0.0,0.0,0.0,0.0,0.0,0.0,0.0,0.0,0.0,0.0,0.0,0.0,0.0,0.9203,0.9692,1.0777,1.0573,1.0541,1.1212,1.1098,1.1255,1.2085,1.2149,1.2327,1.2744,1.2688,1.2536,1.2304,0.0,0.0,0.0,0.0,1.2143,1.2104,1.2297,1.2405,1.2421,1.2613,1.2729,1.2744,1.2912,1.299,1.3063,1.3744,1.4176,1.4454,1.5077,1.5787,1.6513,1.6805,1.7203,1.7698,1.8564,1.8966,1.9089,0.0,0.0,0.0,0.0,0.0,0.0,0.0,-0.4718,-0.5109,-0.5436,-0.5331,-0.5296,-0.548,-0.4914,-0.4624,-0.4882,-0.519,-0.5677,-0.6401,0.0,-0.6531,-0.5737,-0.5891,-0.5838,-0.5468,-0.5428,-0.5431,-0.5459,-0.5127,-0.464,-0.4019,-0.3911,-0.3335,-0.2345,-0.215,-0.1322,-0.0048,0.0048,0.0724,0.1771,0.2157,0.2994,0.4051,0.4381,0.4804,0.5322,0.5989,0.6358,0.6579,0.6992,0.7034,0.6963,0.7255,0.0,0.0,0.0,0.0,0.0,0.0,0.0,0.0,0.0,0.0,0.0,0.0,0.0,0.0,0.0,0.0,0.0,0.0,0.0,0.0,0.8333,0.927,0.9984,0.9898,0.9757,1.0059,1.1106,1.1217,1.1405,1.1836,1.1874,1.176,1.1488,1.1545,1.1412,1.0983,1.1058,0.0,1.071,1.1112,1.1204,1.0931,1.149,1.1825,1.1942,0.0,0.0,1.2413,1.2698,1.299,1.3258,1.3553,1.4209,1.5017,1.5002,1.5522,1.6399,1.6864,1.7275,1.7592,1.7581,1.8123,1.8839,0.0,0.0,0.0,0.0,0.0,0.0,0.0,-0.443,-0.4785,-0.5329,-0.5315,-0.5407,-0.5809,-0.549,-0.5302,-0.5439,-0.6066,-0.6696,0.0,-0.7182,-0.6834,-0.6223,-0.6203,-0.617,-0.6109,-0.6038,-0.6,-0.6007,-0.5624,-0.5103,-0.444,-0.4235,-0.3673,-0.2787,-0.2388,-0.1635,-0.0674,-0.0346,0.0343,0.1224,0.1529,0.2228,0.3173,0.3812,0.4359,0.4866,0.541,0.5799,0.6132,0.6665,0.6824,0.6849,0.7148,0.7107,0.6831,0.0,0.0,0.0,0.0,0.0,0.0,0.0,0.0,0.0,0.0,0.0,0.0,0.0,0.0,0.7781,0.7878,0.0,0.8611,0.8343,0.8978,0.943,0.9234,0.9109,0.9432,1.0487,1.0515,1.0572,1.0869,1.0897,1.0835,1.0712,1.0765,1.0692,1.0465,1.0506,1.0441,1.0217,1.0528,1.0629,1.0442,1.0951,1.1225,1.1303,1.1576,1.1724,1.1802,1.2243,1.2546,1.2743,1.3437,1.4057,1.4589,1.5137,1.5634,1.607,1.6306,1.6806,1.7386,1.7313,1.769,1.8247,0.0,0.0,0.0,0.0,0.0,0.0,0.0,-0.4096,-0.4394,-0.5059,-0.5056,-0.5232,-0.5843,-0.5805,-0.581,-0.5994,-0.6658,0.0,0.0,-0.7358,-0.6989,-0.6632,-0.6497,-0.6536,-0.6773,-0.6663,-0.6606,-0.6587,-0.6123,-0.5575,-0.4942,-0.4506,-0.3923,-0.3224,-0.2539,-0.1884,-0.126,-0.0656,0.0,0.0672,0.0975,0.1558,0.2318,0.311,0.3742,0.4238,0.4528,0.4964,0.5488,0.6002,0.6318,0.6488,0.6684,0.6922,0.6939,0.595,0.6124,0.0,0.0,0.0,0.0,0.0,0.0,0.0,0.0,0.0,0.8698,0.8672,0.8631,0.8666,0.8848,0.8688,0.8531,0.8495,0.86,0.8693,0.8667,0.8587,0.8807,0.9559,0.958,0.9637,0.9869,0.991,0.9964,1.0126,1.0142,1.0142,1.0142,1.0142,1.0079,0.9903,1.0095,1.0196,1.0196,1.0507,1.0665,1.0713,1.1036,1.1225,1.1272,1.1778,1.2087,1.2294,1.348,1.4001,1.4084,1.5174,1.5628,1.5621,1.5644,1.6187,1.6933,1.7083,1.729,1.7518,0.0,0.0,0.0,0.0,0.0,0.0,0.0,0.0,-0.4504,-0.4886,-0.4966,-0.5136,-0.5513,-0.5742,-0.612,-0.6728,-0.6655,0.0,-0.708,-0.7,-0.6855,-0.6695,-0.7053,-0.73,-0.7392,-0.761,-0.7572,-0.7282,-0.6822,-0.6216,-0.5493,-0.468,-0.4004,-0.3439,-0.2706,-0.1968,-0.1277,-0.0908,-0.042,0.0152,0.0824,0.1443,0.2008,0.2581,0.3103,0.3552,0.3887,0.4452,0.5097,0.5342,0.5673,0.6001,0.6147,0.6173,0.6075,0.5647,0.0,0.5529,0.4939,0.5049,0.5509,0.6246,0.6622,0.6965,0.0,0.0,0.8383,0.85,0.8791,0.8991,0.8837,0.8743,0.8611,0.8448,0.8372,0.8319,0.8196,0.8212,0.8275,0.8388,0.8955,0.9398,0.955,0.955,0.9566,0.9582,0.9582,0.9582,0.9582,0.9582,0.9582,0.955,0.9744,0.9852,0.9852,1.0015,1.0174,1.0355,1.0697,1.0949,1.1138,1.1498,1.2051,1.2779,1.3871,1.4351,1.4369,1.4814,1.4997,1.5043,1.5384,1.5701,1.5965,1.6105,1.6391,1.6777,0.0,0.0,0.0,0.0,0.0,0.0,0.0,0.0,0.0,-0.469,-0.4953,-0.5203,-0.5418,-0.5856,-0.6495,-0.7404,0.0,0.0,-0.8123,-0.7666,-0.7429,-0.7565,-0.7419,-0.7482,-0.7779,-0.7709,-0.7603,-0.7457,-0.6947,-0.6326,-0.558,-0.4907,-0.4309,-0.3756,-0.2939,-0.2235,-0.1614,-0.116,-0.0605,0.0034,0.0472,0.1009,0.1577,0.1881,0.2391,0.2978,0.3355,0.3662,0.0,0.0,0.4992,0.5263,0.5639,0.5648,0.5475,0.5183,0.5178,0.0,0.5281,0.5584,0.6002,0.0,0.6843,0.7221,0.7698,0.7938,0.8088,0.8136,0.8383,0.851,0.8265,0.829,0.8265,0.0,0.7939,0.7909,0.7777,0.7679,0.7689,0.7884,0.7901,0.8047,0.842,0.856,0.8624,0.8624,0.87,0.8802,0.8904,0.9038,0.9097,0.9097,0.9247,0.9392,0.9504,0.9642,0.9802,1.0005,1.0503,1.0792,1.0873,1.1341,1.1989,1.2811,1.3277,1.3759,1.4222,1.4295,1.4423,1.4649,1.5007,1.5203,1.5329,1.587,1.6217,1.6455,0.0,0.0,0.0,0.0,0.0,0.0,0.0,0.0,0.0,0.0,-0.4815,-0.5099,-0.5347,-0.5878,-0.6587,0.0,0.0,0.0,0.0,-0.797,-0.7726,-0.8096,-0.773,-0.7675,-0.8023,-0.7848,-0.7696,-0.7613,-0.7156,-0.6539,-0.5802,-0.5173,-0.4561,-0.3961,-0.3088,-0.2403,-0.1867,-0.1328,-0.0706,-0.0067,0.0184,0.0715,0.1375,0.1496,0.1948,0.2526,0.2804,0.2978,0.0,0.0,0.4113,0.439,0.4689,0.4746,0.467,0.4517,0.4687,0.5018,0.5377,0.5848,0.0,0.6527,0.6901,0.7272,0.7552,0.7641,0.7677,0.7673,0.7768,0.7795,0.7633,0.764,0.7598,0.7436,0.7372,0.7316,0.7214,0.7073,0.7051,0.7257,0.6944,0.6816,0.712,0.7524,0.7808,0.7852,0.7944,0.8079,0.8268,0.8414,0.8528,0.8576,0.8765,0.8942,0.9081,0.9268,0.9466,0.967,1.0137,1.0395,1.0467,1.1087,1.1739,1.2401,1.2523,1.2962,1.3598,1.3605,1.3759,1.4068,1.4502,1.4685,1.474,1.5344,1.5799,1.6079,0.0,0.0,0.0,0.0,0.0,0.0,0.0,0.0,0.0,0.0,0.0,0.0,0.0,-0.5724,-0.6227,0.0,0.0,0.0,0.0,-0.744,-0.7424,-0.7891,-0.8009,-0.8086,-0.8098,-0.8274,-0.8218,-0.7882,-0.7619,-0.7101,-0.6354,-0.5488,-0.4708,-0.3961,-0.3088,-0.2403,-0.1867,-0.1328,-0.0791,-0.0269,0.0065,0.0727,0.151,0.1638,0.1907,0.2212,0.215,0.0,0.0,0.0,0.2895,0.3387,0.3077,0.3198,0.0,0.3605,0.4055,0.4573,0.4851,0.0,0.5895,0.6228,0.6514,0.6794,0.7056,0.7127,0.7131,0.7127,0.702,0.6977,0.7101,0.6813,0.6629,0.6878,0.6655,0.6429,0.6429,0.6429,0.6376,0.627,0.6229,0.6093,0.0,0.6654,0.7297,0.7505,0.7526,0.7575,0.7715,0.7731,0.7824,0.8019,0.8349,0.8511,0.8533,0.8845,0.9113,0.9322,0.9466,0.9638,0.9855,1.0656,1.115,1.1368,1.1833,1.2143,1.238,1.2693,1.2911,1.3106,1.3845,1.4111,1.4145,1.4215,1.4793,1.5558,0.0,0.0,0.0,0.0,0.0,0.0,0.0,0.0,0.0,0.0,0.0,0.0,0.0,0.0,0.0,0.0,0.0,0.0,0.0,-0.758,-0.7688,-0.8018,-0.7996,-0.8048,-0.8235,-0.791,-0.7724,-0.7705,-0.7258,-0.6704,-0.6049,-0.5499,-0.4868,-0.4175,-0.3512,-0.2941,-0.2403,-0.1866,-0.1198,-0.0458,-0.0081,0.0431,0.0999,0.1272,0.1466,0.1606,0.0,0.0,0.0,0.0,0.2612,0.2815,0.2882,0.2913,0.2963,0.3099,0.3696,0.4322,0.4415,0.0,0.6011,0.6348,0.6561,0.6783,0.7095,0.6826,0.6485,0.6389,0.623,0.6053,0.587,0.5834,0.5865,0.5958,0.588,0.5867,0.6045,0.5841,0.5766,0.6035,0.568,0.0,0.0,0.0,0.0,0.6633,0.6847,0.7036,0.7159,0.7302,0.7466,0.7657,0.7857,0.8138,0.8501,0.8608,0.8813,0.9113,0.9603,0.9923,1.0093,1.0663,1.0948,1.0969,1.1086,1.1391,1.1754,1.1658,1.1836,1.2258,1.2816,1.3116,1.3244,1.3362,1.3752,1.4269,0.0,0.0,0.0,0.0,0.0,0.0,0.0,0.0,0.0,0.0,0.0,0.0,0.0,0.0,0.0,0.0,0.0,0.0,0.0,0.0,-0.7601,-0.8017,-0.7854,-0.7795,-0.7873,-0.7489,-0.733,-0.7389,-0.6973,-0.6517,-0.6028,-0.5475,-0.4909,-0.4314,-0.3682,-0.3097,-0.2559,-0.2038,-0.1325,-0.0508,-0.0217,0.0243,0.0787,0.1009,0.12,0.0,0.0,0.0,0.0,0.2068,0.2252,0.2385,0.2367,0.2385,0.2487,0.286,0.3533,0.42,0.4371,0.5272,0.622,0.6391,0.6567,0.6721,0.6762,0.6304,0.5814,0.5577,0.5336,0.5094,0.4847,0.4845,0.4917,0.4985,0.4936,0.5009,0.5318,0.5134,0.5074,0.5359,0.5071,0.4923,0.0,0.0,0.0,0.5837,0.6081,0.6338,0.657,0.6723,0.6954,0.7281,0.7433,0.7727,0.8133,0.8268,0.8528,0.8926,0.9417,0.973,0.9894,1.0182,1.0303,1.0265,1.0275,1.0442,1.0708,1.0714,1.0926,1.1282,1.1927,1.2234,1.2354,1.2486,1.2667,1.2925,0.0,0.0,0.0,0.0,0.0,0.0,0.0,0.0,0.0,0.0,0.0,0.0,0.0,0.0,0.0,0.0,0.0,0.0,0.0,0.0,0.0,-0.7789,-0.7598,-0.7355,-0.7098,-0.7095,-0.7052,-0.6977,-0.6761,-0.6514,-0.6233,-0.543,-0.481,-0.4342,-0.3547,-0.2896,-0.2378,-0.1901,-0.1211,-0.0412,-0.033,0.0182,0.0873,0.0881,0.0,0.0,0.0,0.0,0.0,0.0,0.1809,0.2117,0.1634,0.1702,0.2126,0.287,0.3593,0.4242,0.4662,0.5605,0.6454,0.6347,0.6482,0.6525,0.6076,0.56,0.513,0.4718,0.4353,0.4095,0.0,0.0,0.3789,0.3989,0.3865,0.3886,0.4287,0.4333,0.4312,0.0,0.0,0.0,0.0,0.0,0.0,0.5134,0.0,0.5563,0.5954,0.6075,0.6363,0.6864,0.7089,0.7297,0.7477,0.7819,0.8247,0.8754,0.8888,0.9065,0.9242,0.9258,0.9258,0.9274,0.9396,0.938,0.9329,0.9908,1.0145,1.0255,1.1176,1.1497,1.1471,1.1601,1.1586,1.1636,0.0,0.0,0.0,0.0,0.0,0.0,0.0,0.0,0.0,0.0,0.0,0.0,0.0,0.0,0.0,0.0,0.0,0.0,0.0,0.0,0.0,0.0,0.0,0.0,0.0,0.0,0.0,0.0,0.0,-0.5866,-0.5536,-0.4886,-0.4351,-0.3934,-0.3373,-0.2885,-0.2441,-0.198,-0.133,-0.0595,0.0,0.008,0.053,0.0,0.0,0.0,0.0,0.0,0.0,0.0,0.0,0.2237,0.2444,0.2744,0.3002,0.2968,0.3812,0.4733,0.4547,0.5295,0.6187,0.6453,0.6207,0.5829,0.5672,0.503,0.4327,0.3772,0.331,0.2942,0.0,0.0,0.0,0.2887,0.2983,0.0,0.3537,0.3494,0.0,0.3745,0.0,0.3854,0.3872,0.418,0.0,0.0,0.5093,0.549,0.569,0.6236,0.6544,0.6531,0.6958,0.7216,0.7281,0.7612,0.7846,0.7992,0.8269,0.8431,0.8495,0.8635,0.8705,0.8705,0.8738,0.8813,0.8948,0.9258,0.9445,0.9607,1.04,1.0751,1.0828,1.0863,1.1103,1.1414,0.0,0.0,0.0,0.0,0.0,0.0,0.0,0.0,0.0,0.0,0.0,0.0,0.0,0.0,0.0,0.0,0.0,0.0,0.0,0.0,0.0,0.0,0.0,0.0,0.0,0.0,0.0,0.0,0.0,0.0,0.0,-0.4547,-0.4112,-0.3731,-0.3137,-0.2688,-0.2342,0.0,0.0,0.0,0.0,0.0,0.0,0.0,0.0,0.0,0.0,0.0,0.0,0.0,0.0,0.2435,0.3055,0.3478,0.377,0.384,0.0,0.5134,0.4979,0.547,0.6045,0.6064,0.5787,0.5406,0.5017,0.4346,0.3621,0.2993,0.2517,0.0,0.1856,0.0,0.0,0.0,0.0,0.0,0.2761,0.2771,0.2888,0.0,0.3389,0.0,0.3648,0.4057,0.431,0.0,0.4918,0.5411,0.5748,0.5995,0.6313,0.6745,0.6724,0.6937,0.7417,0.7318,0.7482,0.7917,0.7896,0.7977,0.8107,0.8231,0.8236,0.8155,0.0,0.8402,0.8596,0.8755,0.8981,0.9255,0.9765,1.0037,1.0187,1.0388,1.0707,1.0966,0.0,0.0,0.0,0.0,0.0,0.0,0.0,0.0,0.0,0.0,0.0,0.0,0.0,0.0,0.0,0.0,0.0,0.0,0.0,0.0,0.0,0.0,0.0,0.0,0.0,0.0,0.0,0.0,0.0,0.0,0.0,0.0,0.0,0.0,0.0,0.0,0.0,0.0,0.0,0.0,0.0,0.0,0.0,0.0,0.0,0.0,0.0,0.0,0.0,0.0,0.2624,0.2703,0.3512,0.401,0.4388,0.4839,0.5167,0.5368,0.5413,0.5656,0.5788,0.5413,0.5237,0.4969,0.4275,0.3628,0.2981,0.2294,0.0,0.1477,0.1248,0.1217,0.1235,0.1276,0.0,0.1694,0.2057,0.22,0.2424,0.2832,0.3,0.3177,0.3378,0.3849,0.4183,0.425,0.4778,0.5347,0.5898,0.5667,0.6037,0.7122,0.6523,0.6621,0.7568,0.7036,0.7211,0.8058,0.7652,0.7608,0.7889,0.7889,0.7792,0.765,0.0,0.0,0.8278,0.8473,0.8765,0.9107,0.9361,0.9542,0.9684,1.0089,1.034,1.0508,0.0,0.0,0.0,0.0,0.0,0.0,0.0,0.0,0.0,0.0,-0.3041,-0.3369,0.0,0.0,0.0,0.0,0.0,0.0,0.0,0.0,0.0,0.0,0.0,0.0,0.0,0.0,0.0,0.0,0.0,0.0,0.0,0.0,0.0,0.0,0.0,0.0,0.0,0.0,0.0,0.0,0.0,0.0,0.0,0.0,0.0,0.0,0.0,0.0,0.0,0.0,0.2397,0.3053,0.3866,0.4419,0.4728,0.4436,0.4739,0.5065,0.4644,0.4643,0.4801,0.4887,0.4408,0.3861,0.3669,0.3074,0.0,0.0,0.1069,0.0778,0.0733,0.0764,0.0894,0.1167,0.0,0.0,0.0,0.0,0.2164,0.0,0.0,0.0,0.0,0.0,0.0,0.0,0.0,0.5213,0.5489,0.5959,0.6453,0.693,0.6728,0.6691,0.6872,0.7036,0.7199,0.7363,0.7297,0.7286,0.7335,0.7335,0.7318,0.7311,0.7683,0.0,0.8098,0.8669,0.8915,0.8992,0.9583,0.9816,0.9848,0.987,1.0115,1.039,0.0,0.0,0.0,0.0,0.0,0.0,0.0,-0.1534,-0.1607,-0.1934,-0.2172,-0.2537,-0.3122,-0.3372,-0.3574,0.0,0.0,0.0,0.0,0.0,0.0,0.0,0.0,0.0,0.0,0.0,0.0,0.0,0.0,0.0,0.0,0.0,0.0,0.0,0.0,0.0,0.0,0.0,0.0,0.0,0.0,0.0,0.0,0.0,0.0,0.0,0.0,0.0,0.0,0.0,0.208,0.2653,0.3669,0.449,0.4974,0.4574,0.4786,0.5017,0.441,0.4249,0.4233,0.418,0.3781,0.3302,0.2951,0.0,0.0,0.0,0.0751,0.0491,0.0499,0.0461,0.0,0.0,0.0,0.0,0.0,0.0,0.0,0.0,0.0,0.0,0.0,0.0,0.0,0.0,0.0,0.516,0.564,0.6301,0.6568,0.6383,0.6597,0.679,0.6954,0.6679,0.6757,0.7204,0.7024,0.7085,0.7363,0.7363,0.7391,0.7464,0.7701,0.0,0.7935,0.8436,0.8643,0.8674,0.9068,0.9379,0.9596,0.9663,0.9959,1.0288,0.0,0.0,0.0,0.0,0.0,0.0,0.0,-0.1134,-0.1198,-0.1392,-0.1392,-0.1665,-0.2451,-0.2838,-0.3171,0.0,0.0,0.0,0.0,0.0,0.0,0.0,0.0,0.0,0.0,0.0,0.0,0.0,0.0,0.0,0.0,0.0,0.0,0.0,0.0,0.0,0.0,0.0,0.0,0.0,0.0,0.0,0.0,0.0,0.0,0.0,0.0,0.0,0.0,0.0,0.1764,0.2139,0.3142,0.4087,0.4777,0.455,0.464,0.4699,0.4175,0.3879,0.3674,0.3463,0.3201,0.2855,0.2374,0.1897,0.0,0.0953,0.0618,0.0387,0.0368,0.0246,0.0166,0.0,0.0336,0.0,0.0,0.0,0.0,0.0,0.0,0.0,0.0,0.0,0.0,0.0,0.0,0.0,0.5789,0.6367,0.6453,0.5925,0.6346,0.6724,0.6987,0.6383,0.6416,0.7085,0.6823,0.6917,0.7326,0.7326,0.7442,0.762,0.7692,0.0,0.0,0.8297,0.8458,0.8486,0.8722,0.9016,0.9327,0.9469,0.9729,1.0048,0.0,0.0,0.0,0.0,0.0,0.0,0.0,-0.0723,-0.0706,-0.1085,-0.1034,-0.1057,-0.133,-0.1871,-0.2487,0.0,0.0,0.0,0.0,0.0,0.0,0.0,0.0,0.0,0.0,0.0,0.0,0.0,0.0,0.0,0.0,0.0,0.0,0.0,0.0,0.0,0.0,0.0,0.0,0.0,0.0,0.0,0.0,0.0,0.0,0.0,0.0,0.0,0.0,0.0,0.0,0.1885,0.2235,0.291,0.3592,0.3742,0.0,0.0,0.3484,0.3149,0.2816,0.2786,0.2538,0.2263,0.2145,0.0,0.1283,0.0816,0.0551,0.0364,0.0237,0.0111,0.0077,0.0,0.0,0.0328,0.0,0.0,0.0,0.0,0.0,0.0,0.0,0.0,0.0,0.0,0.0,0.0,0.5583,0.5855,0.5958,0.5908,0.6132,0.6264,0.6293,0.6511,0.6675,0.6741,0.6708,0.6724,0.6773,0.6773,0.6976,0.7351,0.7475,0.0,0.0,0.8704,0.8838,0.8717,0.9287,0.9422,0.9291,0.9329,0.9344,0.9416,0.0,0.0,0.0,0.0,0.0,0.0,-0.0681,-0.0538,-0.0496,-0.0655,-0.0529,-0.0554,-0.0923,-0.1141,-0.1573,-0.2353,0.0,0.0,0.0,0.0,0.0,0.0,0.0,0.0,0.0,0.0,0.0,0.0,0.0,0.0,0.0,0.0,0.0,0.0,0.0,0.0,0.0,0.0,0.0,0.0,0.0,0.0,0.0,0.0,0.0,0.0,0.0,0.0,0.0,0.0,0.0,0.0,0.1629,0.1991,0.0,0.0,0.3133,0.3128,0.296,0.2758,0.2577,0.2577,0.2326,0.2042,0.1898,0.0,0.1121,0.0767,0.0573,0.0455,0.0439,0.0172,-0.0026,0.0,0.0,0.0,0.0,0.0,0.0,0.0,0.0,0.0,0.0,0.0,0.0,0.0,0.0,0.0,0.5269,0.5567,0.5719,0.5719,0.5918,0.602,0.602,0.6152,0.628,0.6395,0.6478,0.663,0.6827,0.6827,0.6981,0.7244,0.7424,0.0,0.0,0.8295,0.8448,0.8222,0.896,0.9265,0.9322,0.9435,0.9563,0.9657,0.0,0.0,0.0,0.0,0.0,-0.0706,-0.0504,-0.0361,-0.0286,-0.0286,-0.0109,-0.0126,-0.0496,-0.058,-0.0832,-0.1375,-0.1936,0.0,0.0,0.0,0.0,0.0,0.0,0.0,0.0,0.0,0.0,0.0,0.0,0.0,0.0,0.0,0.0,0.0,0.0,0.0,0.0,0.0,0.0,0.0,0.0,0.0,0.0,0.0,0.0,0.0,0.0,0.0,0.0,0.0,0.0,0.0,0.0,0.0,0.0,0.0,0.2619,0.2737,0.2585,0.2524,0.2488,0.2447,0.2206,0.1913,0.0,0.0,0.1019,0.0753,0.0652,0.0601,0.0549,0.0206,-0.0063,0.0,0.0,-0.0336,0.0044,0.0,0.0,0.0,0.0,0.0,0.0,0.0,0.0,0.0,0.0,0.0,0.0,0.5269,0.5484,0.5537,0.5673,0.576,0.576,0.5789,0.5885,0.6029,0.622,0.6419,0.6605,0.6747,0.6933,0.7155,0.0,0.0,0.0,0.8061,0.8207,0.7965,0.8782,0.9137,0.9227,0.9359,0.9549,0.9685,0.0,0.0,0.0,0.0,0.0,0.0,-0.0429,-0.0176,0.0,0.0,0.0168,0.0244,0.0109,-0.0202,-0.0378,-0.0319,-0.0866,0.0,0.0,0.0,0.0,0.0,0.0,0.0,0.0,0.0,0.0,0.0,0.0,0.0,0.0,0.0,0.0,0.0,0.0,0.0,0.0,0.0,0.0,0.0,0.0,0.0,0.0,0.0,0.0,0.0,0.0,0.0,0.0,0.0,0.0,0.0,0.0,0.0,0.0,0.0,0.2106,0.2233,0.237,0.2456,0.2473,0.2336,0.2099,0.185,0.0,0.1339,0.1019,0.0753,0.081,0.0798,0.0461,0.0186,-0.0048,-0.0176,-0.0429,0.0,0.0,0.0,0.0,0.0,0.0,0.0,0.0,0.0,0.0,0.0,0.0,0.0,0.0,0.4924,0.519,0.5395,0.5412,0.5412,0.5412,0.5537,0.56,0.5617,0.5937,0.6035,0.5933,0.6388,0.6756,0.0,0.0,0.0,0.0,0.8231,0.8272,0.8185,0.8991,0.9175,0.9003,0.9003,0.9137,0.9272,0.0,0.0,0.0,0.0,0.0,0.0,0.0,-0.0185,-0.005,-0.0008,0.0092,0.0151,0.0101,0.0008,-0.005,-0.0025,-0.0706,0.0,0.0,0.0,0.0,0.0,0.0,0.0,0.0,0.0,0.0,-0.0747,-0.0705,-0.0537,0.0,0.0,0.0,0.0,0.0,0.0,0.0,0.0,0.0,0.0,0.0,0.0,0.0,0.0,0.0,0.0,0.0,0.0,0.0,0.0,0.0,0.0,0.0,0.0,0.0,0.1622,0.1748,0.1873,0.1908,0.1944,0.1941,0.1906,0.1723,0.1536,0.1481,0.1201,0.0965,0.0976,0.0932,0.0872,0.0756,0.0519,0.0289,0.0104,-0.0081,0.0,0.0,0.0,0.0,0.0,0.0,0.0,0.0,0.0,0.0,0.0,0.0,0.0,0.0,0.4625,0.4891,0.519,0.5326,0.5395,0.5395,0.5442,0.5557,0.5746,0.5851,0.5937,0.6054,0.628,0.0,0.0,0.0,0.0,0.0,0.7823,0.8033,0.8153,0.8685,0.8941,0.9003,0.9001,0.9134,0.9272,0.0,0.0,0.0,0.0,0.0,0.0,0.0,-0.0109,0.0025,0.0168,0.0202,0.0227,0.0252,0.0319,0.0361,0.0361,-0.0185,0.0,0.0,0.0,0.0,0.0,0.0,0.0,0.0,-0.0193,-0.0134,-0.0134,-0.0069,0.0043,0.0193,0.0215,0.0,0.0,0.0,0.0,0.0,0.0,0.0,0.0,0.0,0.0,0.2249,0.0,0.0,0.0,0.0,0.0,0.0,0.0,0.0,0.0,0.0,0.0,0.0,0.0,0.1578,0.1683,0.1756,0.1863,0.1935,0.181,0.1686,0.1553,0.1425,0.0,0.1167,0.1176,0.1132,0.1063,0.0985,0.0759,0.0538,0.0406,0.0171,0.0,0.0,0.0,0.0,0.0,0.0,0.0,0.0,0.0,0.0,0.0,0.0,0.0,0.0,0.4311,0.4598,0.508,0.5219,0.5352,0.5481,0.5481,0.5586,0.5804,0.5845,0.5916,0.599,0.6368,0.0,0.0,0.0,0.0,0.0,0.766,0.7865,0.8033,0.8505,0.8784,0.8889,0.8973,0.9125,0.9253,0.0,0.0,0.0,0.0,0.0,0.0,0.0,0.0042,0.0219,0.0471,0.0445,0.0437,0.0504,0.0681,0.0791,0.0791,0.0,0.0,0.0,0.0,0.0,0.0,0.0,0.0,0.0,0.0227,0.0336,0.0345,0.0416,0.0496,0.0575,0.0632,0.0736,0.0862,0.0,0.0,0.0,0.0,0.0,0.0,0.1847,0.2154,0.0,0.0,0.0,0.0,0.0,0.0,0.0,0.0,0.0,0.0,0.0,0.0,0.0,0.0,0.0,0.0,0.0,0.2117,0.2255,0.1939,0.1864,0.1787,0.1481,0.0,0.0,0.1366,0.1366,0.1344,0.1153,0.0922,0.0742,0.0722,0.037,0.0,0.0,0.0,0.0,0.0,0.0,0.0,0.0,0.0,0.0,0.0,0.0,0.0,0.0,0.4019,0.4357,0.5089,0.513,0.5288,0.5603,0.5606,0.5671,0.5803,0.5937,0.593,0.5828,0.6542,0.0,0.0,0.0,0.0,0.0,0.7703,0.7784,0.7861,0.8422,0.8646,0.8703,0.887,0.9065,0.9216,0.0,0.0,0.0,0.0,0.0,0.0,0.0,0.0,0.0,0.0,0.0487,0.0521,0.0639,0.0697,0.0723,0.0,0.0,0.0,0.0,0.0,0.0,0.0,0.0,0.0,0.0,0.0529,0.0655,0.0756,0.093,0.1096,0.1266,0.1283,0.1335,0.141,0.1378,0.0,0.0,0.0,0.0,0.0,0.213,0.2275,0.0,0.0,0.0,0.0,0.2204,0.2159,0.0,0.0,0.0,0.0,0.0,0.0,0.0,0.0,0.1736,0.1853,0.1947,0.0,0.1609,0.1469,0.1478,0.1519,0.0,0.0,0.0,0.0,0.0,0.1389,0.1333,0.1273,0.1146,0.0895,0.0929,0.0898,0.0,0.0,0.0,0.0,0.0,0.0,0.0,0.0,0.0,0.0,0.0,0.0,0.0,0.4234,0.4551,0.5234,0.5345,0.5524,0.5752,0.5752,0.5769,0.5803,0.5937,0.593,0.5813,0.6398,0.0,0.0,0.0,0.0,0.7503,0.7542,0.7661,0.7823,0.7953,0.8197,0.8461,0.8351,0.8538,0.8827,0.0,0.0,0.0,0.0,0.0,0.0,0.0,0.0,0.0,0.0,0.0,0.0748,0.0908,0.0959,0.0,0.0,0.0,0.0,0.0,0.0,0.0,0.0,0.0,0.0,0.0816,0.0984,0.1102,0.1179,0.1379,0.1549,0.1682,0.1712,0.1766,0.1825,0.1722,0.0,0.0,0.0,0.0,0.0,0.2173,0.0,0.0,0.0,0.0,0.0,0.218,0.2132,0.0,0.1943,0.1883,0.1845,0.0,0.0,0.0,0.0,0.1823,0.1928,0.1838,0.1794,0.1703,0.1411,0.1579,0.1756,0.1556,0.0,0.0,0.0,0.0,0.1636,0.1512,0.1488,0.1423,0.1214,0.1223,0.0,0.0,0.0,0.0,0.0,0.0,0.0,0.0,0.0,0.0,0.0,0.0,0.0,0.0,0.4357,0.4603,0.5286,0.5363,0.5555,0.5886,0.589,0.589,0.589,0.6061,0.611,0.6036,0.6522,0.6782,0.0,0.0,0.0,0.7495,0.7399,0.7472,0.7665,0.7765,0.7934,0.8131,0.8101,0.8293,0.8556,0.0,0.0,0.0,0.0,0.0,0.0,0.0,0.0,0.0,0.0,0.0,0.0,0.0,0.0,0.0,0.0,0.0,0.0,0.0,0.0,0.0,0.0,0.0,0.106,0.1179,0.1357,0.1466,0.1531,0.1738,0.1897,0.1988,0.2072,0.2125,0.2159,0.2045,0.0,0.0,0.0,0.0,0.0,0.213,0.0,0.0,0.0,0.0,0.0,0.0,0.0,0.0,0.1989,0.1909,0.1821,0.1781,0.0,0.0,0.0,0.0,0.0,0.1725,0.1928,0.2109,0.1636,0.1936,0.2201,0.169,0.0,0.0,0.0,0.0,0.0,0.0,0.0,0.0,0.0,0.0,0.0,0.0,0.0,0.0,0.0,0.0,0.0,0.0,0.0,0.0,0.0,0.0,0.0,0.0,0.4476,0.4653,0.5282,0.5308,0.5525,0.5974,0.5998,0.5998,0.6015,0.6233,0.6348,0.6366,0.6771,0.7042,0.7196,0.0,0.0,0.7491,0.7326,0.735,0.7522,0.7684,0.7765,0.7823,0.7991,0.8178,0.8346,0.0,0.0,0.0,0.0,0.0,0.0,0.0,0.0,0.0,0.0,0.0,0.0,0.0,0.0,0.0,0.0,0.0,0.0,0.0,0.0,0.0,0.0,0.0781,0.0756,0.1111,0.1145,0.1328,0.1669,0.1923,0.2175,0.2409,0.2541,0.2543,0.2442,0.2421,0.2266,0.2039,0.0,0.0,0.2269,0.2269,0.0,0.0,0.0,0.0,0.0,0.0,0.0,0.0,0.229,0.2351,0.235,0.2177,0.0,0.0,0.0,0.0,0.0,0.1984,0.2105,0.2248,0.2109,0.2272,0.2448,0.0,0.0,0.0,0.0,0.0,0.0,0.0,0.0,0.0,0.0,0.0,0.0,0.0,0.0,0.0,0.0,0.0,0.0,0.0,0.0,0.0,0.0,0.0,0.0,0.0,0.4733,0.4904,0.5286,0.5298,0.547,0.5819,0.5947,0.6021,0.6082,0.6406,0.6558,0.6578,0.6969,0.7161,0.72,0.0,0.7479,0.7499,0.7475,0.7479,0.7503,0.7542,0.7642,0.7804,0.7842,0.7972,0.814,0.0,0.0,0.0,0.0,0.0,0.0,0.0,0.0,0.0,0.0,0.0,0.0,0.0,0.0,0.0,0.0,0.0,0.0,0.0,0.0,0.0,0.1248,0.1011,0.102,0.1311,0.1461,0.1709,0.2081,0.2239,0.2476,0.277,0.2828,0.2811,0.2714,0.2563,0.2434,0.2309,0.0,0.2178,0.231,0.0,0.0,0.0,0.0,0.0,0.0,0.0,0.0,0.0,0.0,0.2579,0.2573,0.242,0.0,0.0,0.0,0.0,0.0,0.1861,0.2139,0.2475,0.2304,0.2436,0.2546,0.0,0.0,0.0,0.0,0.0,0.0,0.0,0.0,0.0,0.0,0.0,0.0,0.0,0.0,0.0,0.0,0.0,0.0,0.0,0.0,0.0,0.0,0.0,0.0,0.0,0.0,0.4974,0.5136,0.5356,0.5491,0.5523,0.577,0.6026,0.6258,0.6492,0.6682,0.6816,0.7083,0.7257,0.7365,0.0,0.7399,0.7495,0.7382,0.7399,0.7503,0.7503,0.7561,0.7642,0.7765,0.7861,0.7953,0.0,0.0,0.0,0.0,0.0,0.0,0.0,0.0,0.0,0.0,0.0,0.0,0.0,0.0,0.0,0.0,0.0,0.0,0.0,0.0,0.126,0.1294,0.1264,0.1355,0.1588,0.1793,0.2084,0.2472,0.2552,0.2753,0.3072,0.3085,0.3035,0.2921,0.2738,0.2603,0.249,0.235,0.2305,0.2365,0.0,0.0,0.0,0.0,0.0,0.0,0.0,0.0,0.0,0.0,0.0,0.0,0.0,0.0,0.0,0.2051,0.2053,0.2076,0.1703,0.2043,0.2486,0.2377,0.0,0.0,0.0,0.0,0.0,0.0,0.0,0.0,0.0,0.0,0.0,0.0,0.0,0.0,0.0,0.0,0.0,0.0,0.0,0.0,0.0,0.0,0.0,0.0,0.0,0.0,0.0,0.0,0.4774,0.4763,0.5106,0.5261,0.5186,0.5491,0.5898,0.6398,0.6585,0.6831,0.7117,0.7213,0.7353,0.7495,0.7342,0.7362,0.7491,0.7342,0.7324,0.7426,0.7426,0.7426,0.7446,0.7665,0.7723,0.7761,0.0,0.0,0.0,0.0,0.0,0.0,0.0,0.0,0.0,0.0,0.0,0.0,0.0,0.0,0.0,0.0,0.0,0.0,0.0,0.0,0.1363,0.1306,0.1352,0.1538,0.1862,0.1885,0.2159,0.2681,0.2805,0.3011,0.3275,0.334,0.3234,0.2998,0.3106,0.2905,0.2517,0.2744,0.2704,0.2495,0.2579,0.0,0.0,0.0,0.0,0.0,0.0,0.0,0.0,0.0,0.0,0.0,0.0,0.0,0.272,0.2018,0.1906,0.1951,0.167,0.1779,0.2037,0.2403,0.0,0.0,0.0,0.0,0.0,0.0,0.0,0.0,0.0,0.0,0.0,0.0,0.0,0.0,0.0,0.0,0.0,0.0,0.0,0.0,0.0,0.0,0.0,0.0,0.0,0.0,0.0,0.0,0.0,0.4074,0.4278,0.4528,0.4829,0.504,0.5566,0.6398,0.6724,0.7076,0.7464,0.7476,0.7484,0.7503,0.7491,0.7491,0.7503,0.7491,0.7376,0.7219,0.7219,0.7219,0.7242,0.7446,0.7522,0.7522,0.0,0.0,0.0,0.0,0.0,0.0,0.0,0.0,0.0,0.0,0.0,0.0,0.0,0.0,0.0,0.0,0.0,0.0,0.0,0.0,0.137,0.1304,0.1279,0.137,0.1589,0.1837,0.2169,0.2578,0.3001,0.3153,0.3056,0.3204,0.3228,0.3118,0.2997,0.2896,0.2806,0.2789,0.2739,0.2721,0.3122,0.333,0.0,0.0,0.0,0.0,0.0,0.0,0.0,0.0,0.2977,0.2896,0.289,0.266,0.2337,0.2018,0.1906,0.1794,0.14,0.168,0.2096,0.2119,0.0,0.0,0.0,0.0,0.0,0.0,0.0,0.0,0.0,0.0,0.0,0.0,0.0,0.0,0.0,0.0,0.0,0.0,0.0,0.0,0.0,0.0,0.0,0.0,0.0,0.0,0.0,0.0,0.0,0.3944,0.4252,0.4439,0.4495,0.4775,0.5167,0.5659,0.6295,0.6794,0.719,0.7283,0.7388,0.7503,0.7369,0.7315,0.7296,0.7173,0.7076,0.7022,0.7142,0.7123,0.7061,0.7384,0.7503,0.7503,0.0,0.0,0.0,0.0,0.0,0.0,0.0,0.0,0.0,0.0,0.0,0.0,0.0,0.0,0.0,0.0,0.0,0.0,0.0,0.1598,0.1433,0.1369,0.1262,0.1279,0.1454,0.169,0.2015,0.2437,0.2997,0.3134,0.2872,0.3053,0.3126,0.3099,0.3049,0.3024,0.3026,0.3022,0.2958,0.2913,0.3544,0.3793,0.0,0.0,0.0,0.0,0.0,0.0,0.0,0.0,0.3109,0.2998,0.2994,0.2668,0.2246,0.2007,0.1839,0.1663,0.1343,0.1631,0.2015,0.0,0.0,0.0,0.0,0.0,0.0,0.0,0.0,0.0,0.0,0.0,0.0,0.0,0.0,0.0,0.0,0.0,0.0,0.0,0.0,0.0,0.0,0.0,0.0,0.0,0.0,0.0,0.0,0.3557,0.373,0.3679,0.4072,0.4228,0.4144,0.4478,0.4736,0.4927,0.5637,0.6284,0.6808,0.6858,0.7048,0.73,0.712,0.7071,0.7099,0.6885,0.6762,0.6733,0.6853,0.6872,0.6838,0.7114,0.7247,0.7296,0.0,0.0,0.0,0.0,0.0,0.0,0.0,0.0,0.0,0.0,0.0,0.0,0.0,0.0,0.0,0.0,0.0,0.0,0.1914,0.1714,0.157,0.1508,0.1304,0.1321,0.1588,0.1467,0.17,0.2302,0.2766,0.2932,0.2804,0.294,0.2963,0.2916,0.3326,0.3353,0.3133,0.353,0.3438,0.3066,0.3738,0.4004,0.4066,0.0,0.0,0.0,0.0,0.0,0.0,0.0,0.3202,0.317,0.3048,0.286,0.2573,0.1984,0.1705,0.1595,0.1604,0.1594,0.1729,0.0,0.0,0.0,0.0,0.0,0.0,0.0,0.0,0.0,0.0,0.0,0.0,0.0,0.0,0.0,0.0,0.0,0.0,0.0,0.0,0.0,0.0,0.0,0.0,0.0,0.0,0.0,0.0,0.3023,0.3192,0.3192,0.3591,0.3792,0.3792,0.4131,0.43,0.4303,0.4842,0.5554,0.6388,0.6259,0.6455,0.6889,0.6748,0.6768,0.6882,0.6682,0.6481,0.63,0.63,0.6432,0.6603,0.6592,0.6719,0.6841,0.0,0.0,0.0,0.0,0.0,0.0,0.0,0.0,0.0,0.0,0.0,0.0,0.0,0.0,0.0,0.0,0.0,0.0,0.2182,0.1859,0.162,0.1508,0.1353,0.1239,0.1179,0.1602,0.1932,0.2165,0.2584,0.282,0.2873,0.2956,0.3041,0.3121,0.3434,0.3549,0.3534,0.3697,0.3798,0.3857,0.4058,0.4398,0.4797,0.0,0.0,0.0,0.0,0.0,0.0,0.0,0.0,0.0,0.3111,0.2713,0.2203,0.2166,0.1718,0.1309,0.1597,0.1569,0.0,0.0,0.0,0.0,0.0,0.0,0.0,0.0,0.0,0.0,0.0,0.0,0.0,0.0,0.0,0.0,0.0,0.0,0.0,0.0,0.0,0.0,0.0,0.0,0.0,0.0,0.0,0.0,0.0,0.3142,0.3192,0.3192,0.3309,0.3425,0.3511,0.3666,0.3835,0.4025,0.4233,0.4854,0.5835,0.5797,0.6014,0.639,0.6174,0.6171,0.6336,0.6373,0.6355,0.6319,0.6451,0.647,0.6414,0.6539,0.6645,0.6656,0.0,0.0,0.0,0.0,0.0,0.0,0.0,0.0,0.0,0.0,0.2517,0.2469,0.0,0.0,0.0,0.0,0.0,0.0,0.2299,0.2021,0.1821,0.1739,0.1507,0.1384,0.1392,0.1982,0.2286,0.23,0.2625,0.281,0.2862,0.3035,0.3208,0.3365,0.0,0.3788,0.3894,0.3854,0.4001,0.4249,0.4413,0.466,0.4967,0.0,0.0,0.0,0.0,0.0,0.0,0.0,0.0,0.0,0.3263,0.0,0.2059,0.2158,0.17,0.1241,0.1539,0.1613,0.0,0.0,0.0,0.0,0.0,0.0,0.0,0.0,0.0,0.0,0.0,0.0,0.0,0.0,0.0,0.0,0.0,0.0,0.0,0.0,0.0,0.0,0.0,0.0,0.0,0.0,0.0,0.0,0.0,0.3192,0.3192,0.3192,0.3278,0.3356,0.3447,0.3611,0.3777,0.3939,0.4061,0.4501,0.5199,0.5205,0.5436,0.5835,0.582,0.5899,0.6062,0.6116,0.6199,0.63,0.6312,0.637,0.6404,0.6318,0.6328,0.6361,0.0,0.0,0.24,0.2656,0.0,0.0,0.0,0.0,0.0,0.0,0.2264,0.2218,0.0,0.0,0.0,0.2254,0.2397,0.246,0.2368,0.2205,0.2124,0.214,0.1755,0.1692,0.2038,0.2491,0.2708,0.2696,0.2833,0.2885,0.2856,0.3204,0.346,0.3644,0.0,0.4106,0.422,0.4042,0.4118,0.4375,0.4723,0.4807,0.4781,0.5257,0.0,0.0,0.0,0.0,0.0,0.0,0.0,0.0,0.3469,0.2815,0.2128,0.2065,0.1692,0.1339,0.149,0.0,0.0,0.0,0.0,0.0,0.0,0.0,0.0,0.0,0.0,0.0,0.0,0.0,0.0,0.0,0.0,0.0,0.0,0.0,0.0,0.0,0.0,0.0,0.0,0.0,0.0,0.0,0.0,0.0,0.0,0.3192,0.3209,0.3226,0.3412,0.3515,0.3531,0.3828,0.3995,0.3995,0.4181,0.4381,0.4592,0.4578,0.4822,0.5297,0.5618,0.588,0.6023,0.5985,0.6119,0.6335,0.6077,0.6251,0.6547,0.6057,0.596,0.6001,0.0,0.0,0.2511,0.2671,0.0,0.0,0.0,0.0,0.0,0.0,0.0,0.0,0.0,0.0,0.0,0.2587,0.254,0.2604,0.2832,0.243,0.2268,0.2485,0.2059,0.1994,0.238,0.2702,0.3056,0.346,0.3089,0.3,0.0,0.0,0.0,0.3945,0.0,0.4785,0.4445,0.4496,0.4587,0.4688,0.4611,0.4722,0.4934,0.4954,0.4803,0.0,0.0,0.0,0.0,0.0,0.0,0.0,0.3479,0.2951,0.2411,0.2396,0.1908,0.1447,0.1735,0.163,0.0,0.0,0.0,0.0,0.0,0.0,0.0,0.0,0.0,0.0,0.0,0.0,0.0,0.0,0.0,0.0,0.0,0.0,0.0,0.0,0.0,0.0,0.0,0.0,0.0,0.0,0.0,0.0,0.3192,0.3192,0.3278,0.3431,0.3481,0.3579,0.3725,0.3809,0.3892,0.0,0.4045,0.4261,0.4592,0.4431,0.462,0.5087,0.5419,0.5815,0.6252,0.6395,0.6579,0.6768,0.671,0.6656,0.6577,0.6481,0.6197,0.5854,0.0,0.0,0.0,0.0,0.0,0.0,0.0,0.0,0.0,0.0,0.0,0.0,0.0,0.2594,0.0,0.0,0.2595,0.2673,0.2848,0.2591,0.2446,0.2451,0.2401,0.2481,0.2681,0.3049,0.341,0.3751,0.353,0.0,0.0,0.0,0.0,0.4317,0.0,0.4996,0.4722,0.4475,0.4592,0.4913,0.4587,0.4673,0.4984,0.4852,0.4677,0.0,0.0,0.0,0.0,0.0,0.0,0.0,0.0,0.0,0.2481,0.2383,0.193,0.1466,0.0,0.0,0.0,0.0,0.0,0.0,0.0,0.0,0.0,0.0,0.0,0.0,0.0,0.0,0.0,0.0,0.0,0.0,0.0,0.0,0.0,0.0,0.0,0.0,0.0,0.0,0.0,0.0,0.0,0.3345,0.3345,0.3345,0.3429,0.3644,0.3713,0.3797,0.3892,0.4092,0.4178,0.4147,0.4314,0.4495,0.4694,0.4581,0.4756,0.5154,0.5331,0.5704,0.6212,0.6324,0.6526,0.6753,0.6757,0.6749,0.673,0.6644,0.6503,0.635,0.0,0.0,0.0,0.0,0.0,0.0,0.0,0.0,0.0,0.0,0.0,0.0,0.0,0.2815,0.27,0.0,0.0,0.0,0.2785,0.277,0.2618,0.2308,0.2684,0.2904,0.2898,0.3334,0.3644,0.3813,0.0,0.0,0.0,0.0,0.0,0.4739,0.0,0.5204,0.5099,0.4572,0.4655,0.5106,0.4729,0.4719,0.4924,0.4855,0.0,0.0,0.0,0.4377,0.4359,0.4219,0.0,0.0,0.0,0.0,0.2565,0.227,0.1893,0.1522,0.0,0.0,0.1364,0.0,0.0,0.0,0.0,0.0,0.0,0.0,0.0,0.0,0.0,0.0,0.0,0.0,0.0,0.0,0.0,0.0,0.0,0.0,0.0,0.0,0.0,0.0,0.0,0.0,0.0,0.3579,0.3546,0.3546,0.3646,0.3825,0.3944,0.4028,0.4111,0.4428,0.4528,0.4384,0.4697,0.4844,0.4844,0.4897,0.5056,0.5306,0.5367,0.5673,0.6133,0.6216,0.6424,0.67,0.6734,0.6859,0.6992,0.6854,0.6888,0.6948,0.0,0.0,0.0,0.0,0.0,0.0,0.0,0.0,0.0,0.0,0.2933,0.2841,0.2975,0.2974,0.2955,0.2934,0.2955,0.3012,0.3126,0.0,0.0,0.2315,0.2686,0.2896,0.2901,0.3243,0.3576,0.3884,0.0,0.0,0.0,0.0,0.0,0.5236,0.0,0.0,0.57,0.5718,0.5556,0.5273,0.5266,0.5025,0.4678,0.0,0.0,0.0,0.0,0.0,0.0,0.451,0.4445,0.0,0.0,0.0,0.2976,0.2312,0.1983,0.1743,0.0,0.0,0.1027,0.0,0.0,0.0,0.0,0.0,0.0,0.0,0.0,0.0,0.0,0.0,0.0,0.0,0.0,0.0,0.0,0.0,0.0,0.0,0.0,0.0,0.0,0.0,0.0,0.0,0.3928,0.3878,0.3758,0.3758,0.3825,0.3961,0.3995,0.4161,0.4508,0.4575,0.4645,0.4731,0.496,0.5054,0.507,0.5243,0.5305,0.5312,0.5612,0.5944,0.6298,0.6657,0.6922,0.7144,0.7316,0.7395,0.7434,0.7593,0.7331,0.6941,0.0,0.0,0.0,0.0,0.0,0.0,0.0,0.0,0.0,0.0,0.0,0.3158,0.3368,0.316,0.3025,0.3104,0.3038,0.3056,0.3192,0.3148,0.2937,0.254,0.294,0.3109,0.2959,0.3428,0.3792,0.0,0.0,0.0,0.0,0.5198,0.5472,0.0,0.0,0.0,0.0,0.0,0.5504,0.5081,0.5192,0.5137,0.0,0.0,0.0,0.0,0.0,0.0,0.0,0.0,0.4593,0.4427,0.4009,0.0,0.0,0.0,0.2203,0.0,0.1301,0.1037,0.0944,0.0,0.0,0.0,0.0,0.0,0.0,0.0,0.0,0.0,0.0,0.0,0.0,0.0,0.0,0.0,0.0,0.0,0.0,0.0,0.0,0.0,0.0,0.0,0.0,0.0,0.3892,0.3892,0.3909,0.4011,0.4161,0.4328,0.4411,0.4528,0.4711,0.4824,0.4974,0.513,0.5107,0.5156,0.5276,0.5438,0.5459,0.5359,0.5511,0.5827,0.6258,0.6318,0.6617,0.7035,0.7129,0.7237,0.7358,0.7557,0.7535,0.738,0.0,0.0,0.0,0.0,0.0,0.0,0.0,0.0,0.0,0.0,0.0,0.3392,0.3619,0.0,0.0,0.0,0.3083,0.3034,0.3118,0.3137,0.3026,0.2765,0.3087,0.3217,0.3101,0.3549,0.0,0.0,0.0,0.0,0.4738,0.5163,0.5513,0.0,0.5728,0.0,0.0,0.0,0.0,0.0,0.0,0.0,0.0,0.0,0.0,0.0,0.0,0.0,0.0,0.0,0.0,0.0,0.0,0.0,0.0,0.0,0.0,0.0,0.0,0.0,0.0,0.0,0.0,0.0,0.0,0.0,0.0,0.0,0.0,0.0,0.0,0.0,0.0,0.0,0.0,0.0,0.0,0.0,0.0,0.0,0.0,0.0,0.0,0.0,0.0,0.0,0.3959,0.3992,0.4145,0.4298,0.4448,0.4592,0.4728,0.4831,0.4877,0.5024,0.5173,0.5326,0.5223,0.5272,0.5458,0.5604,0.562,0.5531,0.557,0.5826,0.6235,0.6129,0.644,0.6976,0.6983,0.715,0.7411,0.7573,0.7756,0.7879,0.0,0.0,0.0,0.0,0.0,0.0,0.0,0.0,0.0,0.0,0.0,0.3354,0.35,0.3313,0.3192,0.3202,0.3073,0.297,0.2923,0.297,0.297,0.289,0.2912,0.0,0.3376,0.3409,0.0,0.0,0.0,0.0,0.4787,0.4377,0.4835,0.6004,0.6571,0.6537,0.6089,0.0,0.0,0.0,0.5685,0.541,0.0,0.0,0.0,0.0,0.0,0.0,0.0,0.0,0.0,0.0,0.0,0.0,0.0,0.0,0.0,0.0,0.0,0.0,0.0,0.0,0.0,0.0,0.0,0.0,0.0,0.0,0.0,0.0,0.0,0.0,0.0,0.0,0.0,0.0,0.0,0.0,0.0,0.0,0.0,0.0,0.0,0.0,0.0,0.0,0.4381,0.4364,0.4558,0.4578,0.4592,0.4592,0.4728,0.4894,0.509,0.5087,0.5103,0.512,0.5292,0.5458,0.56,0.5785,0.5872,0.5883,0.6009,0.619,0.6399,0.6506,0.6815,0.7188,0.718,0.7498,0.7955,0.7972,0.8105,0.8239,0.0,0.0,0.0,0.0,0.0,0.0,0.0,0.0,0.0,0.0,0.0,0.0,0.0,0.3089,0.2958,0.3,0.2882,0.2851,0.2959,0.299,0.2937,0.2776,0.2896,0.3026,0.3137,0.0,0.0,0.0,0.0,0.4338,0.4293,0.4684,0.4977,0.5167,0.5299,0.5591,0.599,0.6208,0.0,0.0,0.557,0.5469,0.0,0.0,0.0,0.0,0.0,0.0,0.0,0.0,0.0,0.0,0.0,0.0,0.0,0.0,0.0,0.0,0.0,0.0,0.0,0.0,0.0,0.0,0.0,0.0,0.0,0.0,0.0,0.0,0.0,0.0,0.0,0.0,0.0,0.0,0.0,0.0,0.0,0.0,0.0,0.0,0.0,0.0,0.0,0.0,0.0,0.4334,0.4398,0.4611,0.4728,0.4728,0.503,0.516,0.5103,0.5223,0.5292,0.5292,0.5455,0.562,0.5806,0.6,0.6099,0.6103,0.6235,0.6327,0.6408,0.6452,0.6751,0.7204,0.7204,0.7393,0.7685,0.7685,0.7773,0.7898,0.0,0.0,0.0,0.0,0.0,0.0,0.0,0.0,0.0,0.0,0.0,0.0,0.0,0.0,0.2713,0.2757,0.2745,0.2759,0.2826,0.2898,0.2847,0.2642,0.2715,0.2857,0.3067,0.0,0.0,0.0,0.0,0.0,0.0,0.462,0.4842,0.473,0.4521,0.4922,0.0,0.0,0.0,0.5054,0.0,0.5306,0.5162,0.0,0.0,0.0,0.0,0.0,0.0,0.0,0.0,0.0,0.0,0.0,0.0,0.0,0.0,0.0,0.0,0.0,0.0,0.0,0.0,0.0,0.0,0.0,0.0,0.0,0.0,0.0,0.0,0.0,0.0,0.0,0.0,0.0,0.0,0.0,0.0,0.0,0.0,0.0,0.0,0.0,0.0,0.0,0.0,0.0,0.4398,0.4664,0.4864,0.4997,0.5193,0.5276,0.5206,0.5193,0.5292,0.5475,0.555,0.5732,0.6004,0.6181,0.6264,0.6264,0.6367,0.6404,0.6404,0.6465,0.6745,0.7106,0.7171,0.7347,0.7559,0.7559,0.7661,0.7775,0.0,0.0,0.0,0.0,0.0,0.0,0.0,0.0,0.0,0.0,0.0,0.0,0.0,0.0,0.0,0.2514,0.2692,0.2719,0.2509,0.2695,0.2728,0.2514,0.2375,0.2573,0.3159,0.0,0.0,0.0,0.0,0.0,0.0,0.0,0.4338,0.4773,0.4444,0.4739,0.5477,0.0,0.5515,0.5247,0.0,0.4902,0.5097,0.0,0.0,0.0,0.5371,0.523,0.0,0.5174,0.0,0.0,0.0,0.0,0.0,0.0,0.0,0.0,0.0,0.0,0.0,0.0,0.0,0.0,0.0935,0.0,0.0,0.0,0.0,0.0,0.0,0.0,0.0,0.0,0.0,0.0,0.0,0.0,0.0,0.0,0.0,0.0,0.0,0.0,0.0,0.0,0.4414,0.4381,0.4578,0.4728,0.498,0.5379,0.5206,0.519,0.5379,0.5013,0.5077,0.56,0.56,0.5815,0.6198,0.6334,0.6404,0.6404,0.6404,0.6404,0.6416,0.6626,0.6778,0.693,0.7122,0.74,0.7699,0.7699,0.7824,0.7971,0.0,0.0,0.0,0.0,0.0,0.0,0.0,0.0,0.0,0.0,0.0,0.0,0.0,0.0,0.0,0.2711,0.2857,0.2798,0.2453,0.2933,0.3009,0.2518,0.2467,0.2479,0.2549,0.0,0.0,0.0,0.0,0.0,0.0,0.0,0.0,0.0,0.4394,0.4501,0.4711,0.4844,0.0,0.0,0.434,0.452,0.0,0.0,0.0,0.0,0.0,0.5426,0.5636,0.0,0.5365,0.5099,0.0,0.0,0.0,0.0,0.0,0.0,0.2201,0.0,0.0,0.0,0.0,0.0,0.1418,0.1505,0.0,0.0,0.0,0.0,0.0,0.0,0.0,0.0,0.0,0.0,0.0,0.0,0.0,0.0,0.0,0.0,0.0,0.0,0.0,0.0,0.4334,0.4317,0.4381,0.4647,0.4911,0.5173,0.5276,0.5209,0.4964,0.5239,0.5405,0.5458,0.5706,0.5951,0.6194,0.6231,0.6317,0.6404,0.6404,0.6404,0.6416,0.6716,0.6864,0.693,0.7281,0.7477,0.7559,0.7559,0.7661,0.7759,0.0,0.0,0.0,0.2713,0.0,0.0,0.0,0.0,0.0,0.0,0.0,0.0,0.0,0.0,0.0,0.2467,0.297,0.314,0.2796,0.3293,0.3403,0.2941,0.2861,0.2807,0.2764,0.0,0.0,0.0,0.0,0.0,0.0,0.0,0.0,0.0,0.4045,0.399,0.0,0.0,0.0,0.0,0.401,0.0,0.0,0.4484,0.4834,0.0,0.0,0.0,0.5602,0.5607,0.5417,0.0,0.0,0.0,0.0,0.0,0.0,0.0,0.0,0.0,0.0,0.0,0.0,0.0,0.1588,0.1693,0.1831,0.0,0.0,0.0,0.0,0.0,0.0,0.0,0.0,0.0,0.0,0.0,0.0,0.0,0.0,0.0,0.0,0.4028,0.4181,0.4284,0.43,0.4367,0.45,0.4697,0.4927,0.5223,0.5176,0.5176,0.5263,0.5256,0.5455,0.5826,0.5789,0.6,0.6412,0.6313,0.64,0.6618,0.6618,0.6618,0.6634,0.6913,0.6975,0.6946,0.7347,0.7505,0.7505,0.7505,0.7542,0.7612,0.0,0.0,0.2212,0.219,0.2068,0.1885,0.0,0.0,0.0,0.0,0.0,0.0,0.0,0.0,0.0,0.0,0.3089,0.359,0.3293,0.3685,0.3796,0.3475,0.3353,0.3297,0.3321,0.0,0.0,0.0,0.0,0.0,0.0,0.0,0.0,0.0,0.3396,0.3228,0.2799,0.0,0.0,0.3791,0.3705,0.3914,0.0,0.0,0.4765,0.5115,0.5307,0.5354,0.5345,0.5498,0.5291,0.0,0.0,0.0,0.0,0.0,0.3224,0.0,0.0,0.0,0.0,0.0,0.0,0.0,0.1634,0.1825,0.2041,0.0,0.0,0.0,0.0,0.0,0.0,0.0,0.0,0.0,0.0,0.0,0.0,0.0,0.0,0.0,0.3961,0.4181,0.43,0.43,0.4317,0.4464,0.4781,0.4827,0.4994,0.5359,0.506,0.5193,0.5839,0.5259,0.5425,0.6334,0.5881,0.6013,0.6659,0.6482,0.6585,0.6897,0.6897,0.6897,0.6913,0.7122,0.7089,0.6979,0.7347,0.7505,0.7505,0.7505,0.7505,0.7505,0.2212,0.1934,0.169,0.1521,0.1647,0.0,0.0,0.0,0.0,0.0,0.0,0.0,0.0,0.0,0.0,0.0,0.0,0.3597,0.3166,0.3764,0.3872,0.3289,0.3232,0.31,0.2848,0.2737,0.0,0.0,0.0,0.0,0.0,0.0,0.0,0.0,0.224,0.2174,0.0,0.0,0.0,0.2571,0.2755,0.0,0.4135,0.406,0.47,0.5604,0.5273,0.5549,0.6003,0.5404,0.5068,0.4826,0.0,0.0,0.0,0.0,0.0,0.0,0.0,0.0,0.0,0.0,0.0,0.0,0.2191,0.2191,0.22,0.0,0.0,0.0,0.0,0.0,0.0,0.0,0.0,0.0,0.0,0.0,0.0,0.0,0.0,0.0,0.3842,0.4114,0.43,0.43,0.4448,0.4611,0.4797,0.496,0.5073,0.5156,0.5335,0.5455,0.5495,0.5785,0.5951,0.6004,0.605,0.6214,0.6449,0.6416,0.6585,0.6897,0.6897,0.6897,0.6913,0.7122,0.7171,0.7171,0.7412,0.7505,0.7505,0.7505,0.7505,0.7505,0.1497,0.123,0.1007,0.0873,0.0,0.0,0.0,0.0,0.0,0.0,0.0,0.0,0.0,0.0,0.0,0.0,0.0,0.0,0.0,0.0,0.4199,0.3869,0.369,0.3514,0.3348,0.312,0.3013,0.0,0.0,0.0,0.0,0.0,0.0,0.0,0.0,0.0,0.0,0.0,0.1603,0.2041,0.2546,0.0,0.3585,0.3885,0.4506,0.5173,0.5013,0.5339,0.5766,0.5186,0.4961,0.0,0.0,0.4261,0.4021,0.0,0.3543,0.3488,0.0,0.0,0.0,0.2787,0.0,0.0,0.0,0.2331,0.2388,0.2355,0.0,0.0,0.0,0.0,0.0,0.0,0.0,0.0,0.0,0.0,0.0,0.0,0.0,0.0,0.3792,0.4011,0.4231,0.4431,0.4611,0.4778,0.4941,0.5143,0.5289,0.5352,0.5517,0.5666,0.5806,0.5868,0.5984,0.6152,0.5984,0.6165,0.6651,0.6482,0.6696,0.7204,0.7204,0.7204,0.7204,0.7314,0.7347,0.7363,0.7456,0.7505,0.7505,0.7505,0.7505,0.7505,0.0827,0.0552,0.0294,0.0202,0.0,0.0,0.0,0.0,0.0,0.0,0.0,0.0,0.0,0.0,0.0,0.0,0.0,0.0,0.0,0.0,0.4212,0.4059,0.3769,0.3622,0.3611,0.3188,0.2928,0.2854,0.0,0.0,0.0,0.0,0.0,0.0,0.0,0.0,0.0,0.0,0.0,0.1701,0.0,0.2845,0.3164,0.3764,0.4312,0.4774,0.4985,0.5182,0.5302,0.5068,0.4987,0.4957,0.4856,0.4545,0.0,0.0,0.0,0.0,0.0,0.0,0.0,0.0,0.0,0.2606,0.0,0.0,0.0,0.0,0.0,0.0,0.0,0.0,0.0,0.0,0.0,0.0,0.0,0.0,0.0,0.0,0.0,0.0,0.0,0.3949,0.4211,0.4578,0.4728,0.4894,0.5087,0.5309,0.5491,0.56,0.5683,0.5864,0.6194,0.5897,0.5967,0.6404,0.5967,0.6148,0.6848,0.6585,0.679,0.7396,0.7423,0.7444,0.7444,0.7493,0.7505,0.7505,0.7505,0.7505,0.7505,0.7505,0.7505,0.7505,0.0358,0.0046,-0.0351,-0.0542,0.0,0.0,0.0,0.0,0.0,0.0,0.0,0.0,0.0,0.0,0.0,0.0,0.0,0.0,0.2256,0.0,0.0,0.2491,0.2308,0.222,0.2233,0.1662,0.1551,0.1952,0.0,0.0,0.0,0.0,0.0,0.0,0.0328,0.0,0.0,0.0,0.0707,0.0,0.1696,0.2536,0.0,0.353,0.4292,0.5371,0.5861,0.5647,0.5155,0.0,0.5299,0.5206,0.0,0.4771,0.4567,0.0,0.0,0.0,0.0,0.0,0.0,0.0,0.332,0.0,0.0,0.0,0.3094,0.2948,0.0,0.0,0.0,0.0,0.0,0.0,0.0,0.0,0.0,0.0,0.0,0.0,0.0,0.0,0.0,0.4087,0.4364,0.4578,0.4728,0.4894,0.5087,0.5402,0.5583,0.56,0.5947,0.6148,0.6194,0.6268,0.6334,0.6404,0.6334,0.6449,0.6724,0.6675,0.6778,0.6975,0.7155,0.7237,0.7248,0.7423,0.7505,0.7505,0.7505,0.7505,0.7505,0.7505,0.7505,0.7505,-0.0564,-0.0657,-0.0852,-0.1021,0.0,0.0,0.0,0.0,0.0,0.0,0.0,0.0,0.0,0.0,0.0,0.0,0.0,0.1996,0.0,0.0,0.0,0.0,0.2021,0.1918,0.2,0.1598,0.1349,0.1277,0.1025,0.0,0.0,0.0,0.0,0.0,-0.0193,0.0,-0.0203,0.0,0.0196,0.0,0.0,0.0,0.0,0.3345,0.4097,0.4998,0.5419,0.5442,0.5243,0.0,0.5107,0.0,0.0,0.0,0.0,0.0,0.0,0.0,0.0,0.0,0.0,0.0,0.0,0.0,0.3333,0.0,0.3373,0.0,0.0,0.0,0.0,0.0,0.0,0.0,0.0,0.0,0.0,0.0,0.0,0.0,0.0,0.0,0.0,0.0,0.0,0.0,0.4717,0.4922,0.5094,0.5537,0.5769,0.5769,0.6132,0.6317,0.6317,0.6367,0.6404,0.6404,0.6404,0.6498,0.6708,0.6708,0.6839,0.7073,0.7171,0.7265,0.7379,0.7456,0.7505,0.7505,0.7505,0.7505,0.7505,0.7505,0.7505,0.7505,-0.1526,0.0,0.0,0.0,0.0,0.0,0.0,0.0,0.0,0.0,0.0,0.0,-0.0583,-0.0436,0.0,0.0,0.0945,0.1274,0.0,0.0,0.1675,0.0,0.0,0.0,0.0,0.1267,0.0977,0.0599,0.0,0.0,0.0,0.0,0.0,0.0,0.0,-0.0628,-0.0711,0.0,-0.0287,0.0221,0.0472,0.1192,0.2199,0.3209,0.3911,0.4431,0.4857,0.5148,0.527,0.4992,0.5096,0.0,0.5194,0.0,0.0,0.0,0.0,0.0,0.4442,0.0,0.0,0.0,0.0,0.0,0.0,0.0,0.0,0.0,0.0,0.0,0.0,0.0,0.0,0.0,0.0,0.0,0.0,0.0,0.0,0.0,0.0,0.0,0.0,0.0,0.0,0.0,0.0,0.4905,0.5096,0.5576,0.586,0.5905,0.6284,0.6482,0.6482,0.6482,0.6498,0.6535,0.6498,0.6581,0.6757,0.6757,0.6888,0.7122,0.7171,0.7281,0.7428,0.7477,0.7505,0.7505,0.7505,0.7505,0.7505,0.7505,0.7505,0.7505,-0.2412,-0.2292,0.0,0.0,0.0,0.0,0.0,0.0,0.0,0.0,0.0,0.0,0.0,0.0,0.0,0.0,0.0,0.0604,0.0093,0.0,0.1002,0.0,0.0,0.0057,0.0,0.0,-0.0014,-0.016,0.0,0.0,0.0,0.0,0.0,0.0,0.0,-0.0973,-0.1258,-0.093,-0.07,-0.0523,-0.0136,0.0554,0.1512,0.0,0.3809,0.3906,0.4575,0.0,0.0,0.532,0.551,0.0,0.0,0.0,0.0,0.0,0.0,0.0,0.0,0.0,0.0,0.4586,0.0,0.0,0.0,0.0,0.4199,0.0,0.0,0.0,0.0,0.0,0.0,0.0,0.0,0.0,0.0,0.0,0.0,0.0,0.0,0.0,0.0,0.0,0.0,0.0,0.0,0.0,0.5074,0.5484,0.5769,0.5901,0.6412,0.6691,0.6691,0.6691,0.6757,0.6881,0.6757,0.6761,0.6897,0.6897,0.6897,0.6913,0.7122,0.7204,0.7216,0.7428,0.7505,0.7505,0.7505,0.7505,0.7505,0.7505,0.7505,0.7505,-0.2621,0.0,0.0,0.0,0.0,0.0,0.0,-0.2202,0.0,0.0,0.0,0.0,0.0,-0.1592,-0.1361,0.0,0.0,-0.0182,-0.0016,0.0146,0.0,0.0,0.0,-0.006,0.0,0.0,0.0,0.0,0.0,0.0,0.0,0.0,0.0,0.0,0.0,-0.1454,0.0,0.0,0.0,0.0,0.0,0.0397,0.1086,0.0,0.2919,0.3307,0.3627,0.4006,0.0,0.4344,0.4684,0.5048,0.4763,0.4793,0.4924,0.4853,0.4628,0.0,0.0,0.0,0.4606,0.4606,0.0,0.0,0.0,0.0,0.0,0.0,0.0,0.0,0.0,0.0,0.0,0.0,0.0,0.0,0.0,0.0,0.0,0.0,0.0,0.0,0.0,0.0,0.0,0.0,0.0,0.0,0.0,0.5485,0.5697,0.5696,0.6214,0.6498,0.6498,0.6626,0.6761,0.6897,0.6991,0.6942,0.6778,0.6864,0.6897,0.6897,0.6979,0.7155,0.7396,0.733,0.7379,0.7489,0.7347,0.7379,0.7505,0.7505,0.7505,0.7505,-0.2926,0.0,0.0,0.0,0.0,0.0,0.0,0.0,0.0,0.0,-0.2357,0.0,-0.2125,0.0,-0.1449,0.0,-0.0927,-0.0539,-0.0202,-0.0248,0.0,0.0,-0.0111,0.0,0.0,0.0,0.0,0.0,0.0,-0.0827,0.0,0.0,0.0,0.0,0.0,-0.1973,-0.1933,0.0,-0.1807,0.0,0.0,-0.0053,0.0,0.0,0.1874,0.2644,0.0,0.3318,0.3728,0.3778,0.4113,0.4494,0.4375,0.4521,0.4713,0.4669,0.4538,0.445,0.4643,0.4707,0.0,0.4971,0.5134,0.0,0.5203,0.0,0.0,0.0,0.0,0.0,0.0,0.0,0.0,0.0,0.0,0.0,0.0,0.0,0.0,0.0,0.0,0.0,0.0,0.0,0.0,0.0,0.0,0.0,0.0,0.0,0.5706,0.571,0.6232,0.6515,0.6515,0.6642,0.6761,0.6897,0.6975,0.697,0.6888,0.6975,0.704,0.7106,0.7106,0.7216,0.7379,0.7248,0.7281,0.7379,0.7248,0.733,0.7505,0.7505,0.7505,0.7505,-0.3344,-0.366,0.0,0.0,-0.3644,0.0,0.0,0.0,-0.3068,0.0,-0.2613,-0.2534,-0.2342,-0.184,-0.1468,-0.1339,-0.086,-0.0555,-0.0539,-0.0404,0.0,0.0,-0.0502,-0.0591,-0.0791,0.0,0.0,0.0,0.0,0.0,0.0,0.0,0.0,0.0,-0.2305,0.0,-0.2681,-0.2357,-0.2105,-0.184,-0.1193,-0.0754,-0.0491,-0.0141,0.0739,0.1882,0.2417,0.284,0.3198,0.3594,0.3825,0.4027,0.4403,0.4553,0.4542,0.4415,0.4479,0.461,0.4662,0.4802,0.5058,0.5633,0.0,0.0,0.0,0.0,0.578,0.0,0.0,0.0,0.0,0.0,0.0,0.0,0.0,0.0,0.0,0.0,0.0,0.0,0.0,0.0,0.0,0.0,0.0,0.0,0.0,0.0,0.0,0.0,0.5739,0.588,0.6383,0.667,0.6691,0.6683,0.6748,0.6897,0.6778,0.6872,0.7167,0.7183,0.7281,0.7472,0.7477,0.7379,0.7204,0.7183,0.7188,0.7204,0.7183,0.7314,0.7505,0.7505,0.7505,0.7505,-0.3557,-0.4211,-0.4903,0.0,-0.4354,-0.3481,0.0,0.0,0.0,0.0,-0.2822,-0.2601,-0.2604,-0.2112,-0.1781,-0.1747,-0.149,0.0,0.0,0.0,0.0,-0.0517,-0.05,-0.0598,-0.0792,-0.0743,0.0,-0.1102,0.0,0.0,-0.16,0.0,0.0,0.0,0.0,0.0,-0.2631,-0.264,-0.2297,-0.1721,-0.1396,-0.1083,-0.0759,0.0,0.0074,0.0573,0.1261,0.183,0.2264,0.2523,0.2961,0.341,0.3418,0.3792,0.4204,0.4062,0.4234,0.4449,0.4466,0.4873,0.531,0.5469,0.5799,0.61,0.0,0.0,0.0,0.0,0.0,0.0,0.0,0.0,0.0,0.0,0.0,0.0,0.0,0.0,0.0,0.5434,0.0,0.0,0.0,0.0,0.0,0.0,0.0,0.0,0.0,0.0,0.0,0.5675,0.5958,0.6227,0.6478,0.6479,0.6624,0.6897,0.6864,0.6843,0.6839,0.6925,0.7007,0.7057,0.722,0.7248,0.7183,0.704,0.7073,0.7183,0.704,0.7188,0.7505,0.7505,0.7505,0.7505,-0.4415,0.0,0.0,-0.617,0.0,0.0,-0.4242,-0.415,0.0,-0.3522,-0.3226,0.0,-0.2885,-0.2421,-0.2125,-0.2125,-0.1913,0.0,-0.1428,0.0,0.0,-0.1045,-0.0915,-0.0943,-0.1145,-0.1011,0.0,-0.1294,0.0,0.0,-0.1871,0.0,0.0,0.0,0.0,-0.2938,-0.285,-0.2717,-0.2381,-0.1897,-0.1659,-0.1358,0.0,-0.0678,-0.0324,0.0077,0.0662,0.1162,0.1609,0.205,0.2498,0.2883,0.3033,0.3428,0.3832,0.3859,0.4087,0.4411,0.4673,0.5064,0.5472,0.5761,0.6132,0.6412,0.6342,0.6521,0.664,0.0,0.0,0.0,0.0,0.0,0.0,0.0,0.0,0.0,0.0,0.0,0.0,0.0,0.5495,0.0,0.0,0.0,0.0,0.0,0.0,0.0,0.0,0.0,0.0,0.5463,0.5837,0.6078,0.6185,0.6275,0.6407,0.6593,0.6593,0.6631,0.6708,0.6843,0.6897,0.6913,0.7204,0.7199,0.697,0.6925,0.6963,0.7073,0.7138,0.7297,0.7505,0.7505,0.7505,0.7505,0.0,0.0,0.0,0.0,0.0,0.0,0.0,-0.5292,0.0,-0.3874,0.0,-0.3515,-0.3184,-0.2764,-0.2511,-0.2475,0.0,-0.2063,-0.193,-0.1966,-0.1915,-0.175,-0.1502,-0.1429,-0.1564,-0.1294,-0.1227,0.0,0.0,0.0,0.0,0.0,0.0,0.0,0.0,0.0,0.0,-0.2754,-0.2438,-0.2207,-0.1941,-0.1597,-0.1212,-0.1026,-0.0598,-0.002,0.0383,0.0775,0.1221,0.1897,0.2244,0.2469,0.2978,0.3278,0.3513,0.373,0.4054,0.4449,0.4979,0.5272,0.557,0.6214,0.6483,0.6613,0.6638,0.6951,0.7192,0.6995,0.7057,0.7058,0.0,0.0,0.0,0.0,0.0,0.0,0.0,0.0,0.0,0.0,0.0,0.0,0.0,0.0,0.0,0.0,0.0,0.0,0.0,0.0,0.0,0.5343,0.583,0.6037,0.5936,0.0,0.6174,0.6228,0.6219,0.6385,0.6659,0.6811,0.6881,0.6897,0.7281,0.7162,0.6708,0.6843,0.6897,0.693,0.7314,0.7477,0.7489,0.7472,0.7477,0.7526,0.0,0.0,0.0,0.0,0.0,-0.8414,-0.7483,-0.5789,-0.4475,-0.4086,-0.3921,-0.3738,-0.3467,-0.325,-0.3078,-0.2913,-0.2848,0.0,0.0,0.0,0.0,-0.1963,-0.1844,-0.1648,-0.1361,-0.1463,-0.153,0.0,0.0,0.0,0.0,0.0,0.0,0.0,0.0,0.0,-0.334,-0.3041,0.0,-0.2338,-0.2141,-0.1811,-0.1423,-0.1279,-0.092,-0.0451,-0.0039,0.0575,0.1244,0.1654,0.1993,0.2306,0.2675,0.3006,0.3324,0.3687,0.416,0.4566,0.4669,0.5122,0.5675,0.6129,0.6418,0.6741,0.7286,0.7431,0.7423,0.7327,0.733,0.7283,0.7069,0.0,0.0,0.0,0.0,0.0,0.0,0.0,0.0,0.0,0.0,0.0,0.0,0.0,0.0,0.0,0.0,0.0,0.0,0.0,0.0,0.0,0.549,0.0,0.0,0.0,0.6039,0.6367,0.6365,0.639,0.6465,0.6646,0.6741,0.6757,0.7101,0.7036,0.6708,0.6843,0.6897,0.693,0.7155,0.7347,0.7477,0.7314,0.7363,0.7505,0.0,0.0,0.0,0.0,0.0,0.0,0.0,-0.7315,-0.5877,-0.4809,-0.4799,-0.467,-0.4133,-0.4145,-0.4009,-0.3598,-0.3498,-0.336,-0.3138,-0.3083,-0.2892,-0.2485,-0.2335,-0.2133,-0.1884,-0.18,-0.1834,-0.2018,0.0,0.0,0.0,0.0,0.0,0.0,0.0,-0.3498,0.0,0.0,0.0,-0.268,-0.2425,-0.2122,-0.1834,-0.1564,-0.1159,-0.0687,-0.0177,0.0312,0.0806,0.1276,0.1703,0.2099,0.2364,0.2737,0.3175,0.3544,0.3944,0.4364,0.4761,0.517,0.5586,0.595,0.6399,0.6807,0.7036,0.7403,0.7663,0.7492,0.7422,0.731,0.7046,0.6923,0.0,0.0,0.0,0.0,0.0,0.0,0.0,0.0,0.0,0.0,0.0,0.0,0.0,0.0,0.0,0.0,0.0,0.0,0.0,0.0,0.0,0.0,0.0,0.0,0.0,0.6395,0.6403,0.641,0.6404,0.6609,0.6708,0.6708,0.6942,0.6958,0.6811,0.6881,0.6864,0.6827,0.7089,0.7265,0.7347,0.7347,0.7412,0.7505,0.0,-0.9709,0.0,0.0,-0.9752,0.0,-0.9647,-0.8987,-0.7824,-0.6045,-0.6011,-0.5917,-0.5278,-0.5331,-0.5218,-0.4715,-0.45,-0.4332,-0.4217,-0.411,-0.3917,-0.3589,-0.3217,-0.2925,-0.2698,-0.2328,-0.2304,0.0,0.0,0.0,0.0,0.0,0.0,0.0,0.0,0.0,0.0,0.0,-0.3149,-0.3075,-0.2706,-0.2451,-0.2216,-0.1865,-0.1414,-0.0923,-0.0373,0.0,0.0313,0.0883,0.137,0.1797,0.2112,0.252,0.2965,0.3358,0.3729,0.4131,0.4774,0.5146,0.5425,0.5756,0.6317,0.6788,0.6744,0.7341,0.7866,0.7638,0.749,0.7318,0.7056,0.7063,0.0,0.0,0.0,0.0,0.0,0.0,0.0,0.0,0.0,0.0,0.0,0.0,0.0,0.0,0.0,0.0,0.0,0.0,0.0,0.0,0.0,0.6054,0.6104,0.0,0.6384,0.6464,0.6426,0.641,0.6404,0.6564,0.6642,0.6642,0.6794,0.6881,0.6897,0.6864,0.6843,0.6823,0.7057,0.7171,0.722,0.733,0.7396,0.7444,0.0,0.0,0.0,0.0,0.0,0.0,-1.0509,-1.0319,-0.9664,-0.8049,-0.7535,-0.7306,-0.7244,-0.6923,-0.6684,-0.6554,-0.6204,-0.6124,-0.6474,-0.61,-0.5841,-0.5794,-0.4915,-0.4176,-0.3682,-0.3161,-0.3056,0.0,0.0,-0.3453,0.0,0.0,0.0,0.0,0.0,0.0,0.0,-0.3906,-0.3675,-0.3417,-0.2958,-0.2648,-0.2451,-0.2235,-0.1786,-0.1218,-0.0923,-0.0452,0.0098,0.0509,0.0923,0.138,0.1994,0.2361,0.2667,0.3246,0.3684,0.4068,0.4388,0.4798,0.5203,0.555,0.605,0.656,0.703,0.7579,0.7971,0.7871,0.7615,0.7392,0.7363,0.7218,0.7102,0.0,0.0,0.0,0.0,0.0,0.0,0.0,0.0,0.0,0.0,0.6427,0.0,0.0,0.0,0.0,0.0,0.0,0.0,0.5769,0.0,0.5913,0.6102,0.6119,0.6315,0.6666,0.6485,0.641,0.6404,0.6416,0.6432,0.6432,0.663,0.6794,0.6897,0.6778,0.6888,0.7134,0.6995,0.704,0.7188,0.7007,0.7073,0.7232,0.0,0.0,0.0,0.0,0.0,0.0,0.0,-1.1192,-1.0857,-1.0327,-0.9291,-0.8266,-0.741,-0.761,-0.7648,-0.7249,-0.708,-0.7003,-0.7042,-0.6866,-0.667,-0.6467,-0.5964,-0.544,-0.4959,-0.4617,-0.4439,0.0,0.0,0.0,0.0,0.0,0.0,0.0,0.0,-0.4375,-0.4347,-0.3993,-0.3769,-0.3645,-0.3178,-0.2865,-0.2668,-0.2451,-0.2002,-0.1454,-0.1218,-0.0727,-0.0137,0.0137,0.0754,0.1453,0.1831,0.2235,0.2652,0.3138,0.3453,0.3754,0.4268,0.4625,0.4925,0.5226,0.5798,0.6367,0.6646,0.7232,0.7746,0.7919,0.7791,0.7589,0.7435,0.7299,0.7173,0.0,0.0,0.0,0.0,0.0,0.0,0.0,0.0,0.0,0.0,0.0,0.0,0.0,0.0,0.0,0.0,0.0,0.0,0.6211,0.0,0.6335,0.6584,0.6585,0.6615,0.6708,0.6615,0.651,0.6404,0.6404,0.6404,0.642,0.6696,0.6728,0.6601,0.6679,0.6773,0.6888,0.6811,0.6958,0.7183,0.7106,0.7204,0.7379,-1.202,0.0,-1.1931,0.0,-1.2069,-1.1883,-1.2142,-1.1892,-1.1651,-1.1614,-1.067,-0.9575,-0.8475,-0.8751,-0.8846,-0.8418,-0.8228,-0.8099,-0.808,-0.7912,-0.7734,-0.7553,-0.7146,0.0,-0.6362,-0.6,-0.5783,-0.5741,-0.564,0.0,0.0,0.0,0.0,0.0,-0.4792,-0.4586,-0.4527,-0.4201,-0.3997,-0.3862,-0.3471,-0.3139,-0.2865,-0.2668,-0.2218,-0.167,-0.1454,-0.0962,-0.0353,-0.0079,0.0582,0.1376,0.1633,0.2056,0.2539,0.3002,0.3262,0.3543,0.4163,0.4497,0.474,0.5004,0.5587,0.6127,0.6296,0.6888,0.7542,0.7966,0.7934,0.7773,0.7553,0.7457,0.7345,0.7116,0.0,0.0,0.0,0.0,0.0,0.0,0.7786,0.7464,0.747,0.6687,0.0,0.0,0.0,0.0,0.0,0.0,0.0,0.0,0.0,0.0,0.6661,0.6724,0.6737,0.6708,0.6642,0.6531,0.6404,0.6404,0.6404,0.642,0.6651,0.6651,0.6498,0.6642,0.6724,0.6757,0.6708,0.6839,0.7052,0.7052,0.7167,0.733,-1.3475,-1.31,-1.2847,-1.3044,-1.2641,-1.2353,-1.2562,-1.2415,-1.2077,-1.1484,-1.1558,-1.1502,-1.1093,-1.07,-1.0481,-1.0457,-0.9916,-0.9752,-1.0143,-0.9601,-0.9359,0.0,0.0,-0.8088,-0.7868,-0.7157,-0.6945,-0.7278,0.0,0.0,-0.7256,0.0,-0.5947,-0.6533,-0.5339,-0.4765,-0.4698,-0.4701,-0.4467,-0.4079,-0.3882,-0.3511,-0.3082,-0.2865,-0.2414,-0.1867,-0.167,-0.1159,-0.053,-0.0137,0.0412,0.0977,0.1374,0.1778,0.2228,0.2835,0.3196,0.3518,0.4054,0.4393,0.4675,0.4926,0.5406,0.5881,0.6134,0.6724,0.7396,0.8058,0.8038,0.7875,0.7809,0.7746,0.7643,0.7513,0.0,0.0,0.0,0.0,0.0,0.8561,0.7599,0.7041,0.7363,0.6615,0.0,0.0,0.0,0.0,0.0,0.0,0.0,0.6005,0.6205,0.0,0.6106,0.6311,0.6513,0.6691,0.6498,0.6404,0.6404,0.6404,0.6404,0.6404,0.6404,0.6515,0.6691,0.6708,0.6778,0.6881,0.6757,0.6708,0.6708,0.6708,0.6794,0.693,-1.3176,-1.3338,-1.3498,-1.3321,-1.3357,-1.3414,-1.3472,-1.3434,-1.3318,-1.3125,-1.3003,-1.2822,-1.2564,-1.1443,-1.07,0.0,-1.04,-1.0274,0.0,-1.0218,-1.0143,-1.0218,-0.9804,-0.9469,-0.9275,-0.877,-0.8414,-0.8248,0.0,0.0,0.0,-0.6368,-0.59,-0.5701,-0.5318,-0.5054,-0.4898,-0.4759,-0.4543,-0.4289,-0.4077,-0.3921,-0.3728,-0.3198,-0.308,-0.308,-0.2141,-0.1669,-0.1372,-0.0647,0.0,0.0569,0.0973,0.159,0.2268,0.2734,0.3028,0.3291,0.3676,0.4148,0.4559,0.4698,0.5167,0.5693,0.6054,0.6785,0.7493,0.7792,0.7778,0.7726,0.7839,0.77,0.7561,0.7572,0.7759,0.0,0.0,0.0,0.0,0.7836,0.713,0.671,0.69,0.6297,0.0,0.0,0.0,0.0,0.0,0.0,0.0,0.0,0.6309,0.0,0.6509,0.6573,0.6571,0.6498,0.6432,0.6404,0.6404,0.6404,0.6404,0.6404,0.6404,0.6432,0.6498,0.6498,0.6597,0.6741,0.6564,0.663,0.6827,0.6741,0.6778,0.6913,-1.3806,-1.3888,-1.4015,-1.3864,-1.3873,-1.3929,-1.4007,-1.3949,-1.3929,-1.4007,-1.3699,-1.3456,-1.3338,-1.2184,0.0,-1.1375,-1.1093,-1.0879,-1.0768,-1.068,-1.0564,-1.0406,-1.0274,-1.0114,-0.9909,-0.9659,0.0,-0.8702,-0.8394,-0.7905,-0.723,-0.6633,-0.6156,-0.5786,-0.5518,-0.5304,-0.511,-0.4973,-0.4757,-0.4501,-0.4465,-0.4348,-0.4175,-0.3823,-0.3743,-0.3665,-0.2707,-0.2157,-0.1784,-0.0982,-0.0314,0.0275,0.0746,0.1335,0.1961,0.2531,0.2884,0.3189,0.3578,0.4058,0.4488,0.4638,0.4973,0.5396,0.5815,0.6526,0.715,0.7356,0.749,0.7612,0.7767,0.7711,0.7677,0.7741,0.783,0.7846,0.7721,0.0,0.0,0.0,0.0,0.0,0.0,0.6317,0.6063,0.0,0.0,0.0,0.0,0.0,0.0,0.6111,0.6295,0.0,0.6395,0.6478,0.6412,0.6206,0.6206,0.6206,0.6222,0.6284,0.6284,0.6222,0.635,0.6367,0.6334,0.6383,0.6465,0.6576,0.6449,0.6531,0.67,0.6613,0.6696,0.6827,-1.5067,-1.4694,-1.4429,0.0,-1.4288,0.0,-1.4256,-1.4111,-1.4071,-1.4256,-1.3887,-1.3623,-1.3623,-1.3039,-1.2583,-1.2449,0.0,0.0,0.0,-1.1049,-1.0746,-1.0257,-1.0267,-1.0161,-0.9992,-0.9954,-0.9539,-0.8703,-0.7882,-0.7465,-0.7446,-0.6849,-0.6563,-0.6525,-0.5909,-0.5518,-0.534,-0.5321,-0.5107,-0.4796,-0.4965,-0.481,-0.4521,-0.4659,-0.4387,-0.386,-0.3329,-0.2663,-0.1921,-0.1237,-0.0589,0.0039,0.0628,0.1041,0.1453,0.2256,0.2746,0.316,0.3626,0.4055,0.4419,0.4701,0.4862,0.5057,0.5517,0.6008,0.6482,0.6815,0.7188,0.748,0.7578,0.7757,0.7933,0.8005,0.795,0.785,0.7708,0.0,0.0,0.0,0.0,0.0,0.6677,0.6599,0.6261,0.0,0.0,0.0,0.0,0.0,0.5914,0.5789,0.6149,0.6208,0.5903,0.6087,0.6083,0.5905,0.5905,0.5905,0.5908,0.6099,0.6083,0.5925,0.6235,0.6301,0.6181,0.6317,0.6367,0.6383,0.6383,0.6383,0.6404,0.6404,0.6515,0.6675,0.0,0.0,-1.5068,-1.4863,-1.4944,-1.5053,-1.5122,-1.508,-1.5053,-1.5122,-1.4888,-1.4716,-1.4716,-1.4255,-1.387,-1.3681,-1.2682,-1.1795,-1.1159,-1.1456,-1.1368,-1.068,-1.0811,-1.0869,-1.0812,-1.0513,-0.9817,-0.8703,-0.7733,-0.7196,-0.7038,-0.6583,-0.6257,-0.6057,-0.5902,-0.5805,-0.5747,-0.5437,-0.5418,-0.5592,-0.534,-0.5356,-0.5492,-0.5082,-0.5026,-0.5032,-0.3995,-0.3507,-0.3233,-0.2392,-0.1492,-0.0609,-0.0157,0.0589,0.1434,0.2079,0.2451,0.2726,0.3159,0.3589,0.4029,0.4392,0.492,0.542,0.5689,0.6007,0.6346,0.6675,0.6909,0.7141,0.7459,0.7777,0.8014,0.8127,0.8095,0.7911,0.7529,0.7131,0.683,0.0,0.6543,0.6585,0.6968,0.683,0.6665,0.0,0.0,0.0,0.0,0.5686,0.5652,0.5573,0.5712,0.583,0.5898,0.5952,0.5954,0.5905,0.5905,0.5905,0.5908,0.5954,0.5938,0.5908,0.5987,0.6004,0.5971,0.6008,0.6103,0.6247,0.6247,0.6317,0.6404,0.6404,0.6432,0.6465,-1.463,-1.4867,-1.5025,-1.4833,-1.4968,-1.5082,-1.5082,-1.5173,-1.5264,-1.5264,-1.5023,-1.4868,-1.4868,-1.4157,-1.3622,-1.3514,-1.3125,-1.2626,-1.2016,-1.195,-1.1623,-1.0926,-1.0662,-1.0481,-1.0274,-1.0048,-0.9444,-0.8422,-0.7503,-0.6965,-0.6753,-0.6544,-0.6315,-0.608,-0.608,-0.5964,-0.575,-0.5537,-0.5556,-0.575,-0.5518,-0.5692,-0.6041,-0.5728,-0.565,-0.5615,-0.4676,-0.4229,-0.3917,-0.2961,-0.2,-0.1118,-0.0609,0.0157,0.0962,0.1609,0.2118,0.255,0.2767,0.3294,0.3908,0.4344,0.4812,0.5219,0.5389,0.5672,0.5944,0.6148,0.633,0.6597,0.7122,0.7379,0.7635,0.8042,0.7747,0.7375,0.7124,0.6635,0.6297,0.6314,0.63,0.6356,0.6535,0.6561,0.642,0.6059,0.6039,0.0,0.5638,0.5456,0.5401,0.5453,0.5494,0.5555,0.5673,0.5677,0.5677,0.5677,0.5677,0.5677,0.5673,0.5736,0.5723,0.5673,0.5839,0.5855,0.5769,0.5855,0.5971,0.6066,0.6165,0.6247,0.6317,0.6383,0.6404,0.6404,-1.4782,-1.4733,-1.4733,-1.4733,-1.4712,-1.4684,-1.4684,-1.4844,-1.4955,-1.4912,-1.4669,-1.4498,-1.4498,-1.359,-1.2947,-1.2908,-1.3379,-1.34,-1.2754,-1.2295,-1.1711,-1.0957,-1.0312,-0.9813,-0.944,-0.9322,-0.8884,-0.8102,-0.7346,-0.6865,-0.6641,-0.6621,-0.6505,-0.6338,-0.6319,-0.6122,-0.5831,-0.5695,-0.5754,-0.5928,-0.5773,-0.5986,-0.6393,-0.6358,-0.6157,-0.5841,-0.5315,-0.4849,-0.4343,-0.3429,-0.2567,-0.1744,-0.102,-0.0373,0.0275,0.1021,0.1747,0.2354,0.247,0.3137,0.39,0.4294,0.4586,0.4812,0.4947,0.5237,0.5504,0.5608,0.5757,0.6042,0.6626,0.6725,0.6896,0.7505,0.6999,0.6515,0.6437,0.0,0.5737,0.5927,0.5943,0.5949,0.597,0.6185,0.6024,0.531,0.5704,0.5792,0.5382,0.5145,0.5101,0.5268,0.5294,0.5312,0.5312,0.5345,0.5359,0.5359,0.5379,0.5395,0.5412,0.5521,0.5504,0.5412,0.571,0.5723,0.5583,0.5756,0.5839,0.5872,0.605,0.6132,0.6165,0.6284,0.6321,0.6321,-1.4902,-1.4872,-1.4872,-1.4872,-1.4722,-1.462,-1.462,-1.4519,-1.4346,-1.4125,-1.4047,-1.4019,-1.4019,-1.3836,-1.3636,-1.3407,-1.3478,-1.2916,-1.1484,-1.1925,-1.1748,-1.0626,-1.0461,-1.0294,-1.0073,-0.9401,-0.8742,-0.8102,-0.7638,-0.7211,-0.6845,-0.6676,-0.6583,-0.6544,-0.6374,-0.6548,-0.6911,-0.6173,-0.6486,-0.7377,-0.6532,-0.6447,-0.6788,-0.6618,-0.6289,-0.588,-0.5802,-0.5392,-0.4888,-0.4713,-0.3971,-0.2958,-0.1998,-0.1254,-0.049,0.0628,0.1218,0.163,0.2315,0.3137,0.3819,0.3882,0.4265,0.4661,0.4799,0.5087,0.5419,0.5711,0.57,0.5713,0.5939,0.5873,0.5778,0.5721,0.5745,0.5632,0.524,0.0,0.5402,0.5272,0.5734,0.614,0.631,0.6352,0.6267,0.5974,0.5616,0.5346,0.5166,0.4847,0.4695,0.4728,0.4835,0.4897,0.4897,0.5057,0.5156,0.5156,0.5326,0.5395,0.5395,0.5428,0.5428,0.5395,0.5462,0.5458,0.5425,0.5458,0.5541,0.565,0.5683,0.5798,0.5954,0.5971,0.5971,0.5971,-1.4536,-1.4379,-1.437,-1.4541,-1.4509,-1.4407,-1.4279,-1.4279,-1.4147,-1.3741,-1.3645,-1.3637,-1.3637,-1.3272,-1.2997,-1.2858,-1.2782,-1.2363,-1.1487,-1.1828,-1.1766,-1.1027,-1.0462,-0.9988,-0.9568,-0.897,-0.8532,-0.8255,-0.7853,-0.7507,-0.7211,-0.6903,-0.6695,-0.6602,-0.6618,-0.6718,-0.6872,-0.6676,-0.693,-0.7434,-0.6853,-0.6733,-0.6884,-0.6676,-0.6389,-0.6099,-0.596,-0.565,-0.5282,-0.5082,-0.438,-0.3443,-0.2508,-0.1705,-0.0901,0.0235,0.108,0.1749,0.2335,0.2863,0.3354,0.3704,0.3987,0.4262,0.4604,0.481,0.4933,0.4988,0.4856,0.4903,0.5428,0.5184,0.5139,0.5871,0.547,0.0,0.5013,0.5147,0.52,0.5114,0.5623,0.5951,0.5864,0.5768,0.5542,0.5153,0.4999,0.4891,0.4838,0.4578,0.4495,0.4592,0.4661,0.4694,0.4694,0.4861,0.4941,0.4941,0.5027,0.5126,0.5239,0.5239,0.5292,0.5395,0.5395,0.5395,0.5395,0.5395,0.5442,0.5504,0.5567,0.565,0.5752,0.5855,0.5905,0.5905,-1.4265,-1.3991,-1.3926,-1.4193,-1.4245,-1.4194,-1.3992,-1.4033,-1.3922,-1.3414,-1.3209,-1.3144,-1.3144,-1.2643,-1.2313,-1.2312,-1.22,-1.2043,-1.1834,-1.1842,-1.1688,-1.1346,-1.0414,-0.9623,-0.9008,-0.8694,-0.8499,-0.8403,-0.8049,-0.7761,-0.7561,-0.7115,-0.6826,-0.6676,-0.6826,-0.6865,-0.683,-0.7142,-0.7315,-0.7373,-0.708,-0.6961,-0.6945,-0.6753,-0.6544,-0.6335,-0.6138,-0.5883,-0.5615,-0.5259,-0.4691,-0.3988,-0.3017,-0.2254,-0.1469,-0.0216,0.0962,0.1925,0.2315,0.257,0.2863,0.3431,0.3669,0.3874,0.4307,0.4489,0.4497,0.4272,0.415,0.4247,0.4818,0.4529,0.4585,0.576,0.0,0.456,0.0,0.4866,0.4891,0.4911,0.5276,0.5428,0.5163,0.5007,0.4708,0.4214,0.4361,0.4425,0.4345,0.4247,0.4264,0.4459,0.4511,0.4528,0.4528,0.4678,0.4744,0.4744,0.4781,0.4911,0.5103,0.5103,0.5206,0.5395,0.5395,0.5395,0.5395,0.5395,0.5395,0.5408,0.5521,0.555,0.5567,0.5723,0.5789,0.5789,-1.441,-1.4113,-1.3988,-1.4029,-1.4077,-1.4055,-1.3852,-1.3668,-1.3388,-1.2915,-1.2575,-1.2387,-1.2387,-1.2336,-1.2325,-1.2381,-1.2342,-1.2257,-1.2167,-1.1884,-1.1546,-1.1134,-1.0345,-0.9621,-0.9008,-0.8965,-0.877,-0.8403,-0.8178,-0.7972,-0.7765,-0.7176,-0.6899,-0.6884,-0.6899,-0.7096,-0.7446,-0.7465,-0.7695,-0.7991,-0.7411,-0.718,-0.7161,-0.6965,-0.6753,-0.6583,-0.6563,-0.6251,-0.5844,-0.5634,-0.5401,-0.4968,-0.372,-0.3173,-0.2603,-0.0785,0.0628,0.1709,0.2118,0.2373,0.257,0.2824,0.3238,0.3654,0.3825,0.4155,0.4346,0.4078,0.4165,0.4189,0.3878,0.3874,0.3944,0.4001,0.0,0.0,0.409,0.4188,0.4285,0.4347,0.44,0.44,0.4384,0.4375,0.422,0.3859,0.3961,0.3911,0.3598,0.3744,0.3892,0.4045,0.4231,0.4317,0.4317,0.4511,0.4608,0.4608,0.4744,0.4911,0.5103,0.5103,0.5206,0.5395,0.5395,0.5395,0.5395,0.5395,0.5395,0.5395,0.5408,0.5408,0.5408,0.5428,0.5445,0.5445,-1.4418,-1.397,-1.3759,-1.3964,-1.4065,-1.3968,-1.3603,-1.3701,-1.3497,-1.2615,-1.2569,-1.2541,-1.2378,-1.2365,-1.2381,-1.2459,-1.2299,-1.2171,-1.2136,-1.174,-1.1279,-1.0756,-1.0199,-0.9733,-0.9378,-0.9137,-0.8927,-0.877,-0.8312,-0.8063,-0.7972,-0.723,-0.6903,-0.6903,-0.7153,-0.7365,-0.7542,-0.8036,-0.8193,-0.8083,-0.7857,-0.7531,-0.72,-0.7123,-0.6888,-0.6602,-0.6602,-0.6289,-0.5864,-0.5676,-0.5459,-0.5104,-0.3995,-0.3487,-0.2938,-0.1177,-0.0157,0.051,0.0903,0.1648,0.2392,0.2726,0.2961,0.3167,0.3438,0.3641,0.3724,0.3536,0.3627,0.3747,0.3752,0.3573,0.3591,0.4152,0.0,0.3612,0.3837,0.3912,0.3922,0.3813,0.3995,0.4081,0.3995,0.3758,0.3558,0.3443,0.3391,0.336,0.3311,0.3627,0.3859,0.3995,0.4081,0.4181,0.43,0.4381,0.4414,0.4414,0.4464,0.4597,0.4791,0.4791,0.4874,0.503,0.503,0.503,0.503,0.503,0.5093,0.5206,0.5206,0.5292,0.5395,0.5395,0.5395,0.5395,-1.4396,-1.3874,-1.3565,-1.3792,-1.392,-1.3838,-1.3428,-1.3563,-1.3442,-1.2671,-1.2717,-1.2747,-1.2564,-1.2485,-1.2415,-1.2414,-1.2144,-1.1935,-1.1811,-1.1382,-1.0925,-1.0513,-1.0237,-0.9941,-0.9601,-0.9322,-0.9118,-0.9003,-0.8465,-0.8159,-0.8083,-0.7269,-0.6903,-0.6922,-0.7326,-0.7503,-0.7561,-0.836,-0.846,-0.8102,-0.8102,-0.7776,-0.7296,-0.7219,-0.6988,-0.6695,-0.6618,-0.6347,-0.5983,-0.577,-0.5556,-0.5243,-0.4423,-0.3739,-0.2956,-0.1687,-0.0922,-0.0412,-0.0078,0.0843,0.1765,0.2041,0.2315,0.2578,0.2804,0.3079,0.3228,0.3097,0.323,0.3424,0.3587,0.3473,0.3567,0.4211,0.385,0.3564,0.3768,0.3821,0.3744,0.3527,0.3642,0.3694,0.3558,0.324,0.3025,0.296,0.2974,0.3058,0.3192,0.3527,0.3744,0.3847,0.3911,0.4028,0.4197,0.4267,0.43,0.43,0.43,0.4398,0.4592,0.4592,0.4678,0.4797,0.4797,0.4797,0.4797,0.4797,0.4877,0.5007,0.5073,0.519,0.5309,0.5379,0.5359,0.5309,-1.4377,-1.3874,-1.3499,-1.3492,-1.3614,-1.3608,-1.3336,-1.3191,-1.3135,-1.3186,-1.2965,-1.2827,-1.2896,-1.2661,-1.2428,-1.2221,-1.1891,-1.1552,-1.1225,-1.0762,-1.05,-1.05,-1.0494,-1.0218,-0.962,-0.9601,-0.9397,-0.9003,-0.8599,-0.8308,-0.8083,-0.7269,-0.6903,-0.6922,-0.7326,-0.7503,-0.7561,-0.836,-0.846,-0.8102,-0.8102,-0.7853,-0.7484,-0.7277,-0.708,-0.6884,-0.6676,-0.647,-0.6261,-0.598,-0.5767,-0.554,-0.5124,-0.3988,-0.274,-0.2332,-0.1607,-0.0881,-0.0666,-0.0039,0.0589,0.0589,0.1256,0.1901,0.1901,0.2463,0.2951,0.2819,0.3054,0.3268,0.321,0.3564,0.3883,0.3881,0.4006,0.4019,0.3821,0.3849,0.3791,0.3526,0.3311,0.3142,0.3006,0.282,0.2621,0.2406,0.2773,0.3058,0.3192,0.3395,0.3498,0.3498,0.3694,0.3859,0.3995,0.4197,0.43,0.43,0.43,0.4398,0.4592,0.4592,0.4678,0.4797,0.4797,0.4797,0.4797,0.4797,0.4797,0.4811,0.5024,0.5103,0.512,0.5326,0.5276,0.5123,-1.4559,-1.4119,-1.3781,-1.3536,-1.3457,-1.3393,-1.3317,-1.34,-1.332,-1.2971,-1.3173,-1.3167,-1.2677,-1.2587,-1.2568,-1.2558,-1.1986,-1.1518,-1.1224,-1.1075,-1.0872,-1.0573,-1.0388,-1.0143,-0.9827,-0.9676,-0.9473,-0.9213,-0.8803,-0.8441,-0.8083,-0.743,-0.7042,-0.6922,-0.7326,-0.7503,-0.7561,-0.836,-0.846,-0.8102,-0.8102,-0.7853,-0.7503,-0.7426,-0.7196,-0.6899,-0.6826,-0.6602,-0.6261,-0.598,-0.5864,-0.5709,-0.5179,-0.4402,-0.3665,-0.339,-0.2899,-0.2408,-0.2195,-0.1862,-0.1196,0.0412,0.1354,0.1905,0.1905,0.2253,0.2584,0.2591,0.2629,0.2668,0.2651,0.2488,0.2429,0.2665,0.274,0.2826,0.3012,0.3042,0.2984,0.2762,0.2807,0.2738,0.2472,0.2472,0.2423,0.2272,0.2587,0.2906,0.3192,0.3261,0.3412,0.3711,0.3775,0.3859,0.3995,0.4061,0.4164,0.43,0.43,0.4334,0.4381,0.4381,0.4414,0.445,0.445,0.445,0.445,0.445,0.4531,0.4661,0.4725,0.4808,0.4894,0.4964,0.509,0.5224,-1.4909,-1.4469,-1.4089,-1.3766,-1.3562,-1.3412,-1.3317,-1.3243,-1.3151,-1.2985,-1.3087,-1.3014,-1.2591,-1.2505,-1.2419,-1.2242,-1.1669,-1.1295,-1.1212,-1.0987,-1.077,-1.0612,-1.0261,-1.0011,-0.9903,-0.9695,-0.9511,-0.9303,-0.8899,-0.8499,-0.8083,-0.7565,-0.7176,-0.6922,-0.7234,-0.733,-0.7307,-0.8112,-0.8269,-0.7983,-0.8063,-0.791,-0.7603,-0.745,-0.7173,-0.688,-0.6807,-0.6583,-0.628,-0.6119,-0.5944,-0.5689,-0.516,-0.4696,-0.4292,-0.4094,-0.3722,-0.3349,-0.3235,-0.2805,-0.2038,-0.0568,0.0216,0.0706,0.0962,0.1377,0.1771,0.2072,0.2078,0.2049,0.2183,0.1979,0.186,0.208,0.2171,0.2272,0.247,0.2554,0.2488,0.2238,0.2388,0.2354,0.2001,0.2035,0.2137,0.2272,0.2537,0.2839,0.3175,0.3243,0.3366,0.356,0.3613,0.3685,0.3797,0.3797,0.393,0.4181,0.4181,0.4181,0.4181,0.4267,0.425,0.4181,0.4181,0.4181,0.4181,0.4181,0.4247,0.4378,0.4542,0.4645,0.4728,0.4781,0.4916,0.5064,-1.5275,-1.4865,-1.4418,-1.4059,-1.3871,-1.3644,-1.3355,-1.2951,-1.2798,-1.3119,-1.2804,-1.2538,-1.2547,-1.2399,-1.21,-1.1599,-1.1214,-1.105,-1.1146,-1.0654,-1.0426,-1.0595,-1.0163,-0.9943,-0.9943,-0.9716,-0.9492,-0.9265,-0.8913,-0.8556,-0.814,-0.7733,-0.7346,-0.6961,-0.7123,-0.708,-0.6961,-0.7757,-0.7983,-0.7821,-0.804,-0.7991,-0.7765,-0.7396,-0.7099,-0.6884,-0.6695,-0.649,-0.63,-0.628,-0.5948,-0.5498,-0.5143,-0.489,-0.4701,-0.4501,-0.419,-0.388,-0.3841,-0.3096,-0.2293,-0.2038,-0.1705,-0.1235,-0.0491,0.0118,0.0725,0.1333,0.1369,0.1376,0.1679,0.1705,0.1707,0.18,0.1923,0.2027,0.2078,0.2192,0.2171,0.1867,0.2001,0.1968,0.1597,0.158,0.1817,0.234,0.2571,0.2824,0.3154,0.3283,0.3308,0.3208,0.332,0.3427,0.3511,0.3502,0.3663,0.3978,0.3978,0.3978,0.3995,0.4164,0.4147,0.3978,0.3978,0.3978,0.3978,0.3978,0.3978,0.4028,0.4392,0.455,0.4579,0.4699,0.4736,0.4769,-1.5065,-1.4882,-1.4643,-1.4103,-1.406,-1.392,-1.3371,-1.331,-1.3211,-1.2917,-1.2843,-1.2654,-1.226,-1.226,-1.2248,-1.2131,-1.1907,-1.1462,-1.0776,-1.0803,-1.0771,-1.0608,-1.0349,-1.0202,-1.0202,-0.9807,-0.9416,-0.9061,-0.9132,-0.8956,-0.8551,-0.8159,-0.7753,-0.7365,-0.7257,-0.708,-0.6961,-0.7757,-0.7983,-0.7821,-0.8189,-0.8121,-0.7784,-0.7708,-0.7353,-0.6903,-0.6845,-0.6602,-0.6261,-0.606,-0.5709,-0.534,-0.5262,-0.509,-0.4918,-0.4879,-0.4701,-0.4426,-0.4118,-0.3743,-0.3311,-0.2746,-0.2531,-0.2138,-0.0825,-0.0196,0.0177,0.0314,0.0332,0.0332,0.0392,0.0153,0.0037,0.0319,0.0503,0.0747,0.1059,0.1261,0.1361,0.1277,0.1412,0.1412,0.1227,0.1446,0.1783,0.2204,0.2389,0.258,0.2877,0.2914,0.3037,0.3265,0.33,0.3404,0.3569,0.3533,0.3613,0.3842,0.3842,0.3842,0.3842,0.3892,0.3892,0.3842,0.3842,0.3842,0.3842,0.3842,0.3842,0.3859,0.3942,0.4098,0.4284,0.4318,0.4623,0.5042,-1.5511,-1.5172,-1.477,-1.4357,-1.4209,-1.3983,-1.3464,-1.3308,-1.3144,-1.2842,-1.2612,-1.235,-1.2087,-1.2061,-1.204,-1.1965,-1.1743,-1.1378,-1.077,-1.0771,-1.0693,-1.0462,-1.0141,-0.9926,-0.9828,-0.9481,-0.9296,-0.9285,-0.9301,-0.9146,-0.8832,-0.8627,-0.8322,-0.7906,-0.7522,-0.7234,-0.7061,-0.7388,-0.7461,-0.7399,-0.7695,-0.7757,-0.7642,-0.755,-0.7315,-0.7042,-0.7042,-0.6718,-0.6238,-0.5767,-0.5415,-0.5143,-0.5049,-0.4874,-0.472,-0.472,-0.4565,-0.435,-0.4038,-0.3802,-0.3528,-0.2942,-0.2806,-0.2493,-0.1335,-0.0923,-0.0668,-0.0353,-0.0294,-0.0294,-0.0294,-0.0404,-0.0454,-0.0265,-0.0073,0.0125,0.0339,0.0635,0.0787,0.0682,0.0909,0.1026,0.0961,0.1202,0.1513,0.1884,0.207,0.2286,0.2593,0.2675,0.282,0.3046,0.3122,0.3235,0.3406,0.3249,0.3272,0.3474,0.36,0.361,0.3527,0.3708,0.3742,0.3661,0.3661,0.3661,0.3661,0.3661,0.3672,0.3713,0.3815,0.4005,0.4227,0.4136,0.4403,0.4844,-1.5942,-1.5437,-1.4905,-1.4644,-1.4418,-1.4087,-1.3506,-1.323,-1.3008,-1.2761,-1.2302,-1.2003,-1.2003,-1.1879,-1.1735,-1.1597,-1.139,-1.1138,-1.0794,-1.0672,-1.0512,-1.0304,-0.9844,-0.9545,-0.9419,-0.9173,-0.9203,-0.9492,-0.9369,-0.9241,-0.9098,-0.906,-0.8856,-0.8475,-0.7825,-0.7426,-0.718,-0.7022,-0.6922,-0.6922,-0.7161,-0.7334,-0.7426,-0.7257,-0.7165,-0.7107,-0.7107,-0.6702,-0.6086,-0.5537,-0.5204,-0.4968,-0.4796,-0.464,-0.4501,-0.4462,-0.4328,-0.4138,-0.3882,-0.3684,-0.3429,-0.2961,-0.2826,-0.2609,-0.1905,-0.1728,-0.1551,-0.0982,-0.0844,-0.0805,-0.0786,-0.0676,-0.059,-0.0552,-0.0373,-0.0238,-0.0238,0.0073,0.0255,0.0091,0.0417,0.0682,0.0737,0.0961,0.1218,0.149,0.1728,0.2004,0.2322,0.2456,0.2596,0.2768,0.288,0.3015,0.3172,0.2915,0.2884,0.3034,0.3267,0.3309,0.3175,0.3508,0.3577,0.3448,0.3448,0.3456,0.3488,0.3488,0.3543,0.3659,0.3819,0.4046,0.4273,0.4123,0.4275,0.4574,-1.5493,-1.5415,-1.5166,-1.468,-1.4803,-1.4539,-1.3267,-1.3271,-1.3172,-1.2469,-1.214,-1.2003,-1.2003,-1.1879,-1.172,-1.1524,-1.153,-1.1188,-1.0345,-1.049,-1.0502,-1.0313,-0.986,-0.9696,-0.9903,-0.9488,-0.9199,-0.9086,-0.9223,-0.9378,-0.9525,-0.9335,-0.9146,-0.8889,-0.8108,-0.7557,-0.7203,-0.7161,-0.7061,-0.6938,-0.7311,-0.7369,-0.7238,-0.7203,-0.6988,-0.6679,-0.6679,-0.6254,-0.5676,-0.5598,-0.5307,-0.4996,-0.4976,-0.4937,-0.4879,-0.472,-0.4643,-0.4506,-0.3958,-0.3782,-0.3645,-0.3178,-0.2924,-0.2726,-0.2452,-0.2235,-0.2098,-0.1999,-0.1846,-0.167,-0.1493,-0.145,-0.1388,-0.1212,-0.0957,-0.0791,-0.0791,-0.0591,-0.0455,-0.0492,-0.0143,0.0228,0.0508,0.0873,0.1114,0.1167,0.1516,0.1831,0.2037,0.2125,0.2312,0.2626,0.27,0.2832,0.3032,0.287,0.2776,0.275,0.2851,0.2939,0.3023,0.309,0.3159,0.3244,0.3244,0.3307,0.3416,0.3416,0.3556,0.3781,0.3799,0.401,0.4302,0.433,0.4486,0.4678,-1.5541,-1.5236,-1.4893,-1.4696,-1.4537,-1.4137,-1.3243,-1.3231,-1.3077,-1.2397,-1.2231,-1.2169,-1.2169,-1.1921,-1.1652,-1.1469,-1.141,-1.1146,-1.0573,-1.0572,-1.0481,-1.0242,-0.9829,-0.9663,-0.9771,-0.9344,-0.9135,-0.9175,-0.9359,-0.9511,-0.9601,-0.962,-0.9525,-0.9292,-0.8494,-0.7983,-0.7661,-0.7103,-0.6814,-0.6733,-0.6795,-0.6853,-0.6872,-0.6872,-0.683,-0.6733,-0.6505,-0.6138,-0.5712,-0.5379,-0.5068,-0.4818,-0.4701,-0.4659,-0.4623,-0.4428,-0.4372,-0.4253,-0.3763,-0.3624,-0.3548,-0.3198,-0.3043,-0.2924,-0.2707,-0.2609,-0.2433,-0.2101,-0.1964,-0.1867,-0.1788,-0.1768,-0.1729,-0.165,-0.1441,-0.1295,-0.1295,-0.0995,-0.0684,-0.0456,-0.0279,-0.0018,0.0348,0.0542,0.073,0.0912,0.1137,0.1378,0.1641,0.1725,0.1937,0.2309,0.2383,0.2568,0.2878,0.2682,0.2682,0.2874,0.2625,0.267,0.2954,0.3061,0.3201,0.3361,0.3361,0.3401,0.3458,0.3458,0.3545,0.3696,0.3696,0.3831,0.4056,0.431,0.4387,0.4389]},{"header":{"parameterUnit":"m.s-1","parameterCategory":1,"la1":30.6,"la2":28.766,"lo1":-90.7593,"lo2":-88.6598,"dy":0.0162,"dx":0.0183,"nx":116,"ny":114,"refTime":"2024-03-11T00:00:00:Z","depth":0,"parameterNumber":3,"parameterNumberName":"V-component_of_WINDS"},"data":[0.0,0.0,0.0,0.0,0.0,0.0,0.0,0.0,0.0,0.0,0.0,0.0,0.0,0.0,0.0,0.0,0.0,0.0,0.0,0.0,0.0,0.0,0.0,0.0,0.0,0.0,0.0,0.0,0.0,0.0,0.0,0.0,0.0,0.0,0.0,0.0,0.0,0.0,0.0,0.0,0.0,0.0,0.0,0.0,0.0,0.0,0.0,0.0,0.0,0.0,0.0,0.0,0.0,0.0,0.0,0.0,0.0,0.0,0.0,0.0,0.0,0.0,0.0,0.0,0.0,0.0,0.0,0.0,0.0,0.0,0.0,0.0,0.0,0.0,0.0,0.0,0.0,0.0,0.0,0.0,0.0,0.0,0.0,0.0,0.0,0.0,0.0,0.0,0.0,0.0,0.0,0.0,0.0,0.0,0.0,0.0,0.0,0.0,0.0,0.0,0.0,0.0,0.0,0.0,0.0,0.0,0.0,0.0,0.0,0.0,0.0,0.0,0.0,0.0,0.0,0.0,0.0,0.0,0.0,0.0,0.0,0.0,0.0,0.0,0.0,0.0,0.0,0.0,0.0,0.0,0.0,0.0,0.0,0.0,0.0,0.0,0.0,0.0,0.0,0.0,0.0,0.0,0.0,0.0,0.0,0.0,0.0,0.0,0.0,0.0,0.0,0.0,0.0,0.0,0.0,0.0,0.0,0.0,0.0,0.0,0.0,0.0,0.0,0.0,0.0,0.0,0.0,0.0,0.0,0.0,0.0,0.0,0.0,0.0,0.0,0.0,0.0,0.0,0.0,0.0,0.0,0.0,0.0,0.0,0.0,0.0,0.0,0.0,0.0,0.0,0.0,0.0,0.0,0.0,0.0,0.0,0.0,0.0,0.0,0.0,0.0,0.0,0.0,0.0,0.0,0.0,0.0,0.0,0.0,0.0,0.0,0.0,0.0,0.0,0.0,0.0,0.0,0.0,0.0,0.0,0.0,0.0,0.0,0.0,0.0,0.0,0.0,0.0,0.0,0.0,0.0,0.0,0.0,0.0,0.0,0.0,0.0,0.0,0.0,0.0,0.0,0.0,0.0,0.0,0.0,0.0,0.0,0.0,0.0,0.0,0.0,0.0,0.0,0.0,0.0,0.0,0.0,0.0,0.0,0.0,0.0,0.0,0.0,0.0,0.0,0.0,0.0,0.0,0.0,0.0,0.0,0.0,0.0,0.0,0.0,0.0,0.0,0.0,0.0,0.0,0.0,0.0,0.0,0.0,0.0,0.0,0.0,0.0,0.0,0.0,0.0,0.0,0.0,0.0,0.0,0.0,0.0,0.0,0.0,0.0,0.0,0.0,0.0,0.0,0.0,0.0,0.0,0.0,0.0,0.0,0.0,0.0,0.0,0.0,0.0,0.0,0.0,0.0,0.0,0.0,0.0,0.0,0.0,0.0,0.0,0.0,0.0,0.0,0.0,0.0,0.0,0.0,0.0,0.0,0.0,0.0,0.0,0.0,0.0,0.0,0.0,0.0,0.0,0.0,0.0,0.0,0.0,0.0,0.0,0.0,0.0,0.0,0.0,0.0,0.0,0.0,0.0,0.0,0.0,0.0,0.0,0.0,0.0,0.0,0.0,0.0,0.0,0.0,0.0,0.0,0.0,0.0,0.0,0.0,0.0,0.0,0.0,0.0,0.0,0.0,0.0,0.0,0.0,0.0,0.0,0.0,0.0,0.0,0.0,0.0,0.0,0.0,0.0,0.0,0.0,0.0,0.0,0.0,0.0,0.0,0.0,0.0,0.0,0.0,0.0,0.0,0.0,0.0,0.0,0.0,0.0,0.0,0.0,0.0,0.0,0.0,0.0,0.0,0.0,0.0,0.0,0.0,0.0,0.0,0.0,0.0,0.0,0.0,0.0,0.0,0.0,0.0,0.0,0.0,0.0,0.0,0.0,0.0,0.0,0.0,0.0,0.0,0.0,0.0,0.0,0.0,0.0,0.0,0.0,0.0,0.0,0.0,0.0,0.0,0.0,0.0,0.0,0.0,0.0,0.0,0.0,0.0,0.0,0.0,0.0,0.0,0.0,0.0,0.0,0.0,0.0,0.0,0.0,0.0,0.0,0.0,0.0,0.0,0.0,0.0,0.0,0.0,0.0,0.0,0.0,0.0,0.0,0.0,0.0,0.0,0.0,0.0,0.0,0.0,0.0,0.0,0.0,0.0,0.0,0.0,0.0,0.0,0.0,0.0,0.0,0.0,0.0,0.0,0.0,0.0,0.0,0.0,0.0,0.0,0.0,0.0,0.0,0.0,0.0,0.0,0.0,0.0,0.0,0.0,0.0,0.0,0.0,0.0,0.0,0.0,0.0,0.0,0.0,0.0,0.0,0.0,0.0,0.0,0.0,0.0,0.0,0.0,0.0,0.0,0.0,0.0,0.0,0.0,0.0,0.0,0.0,0.0,0.0,0.0,0.0,0.0,0.0,0.0,0.0,0.0,0.0,0.0,0.0,0.0,0.0,0.0,0.0,0.0,0.0,0.0,0.0,0.0,0.0,0.0,0.0,0.0,0.0,0.0,0.0,0.0,0.0,0.0,0.0,0.0,0.0,0.0,0.0,0.0,0.0,0.0,0.0,0.0,0.0,0.0,0.0,0.0,0.0,0.0,0.0,0.0,0.0,0.0,0.0,0.0,0.0,0.0,0.0,0.0,0.0,0.0,0.0,0.0,0.0,0.0,0.0,0.0,0.0,0.0,0.0,0.0,0.0,0.0,0.0,0.0,0.0,0.0,0.0,0.0,0.0,0.0,0.0,0.0,0.0,0.0,0.0,0.0,0.0,0.0,0.0,0.0,0.0,0.0,0.0,0.0,0.0,0.0,0.0,0.0,0.0,0.0,0.0,0.0,0.0,0.0,0.0,0.0,0.0,0.0,0.0,0.0,0.0,0.0,0.0,0.0,0.0,0.0,0.0,0.0,0.0,0.0,0.0,0.0,0.0,0.0,0.0,0.0,0.0,0.0,0.0,0.0,0.0,0.0,0.0,0.0,0.0,0.0,0.0,0.0,0.0,0.0,0.0,0.0,0.0,0.0,0.0,0.0,0.0,0.0,0.0,0.0,0.0,0.0,0.0,0.0,0.0,0.0,0.0,0.0,0.0,0.0,0.0,0.0,0.0,0.0,0.0,0.0,0.0,0.0,0.0,0.0,0.0,0.0,0.0,0.0,0.0,0.0,0.0,0.0,0.0,0.0,0.0,0.0,0.0,0.0,0.0,0.0,0.0,0.0,0.0,0.0,0.0,0.0,0.0,0.0,0.0,0.0,0.0,0.0,0.0,0.0,0.0,0.0,0.0,0.0,0.0,0.0,0.0,0.0,0.0,0.0,0.0,0.0,0.0,0.0,0.0,0.0,0.0,0.0,0.0,0.0,0.0,0.0,0.0,0.0,0.0,0.0,0.0,0.0,0.0,0.0,0.0,0.0,0.0,0.0,0.0,0.0,0.0,0.0,0.0,0.0,0.0,0.0,0.0,0.0,0.0,0.0,0.0,0.0,0.0,0.0,0.0,0.0,0.0,0.0,0.0,0.0,0.0,0.0,0.0,0.0,0.0,0.0,0.0,0.0,0.0,0.0,0.0,0.0,0.0,0.0,0.0,0.0,0.0,0.0,0.0,0.0,0.0,0.0,0.0,0.0,0.0,0.0,0.0,0.0,0.0,0.0,0.0,0.0,0.0,0.0,0.0,0.0,0.0,0.0,0.0,0.0,0.0,0.0,0.0,0.0,0.0,0.0,0.0,0.0,0.0,0.0,0.0,0.0,0.0,0.0,0.0,0.0,0.0,0.0,0.0,0.0,0.0,0.0,0.0,0.0,0.0,0.0,0.0,0.0,0.0,0.0,0.0,0.0,0.0,0.0,0.0,0.0,0.0,0.0,0.0,0.0,0.0,0.0,0.0,0.0,0.0,0.0,0.0,0.0,0.0,0.0,0.0,0.0,0.0,0.0,0.0,0.0,0.0,0.0,0.0,0.0,0.0,0.0,0.0,0.0,0.0,0.0,0.0,0.0,0.0,0.0,0.0,0.0,0.0,0.0,0.0,0.0,0.0,0.0,0.0,0.0,0.0,0.0,0.0,0.0,0.0,0.0,0.0,0.0,0.0,0.0,0.0,0.0,0.0,0.0,0.0,0.0,0.0,0.0,0.0,0.0,0.0,0.0,0.0,0.0,0.0,0.0,0.0,0.0,0.0,0.0,0.0,0.0,0.0,0.0,0.0,0.0,0.0,0.0,0.0,0.0,0.0,0.0,0.0,0.0,0.0,0.0,0.0,0.0,0.0,0.0,0.0,0.0,0.0,0.0,0.0,0.0,0.0,0.0,0.0,0.0,0.0,0.0,0.0,0.0,0.0,0.0,0.0,0.0,0.0,0.0,0.0,0.0,0.0,0.0,0.0,0.0,0.0,0.0,0.0,0.0,0.0,0.0,0.0,0.0,0.0,0.0,0.0,0.0,0.0,0.0,0.0,0.0,0.0,0.0,0.0,0.0,0.0,0.0,0.0,0.0,0.0,0.0,0.0,0.0,0.0,0.0,0.0,0.0,0.0,0.0,0.0,0.0,0.0,0.0,0.0,0.0,0.0,0.0,0.0,0.0,0.0,0.0,0.0,0.0,0.0,0.0,0.0,0.0,0.0,0.0,0.0,0.0,0.0,0.0,0.0,0.0,0.0,0.0,0.0,0.0,0.0,0.0,0.0,0.0,0.0,0.0,0.0,0.0,0.0,0.0,0.0,0.0,0.0,0.0,0.0,0.0,0.0,0.0,0.0,0.0,0.0,0.0,0.0,0.0,0.0,0.0,0.0,0.0,0.0,0.0,0.0,0.0,0.0,0.0,0.0,0.0,0.0,0.0,0.0,0.0,0.0,0.0,0.0,0.0,0.0,0.0,0.0,0.0,0.0,0.0,0.0,0.0,0.0,0.0,0.0,0.0,0.0,0.0,0.0,0.0,0.0,0.0,0.0,0.0,0.0,0.0,0.0,0.0,0.0,0.0,0.0,0.0,0.0,0.0,0.0,0.0,0.0,0.0,0.0,0.0,0.0,0.0,0.0,0.0,0.0,0.0,0.0,0.0,0.0,0.0,0.0,0.0,0.0,0.0,0.0,0.0,0.0,0.0,0.0,0.0,0.0,0.0,0.0,0.0,0.0,0.0,0.0,0.0,0.0,0.0,0.0,0.0,0.0,0.0,0.0,0.0,0.0,0.0,0.0,0.0,0.0,0.0,0.0,0.0,0.0,0.0,0.0,0.0,0.0,0.0,0.0,0.0,0.0,0.0,0.0,0.0,0.0,0.0,0.0,0.0,0.0,0.0,0.0,0.0,0.0,0.0,0.0,0.0,0.0,0.0,0.0,0.0,0.0,0.0,0.0,0.0,0.0,0.0,0.0,0.0,0.0,0.0,0.0,0.0,0.0,0.0,0.0,0.0,0.0,0.0,0.0,0.0,0.0,0.0,0.0,0.0,0.0,0.0,0.0,0.0,0.0,0.0,0.0,0.0,0.0,0.0,0.0,0.0,0.0,0.0,0.0,0.0,0.0,0.0,0.0,0.0,0.0,0.0,0.0,0.0,0.0,0.0,0.0,0.0,0.0,0.0,0.0,0.0,0.0,0.0,0.0,0.0,0.0,0.0,0.0,0.0,0.0,0.0,0.0,0.0,0.0,0.0,0.0,0.0,0.0,0.0,0.0,0.0,0.0,0.0,0.0,0.0,0.0,0.0,0.0,0.0,0.0,0.0,0.0,0.0,0.0,0.0,0.0,0.0,0.0,0.0,0.0,0.0,0.0,0.0,0.0,0.0,0.0,0.0,0.0,0.0,0.0,0.0,0.0,0.0,0.0,0.0,0.0,0.0,0.0,0.0,0.0,0.0,0.0,0.0,0.0,0.0,0.0,0.0,0.0,0.0,0.0,0.0,0.0,0.0,0.0,0.0,0.0,0.0,0.0,0.0,0.0,0.0,0.0,0.0,0.0,0.0,0.0,0.0,0.0,0.0,0.0,0.0,0.0,0.0,0.0,0.0,0.0,0.0,0.0,0.0,0.0,0.0,0.0,0.0,0.0,0.0,0.0,0.0,1.3476,0.0,0.0,0.0,0.0,0.0,0.0,0.0,0.0,0.0,0.0,0.0,0.0,0.0,0.0,0.0,0.0,0.0,0.0,0.0,0.0,0.0,0.0,0.0,0.0,0.0,0.0,0.0,1.1439,1.1263,1.2063,1.2122,1.2119,1.2111,1.2563,1.3203,1.4085,1.325,1.3839,1.5921,1.501,1.5116,1.6143,0.0,0.0,0.0,0.0,0.0,0.0,0.0,0.0,0.0,0.0,0.0,0.0,0.0,0.0,0.0,0.0,0.0,0.0,0.0,0.0,0.0,0.0,0.0,0.0,0.0,0.0,0.0,0.0,0.0,0.0,0.0,0.0,0.0,0.0,0.0,0.0,0.0,0.0,0.0,0.0,0.0,0.0,0.0,0.0,0.0,0.0,0.0,0.0,0.0,0.0,0.0,0.0,0.0,0.0,0.0,0.0,0.0,0.0,0.0,0.0,0.0,0.0,0.0,0.0,0.0,0.0,0.0,0.0,0.0,0.0,0.0,0.0,0.0,0.0,1.4035,0.0,0.0,0.0,0.0,0.0,0.0,0.0,0.0,0.0,0.0,0.0,0.0,0.0,0.0,0.0,0.0,0.0,0.0,0.0,0.0,0.0,0.0,0.0,1.2122,1.2102,1.2249,1.1996,1.2172,1.297,1.303,1.3029,1.3025,1.3165,1.3592,1.4305,1.3623,1.435,1.6597,1.5943,1.6228,1.7365,0.0,0.0,0.0,0.0,0.0,0.0,0.0,0.0,0.0,0.0,0.0,0.0,0.0,0.0,0.0,0.0,0.0,0.0,0.0,0.0,0.0,0.0,0.0,0.0,0.0,0.0,0.0,0.0,0.0,0.0,0.0,0.0,0.0,0.0,0.0,0.0,0.0,0.0,0.0,0.0,0.0,0.0,0.0,0.0,0.0,0.0,0.0,0.0,0.0,0.0,0.0,0.0,0.0,0.0,0.0,0.0,0.0,0.0,0.0,0.0,0.0,0.0,0.0,0.0,0.0,0.0,0.0,1.7185,1.7491,1.7501,1.8006,1.8311,1.8343,1.598,1.4888,1.4781,0.0,0.0,0.0,0.0,0.0,0.0,0.0,0.0,0.0,0.0,0.0,0.0,0.0,0.0,0.0,0.0,0.0,0.0,0.0,0.0,0.0,0.0,1.4219,1.4081,1.4838,1.3571,1.3063,1.3874,1.3936,1.3937,1.3931,1.4657,1.5105,1.5236,1.5119,1.5555,1.661,1.7126,1.7448,1.7575,1.8225,1.8306,1.7885,0.0,0.0,0.0,0.0,0.0,0.0,0.0,0.0,0.0,0.0,0.0,0.0,0.0,0.0,0.0,0.0,0.0,0.0,0.0,0.0,0.0,0.0,0.0,0.0,0.0,0.0,0.0,0.0,0.0,0.0,0.0,0.0,0.0,0.0,0.0,0.0,0.0,0.0,0.0,0.0,0.0,0.0,0.0,0.0,1.463,1.4986,0.0,0.0,0.0,0.0,0.0,0.0,0.0,0.0,0.0,0.0,0.0,0.0,0.0,1.5962,1.6497,1.7042,1.7365,1.7445,1.7994,1.8517,1.9008,1.9086,1.9416,1.988,1.9114,0.0,1.7835,1.7983,0.0,0.0,0.0,0.0,0.0,0.0,0.0,0.0,0.0,0.0,0.0,0.0,0.0,0.0,0.0,0.0,0.0,0.0,0.0,0.0,0.0,1.4765,1.498,1.537,1.5171,1.519,1.5546,1.5562,1.5347,1.4844,1.5195,1.541,1.5391,1.5839,1.6717,1.8013,1.882,1.9432,1.9865,2.0178,2.0537,2.0885,2.0541,1.9513,1.8003,1.7616,0.0,0.0,0.0,0.0,0.0,0.0,0.0,0.0,0.0,0.0,0.0,0.0,0.0,0.0,0.0,0.0,0.0,0.0,0.0,0.0,0.0,0.0,0.0,0.0,0.0,0.0,0.0,0.0,0.0,0.0,0.0,0.0,0.0,0.0,0.0,0.0,0.0,0.0,0.0,1.4397,1.4745,1.5337,1.5434,1.5312,0.0,0.0,0.0,0.0,0.0,0.0,0.0,0.0,0.0,1.7308,1.7642,1.8116,1.8732,1.929,1.9734,2.0083,2.0723,2.1145,2.1318,2.1319,2.1475,2.1706,2.158,2.1339,2.0918,1.9311,1.8462,1.8158,0.0,0.0,0.0,0.0,1.6255,1.5787,0.0,0.0,0.0,0.0,0.0,0.0,0.0,0.0,0.0,0.0,0.0,0.0,1.4811,1.5347,1.582,1.6055,1.6656,1.7029,1.7008,1.7012,1.6698,1.6028,1.5997,1.5997,1.5984,1.7025,1.8199,1.946,2.0538,2.136,2.1968,2.2167,2.2556,2.3077,2.3331,2.1883,1.9284,1.9058,1.8084,0.0,0.0,0.0,0.0,0.0,0.0,0.0,0.0,0.0,0.0,0.0,0.0,0.0,0.0,0.0,0.0,0.0,0.0,0.0,0.0,0.0,0.0,0.0,0.0,0.0,0.0,0.0,0.0,0.0,0.0,0.0,0.0,0.0,0.0,0.0,0.0,0.0,0.0,1.4836,1.511,1.6002,1.6043,1.6018,0.0,0.0,0.0,0.0,0.0,0.0,1.6992,1.8226,1.9043,1.9263,1.9677,2.0303,2.1172,2.1504,2.1912,2.239,2.2953,2.3263,2.331,2.3364,2.3469,2.3601,2.3556,2.3526,2.3321,2.083,1.9665,1.9476,1.9437,1.9163,1.8778,1.8608,1.8144,1.7723,0.0,0.0,0.0,0.0,0.0,0.0,0.0,0.0,0.0,0.0,0.0,1.5558,1.6466,1.6606,1.6968,1.7792,1.791,1.7908,1.7832,1.7842,1.7754,1.758,1.7578,1.7571,1.7572,1.9304,2.0288,2.0425,2.2074,2.2887,2.2955,2.3708,2.4064,2.4055,2.4836,2.3671,2.1113,2.0275,1.9408,1.8488,0.0,0.0,0.0,0.0,0.0,0.0,0.0,0.0,0.0,0.0,0.0,0.0,0.0,0.0,0.0,0.0,0.0,0.0,0.0,0.0,0.0,0.0,0.0,0.0,0.0,0.0,0.0,0.0,0.0,0.0,0.0,0.0,0.0,0.0,0.0,0.0,0.0,0.0,0.0,1.7628,1.7664,0.0,0.0,0.0,0.0,1.846,1.8609,1.8893,1.9409,1.9693,2.0296,2.1309,2.1266,2.19,2.332,2.3232,2.3271,2.3433,2.3526,2.3874,2.4425,2.4622,2.5025,2.5536,2.4952,2.469,2.4525,2.3296,2.2411,2.1822,2.1688,2.1124,2.0351,2.0095,2.0239,2.0563,0.0,0.0,0.0,0.0,0.0,0.0,0.0,0.0,1.5061,1.5041,1.5598,1.6316,1.7245,1.8422,1.9266,1.9583,2.0115,1.9955,1.8811,1.8652,1.8333,1.7731,1.7628,1.8146,1.9346,2.009,2.1,2.2103,2.2749,2.332,2.3844,2.4127,2.4526,2.5012,2.5308,2.4556,2.3071,2.2626,2.1282,1.9436,1.9052,1.8138,0.0,0.0,0.0,0.0,0.0,0.0,0.0,0.0,0.0,0.0,0.0,0.0,0.0,0.0,0.0,0.0,0.0,0.0,0.0,0.0,0.0,0.0,0.0,0.0,0.0,0.0,0.0,0.0,0.0,0.0,0.0,0.0,0.0,0.0,0.0,0.0,0.0,1.8455,1.9051,0.0,1.9344,1.9278,1.9304,1.9462,1.9846,2.0407,2.1107,2.1623,2.2347,2.3335,2.3283,2.3476,2.4016,2.4448,2.4679,2.473,2.5186,2.5517,2.5722,2.5801,2.595,2.6147,2.5926,2.5791,2.5678,2.5196,2.4131,2.2817,2.2692,2.2365,2.1949,2.1733,2.1614,2.1602,0.0,0.0,0.0,0.0,0.0,0.0,0.0,0.0,1.5044,1.5322,1.5924,1.6903,1.8445,1.9749,2.0739,2.1283,2.1628,2.1287,2.0059,1.9608,1.908,1.8433,1.8633,1.9354,2.0677,2.1391,2.2282,2.3399,2.3761,2.4215,2.4734,2.4763,2.5038,2.5524,2.5526,2.5186,2.4567,2.4414,2.2969,2.0774,2.0417,1.9452,1.8117,0.0,0.0,0.0,0.0,0.0,0.0,0.0,0.0,0.0,0.0,0.0,0.0,0.0,0.0,0.0,0.0,0.0,0.0,0.0,0.0,0.0,0.0,0.0,0.0,0.0,0.0,0.0,0.0,0.0,0.0,0.0,0.0,0.0,0.0,0.0,1.8053,1.9441,2.0089,2.0581,2.1065,2.1022,2.111,2.1454,2.1845,2.23,2.2877,2.3356,2.4016,2.4868,2.4815,2.491,2.5212,2.5646,2.5907,2.5948,2.6421,2.6641,2.6641,2.6666,2.6674,2.6674,2.6649,2.6573,2.6461,2.6314,2.5636,2.4626,2.4137,2.3783,2.3522,2.3336,2.3239,2.3238,0.0,0.0,0.0,0.0,0.0,0.0,0.0,1.49,1.5185,1.616,1.6303,1.7353,2.0121,2.0548,2.1264,2.2906,2.2297,2.1737,2.1517,2.0606,2.0014,1.9849,2.0711,2.132,2.1577,2.3298,2.4219,2.4232,2.5174,2.5639,2.5648,2.5739,2.5734,2.5684,2.5673,2.563,2.5541,2.5469,2.4387,2.2601,2.1658,2.0765,1.9796,0.0,0.0,0.0,0.0,0.0,0.0,0.0,0.0,0.0,0.0,0.0,0.0,0.0,0.0,0.0,0.0,0.0,0.0,0.0,0.0,0.0,0.0,0.0,0.0,0.0,0.0,0.0,0.0,0.0,0.0,0.0,0.0,0.0,1.7648,1.806,1.893,2.0658,2.079,2.1258,2.2649,2.2654,2.3143,2.4475,2.4556,2.4588,2.4705,2.4805,2.5194,2.5908,2.5814,2.6156,2.6979,2.6882,2.6891,2.703,2.7094,2.7109,2.7109,2.7181,2.7205,2.7205,2.7133,2.7014,2.6842,2.67,2.6972,2.7324,2.6094,2.54,2.5078,2.4912,2.5154,2.5521,0.0,0.0,0.0,0.0,0.0,0.0,0.0,1.5207,1.5616,1.5842,1.7589,1.9369,2.0826,2.2335,2.3423,2.3836,2.3008,2.2156,2.1473,2.0417,2.0075,2.0634,2.1009,2.1858,2.3282,2.3893,2.4497,2.5074,2.6019,2.6468,2.648,2.7134,2.7479,2.7569,2.7519,2.7116,2.6515,2.6432,2.5714,2.4532,2.3552,2.2603,2.1658,0.0,0.0,0.0,0.0,0.0,0.0,0.0,0.0,0.0,0.0,0.0,0.0,0.0,0.0,0.0,0.0,0.0,0.0,0.0,0.0,0.0,0.0,0.0,0.0,0.0,0.0,0.0,0.0,0.0,0.0,0.0,0.0,1.8802,1.8976,1.9668,2.071,2.2223,2.2886,2.3558,2.4495,2.45,2.4368,2.4185,2.4726,2.5126,2.5195,2.5869,2.6342,2.655,2.7037,2.7131,2.6794,2.7225,2.7466,2.7514,2.7529,2.7544,2.7519,2.7509,2.7486,2.7496,2.7417,2.7613,2.7968,2.791,2.8151,2.8384,2.6596,2.6447,2.7146,2.6332,2.6295,2.6555,0.0,0.0,0.0,0.0,0.0,0.0,0.0,1.5072,1.5584,1.6247,1.7772,1.9563,2.1562,2.2615,2.342,2.4069,2.325,2.2282,2.1302,2.0556,2.0593,0.0,0.0,2.2813,2.3926,2.4443,2.4895,2.5327,2.6281,2.6761,2.6772,2.7688,2.8167,2.8262,2.8227,2.7929,2.7444,2.7392,2.708,2.6523,2.591,2.4627,2.2953,2.1708,2.0822,2.0158,1.9216,1.8296,1.7546,1.7507,0.0,0.0,0.0,0.0,0.0,0.0,0.0,0.0,0.0,0.0,0.0,0.0,0.0,0.0,0.0,0.0,0.0,0.0,0.0,0.0,0.0,0.0,0.0,0.0,1.9302,2.0581,2.1508,2.1501,2.1953,2.3451,2.4087,2.4812,2.5865,2.5937,2.5826,2.5651,2.6148,2.6495,2.657,2.7114,2.7444,2.748,2.7865,2.7835,2.737,2.7724,2.7904,2.7904,2.7886,2.7864,2.7864,2.7802,2.7773,0.0,2.7979,2.8275,2.8591,2.8847,2.9205,0.0,0.0,0.0,0.0,0.0,2.7689,2.7827,0.0,0.0,0.0,0.0,0.0,0.0,0.0,1.4825,1.5396,1.6988,1.7471,1.8888,2.2088,2.2002,2.2298,2.3718,2.3018,2.2069,2.1034,2.0856,0.0,2.2587,2.3365,2.3852,2.4039,2.5014,2.5452,2.5335,2.6432,2.697,2.7008,2.7947,2.8419,2.8488,2.8499,2.8441,2.8359,2.8353,2.8288,2.8192,2.8142,2.6538,2.4046,2.2547,2.1746,2.1299,2.0492,1.9585,1.8722,1.8645,0.0,0.0,0.0,0.0,0.0,0.0,0.0,0.0,0.0,0.0,0.0,0.0,0.0,0.0,0.0,0.0,0.0,0.0,0.0,0.0,0.0,0.0,0.0,0.0,2.0916,2.2323,2.4385,2.3471,2.3164,2.4639,2.4926,2.554,2.6945,2.7088,2.7286,2.7804,2.8044,2.8156,2.813,0.0,0.0,0.0,0.0,2.8306,2.8216,2.8239,2.8235,2.8228,2.8164,2.8133,2.8126,2.8049,2.8057,2.8174,2.8695,2.8985,2.9109,2.967,3.0205,3.0571,2.9403,2.8809,2.86,2.8861,2.9066,2.915,0.0,0.0,0.0,0.0,0.0,0.0,0.0,1.5284,1.6021,1.6983,1.8403,1.9853,2.1238,2.1997,2.2538,2.2844,2.1933,2.1186,2.0856,0.0,2.1531,2.3389,2.3572,2.4027,2.4855,2.5743,2.6181,2.6175,2.7832,2.869,2.8823,2.9705,3.0148,3.0222,3.0275,2.9912,2.9258,2.9258,2.8839,2.8206,2.8199,2.7336,2.6034,2.5664,2.4574,2.3226,2.2902,2.2173,2.1353,2.1283,2.0176,1.8936,1.9599,0.0,0.0,0.0,0.0,0.0,0.0,0.0,0.0,0.0,0.0,0.0,0.0,0.0,0.0,0.0,0.0,0.0,0.0,0.0,0.0,2.1257,2.2944,2.4404,2.5007,2.546,2.5993,2.6688,2.679,2.7155,2.8097,2.8187,2.8002,2.7523,2.8176,2.8335,2.7749,2.8391,0.0,2.7856,2.8391,2.8397,2.7749,2.8261,2.8504,2.8434,0.0,0.0,2.8253,2.8147,2.8422,2.9051,2.9066,2.9706,3.0747,3.0929,3.1304,3.167,3.0424,2.9809,2.9532,2.8901,2.9393,3.0259,0.0,0.0,0.0,0.0,0.0,0.0,0.0,1.5167,1.5652,1.6402,1.7695,1.9012,2.0217,2.0852,2.1364,2.1813,2.12,2.1317,0.0,2.2228,2.2664,2.4173,2.4258,2.469,2.563,2.6088,2.6517,2.6956,2.8354,2.9127,2.9274,3.0133,3.0601,3.0694,3.0767,3.0562,3.0149,3.0193,2.9939,2.9506,2.9492,2.8918,2.7985,2.7451,2.64,2.5179,2.5047,2.4097,2.2884,2.2775,2.185,2.0693,2.0612,1.9694,1.8423,0.0,0.0,0.0,0.0,0.0,0.0,0.0,0.0,0.0,0.0,0.0,0.0,0.0,0.0,1.969,1.9652,0.0,2.2803,2.2923,2.4584,2.604,2.6628,2.7125,2.7489,2.7544,2.7617,2.795,2.8736,2.8809,2.8644,2.8273,2.865,2.874,2.8366,2.8767,2.8832,2.8456,2.8779,2.8763,2.8353,2.8621,2.8725,2.8694,2.8606,2.8524,2.8492,2.8327,2.8471,2.8876,2.9485,3.0145,3.0845,3.1557,3.2011,3.2144,3.0992,3.0634,3.0691,3.0215,3.0449,3.0938,0.0,0.0,0.0,0.0,0.0,0.0,0.0,1.4896,1.5137,1.5833,1.657,1.7557,1.8964,1.9363,1.9851,2.0692,2.0529,0.0,0.0,2.3381,2.3596,2.4752,2.501,2.5443,2.6129,2.6479,2.6996,2.7704,2.873,2.9279,2.9432,3.0153,3.057,3.0671,3.0755,3.0802,3.0794,3.0852,3.0859,3.0813,3.0805,3.037,2.9656,2.8837,2.7835,2.6855,2.661,2.5538,2.419,2.3906,2.3076,2.1992,2.1239,2.0689,1.994,1.7945,1.7722,0.0,0.0,0.0,0.0,0.0,0.0,0.0,0.0,0.0,2.0093,2.0338,2.1096,2.1756,2.183,2.3275,2.4515,2.4714,2.608,2.7363,2.8129,2.8418,2.8474,2.821,2.8223,2.8492,2.9074,2.9142,2.9144,2.9151,2.9145,2.9145,2.9145,2.9145,2.9167,2.9227,2.9162,2.9147,2.9147,2.9015,2.8958,2.894,2.8797,2.8725,2.8706,2.8523,2.8606,2.8963,3.0322,3.0902,3.0993,3.2037,3.2491,3.2386,3.1549,3.1428,3.172,3.1462,3.1393,3.1401,0.0,0.0,0.0,0.0,0.0,0.0,0.0,0.0,1.5084,1.5887,1.6025,1.6382,1.7287,1.8075,1.8835,1.9538,1.9604,0.0,2.2158,2.2245,2.3004,2.4715,2.5487,2.5885,2.594,2.7441,2.8322,2.8478,2.9475,3.0047,3.0188,3.0404,3.0539,3.0628,3.074,3.0796,3.0794,3.0807,3.0837,3.0878,3.0829,3.0747,3.0637,3.0457,2.9368,2.7801,2.6908,2.6424,2.6069,2.5202,2.3746,2.2252,2.207,2.0966,1.9526,1.8615,0.0,1.8263,1.7439,1.7184,1.7308,1.7886,1.8042,1.8414,0.0,0.0,2.0395,2.117,2.2,2.2824,2.3636,2.4647,2.5643,2.654,2.7545,2.8254,2.8351,2.9057,2.9526,2.9494,2.9348,2.925,2.9283,2.9283,2.9278,2.9272,2.9272,2.9272,2.9272,2.9272,2.9272,2.9283,2.9281,2.9286,2.9286,2.9189,2.9134,2.9091,2.8946,2.8852,2.8779,2.8637,2.9319,3.0709,3.2092,3.2713,3.2705,3.2742,3.2766,3.2724,3.2435,3.2326,3.2197,3.1228,3.1278,3.1803,0.0,0.0,0.0,0.0,0.0,0.0,0.0,0.0,0.0,1.5191,1.562,1.6012,1.6311,1.7503,1.873,1.9835,0.0,0.0,2.2318,2.2623,2.3297,2.4503,2.4996,2.567,2.658,2.7393,2.8313,2.9361,2.9867,3.0164,3.0291,3.0447,3.0537,3.0591,3.0699,3.0759,3.0798,3.0798,3.0834,3.0898,3.0875,3.0823,3.0741,3.0215,2.9552,2.8792,2.7826,2.6802,0.0,0.0,2.4676,2.38,2.2669,2.184,2.0936,1.9135,1.8954,0.0,1.8844,1.9042,1.9405,0.0,2.0015,2.0462,2.108,2.1553,2.1998,2.2354,2.3511,2.4584,2.5018,2.6241,2.7353,0.0,2.8687,2.9262,2.9278,2.9626,2.9866,2.9815,2.9811,2.9771,2.9668,2.9608,2.9589,2.9589,2.9547,2.9537,2.9526,2.9506,2.9468,2.9468,2.9441,2.9395,2.9359,2.9294,2.9241,2.9213,2.9557,2.9702,2.9672,2.9496,2.9955,3.0928,3.1517,3.2267,3.3003,3.2439,3.2489,3.2902,3.274,3.2649,3.2547,3.1873,3.1785,3.1993,0.0,0.0,0.0,0.0,0.0,0.0,0.0,0.0,0.0,0.0,1.5213,1.5635,1.5779,1.7042,1.8346,0.0,0.0,0.0,0.0,2.2704,2.3344,2.4374,2.48,2.5552,2.6712,2.7313,2.8228,2.9502,2.9878,3.0118,3.0289,3.0403,3.052,3.0604,3.0665,3.0746,3.0803,3.0792,3.0832,3.0879,3.0644,3.0499,3.0359,2.9474,2.8997,2.8698,2.8004,2.6788,0.0,0.0,2.4659,2.3976,2.2605,2.2034,2.151,1.9664,1.9664,2.0267,2.0154,2.0693,0.0,2.1226,2.16,2.2013,2.2208,2.2714,2.3237,2.3485,2.4542,2.5597,2.6135,2.7088,2.8052,2.8882,2.9362,2.9618,2.9622,2.9676,2.9581,2.931,2.9346,2.9376,2.9304,2.9626,2.9855,2.9823,2.9779,2.9763,2.9751,2.971,2.9678,2.9664,2.9589,2.9535,2.9472,2.9394,2.9351,2.9326,2.9808,3.0029,3.0025,3.0051,3.0285,3.0695,3.0898,3.1584,3.2526,3.2099,3.2267,3.2793,3.286,3.2886,3.2818,3.2259,3.2126,3.2205,0.0,0.0,0.0,0.0,0.0,0.0,0.0,0.0,0.0,0.0,0.0,0.0,0.0,1.6537,1.7313,0.0,0.0,0.0,0.0,2.1957,2.2765,2.4421,2.5306,2.5793,2.5831,2.7493,2.8426,2.8541,2.946,3.0011,3.0218,3.0348,3.0478,3.0604,3.0665,3.0746,3.0803,3.0792,3.0849,3.0839,2.998,2.96,2.9434,2.8566,2.7708,2.698,2.6946,0.0,0.0,0.0,2.316,2.169,2.1638,2.1008,0.0,2.0188,2.068,2.1232,2.117,0.0,2.2341,2.227,2.2168,2.2309,2.3168,2.331,2.3554,2.4451,2.4685,2.5265,2.7032,2.6764,2.7091,2.9642,2.9413,2.8923,2.8923,2.8923,2.8614,2.7778,2.7667,2.7697,0.0,2.9112,2.9964,2.9893,2.9907,2.9895,2.9899,2.9895,2.9851,2.9799,2.9729,2.9683,2.9697,2.9564,2.9463,2.9397,2.9351,2.9336,2.9346,2.9937,3.0174,3.0155,3.0877,3.1176,3.1229,3.1967,3.2258,3.2285,3.2867,3.3093,3.2973,3.2069,3.2043,3.2482,0.0,0.0,0.0,0.0,0.0,0.0,0.0,0.0,0.0,0.0,0.0,0.0,0.0,0.0,0.0,0.0,0.0,0.0,0.0,2.1516,2.2368,2.3452,2.4428,2.5191,2.5726,2.644,2.7389,2.8569,2.8384,2.868,2.9404,2.9492,2.9583,2.9708,3.0384,3.0719,3.0746,3.0783,3.0504,3.0016,2.9726,2.9235,2.8615,2.7744,2.6854,2.6025,0.0,0.0,0.0,0.0,2.3036,2.2422,2.1802,2.1404,2.1082,2.0509,2.0827,2.1364,2.1345,0.0,2.34,2.3898,2.3962,2.4103,2.4948,2.4719,2.4468,2.4816,2.5399,2.6024,2.6686,2.7014,2.7666,2.9123,2.8661,2.8285,2.8826,2.8469,2.8026,2.765,2.7685,0.0,0.0,0.0,0.0,2.9238,2.973,3.0026,3.0037,2.9983,2.9943,2.9874,2.9842,2.9787,2.9706,2.9655,2.9574,2.9463,2.9943,3.0147,3.0111,3.0804,3.0808,3.024,3.0509,3.0876,3.1282,3.1026,3.1189,3.1676,3.238,3.2618,3.2524,3.2159,3.2057,3.2002,0.0,0.0,0.0,0.0,0.0,0.0,0.0,0.0,0.0,0.0,0.0,0.0,0.0,0.0,0.0,0.0,0.0,0.0,0.0,0.0,2.1426,2.2522,2.3219,2.3815,2.4365,2.4833,2.5775,2.7218,2.7085,2.754,2.851,2.8582,2.8665,2.876,2.9458,2.9781,2.9812,2.9852,2.9599,2.9078,2.8456,2.787,2.7235,2.6055,2.5264,0.0,0.0,0.0,0.0,2.2777,2.2367,2.2,2.1393,2.145,2.1615,2.1017,2.1548,2.2323,2.229,2.3418,2.4718,2.5279,2.5335,2.5415,2.597,2.5522,2.4997,2.5091,2.5582,2.6129,2.6474,2.6712,2.7275,2.8453,2.7907,2.7616,2.8433,2.8129,2.7802,2.7729,2.7783,2.783,0.0,0.0,0.0,2.853,2.9557,3.0062,2.9712,2.9938,3.0046,2.9968,2.9951,2.9876,2.9768,2.9751,2.9678,2.954,2.9982,3.0169,3.0115,3.0596,3.0515,2.997,2.9946,3.0219,3.0664,3.0414,3.0588,3.1103,3.2114,3.2291,3.1974,3.1901,3.1599,3.1156,0.0,0.0,0.0,0.0,0.0,0.0,0.0,0.0,0.0,0.0,0.0,0.0,0.0,0.0,0.0,0.0,0.0,0.0,0.0,0.0,0.0,2.1545,2.1758,2.1862,2.1927,2.285,2.3761,2.4636,2.5566,2.6496,2.7406,2.7536,2.7631,2.7709,2.7881,2.7995,2.8063,2.8061,2.8079,2.7966,2.6306,2.5605,2.5395,2.3734,0.0,0.0,0.0,0.0,0.0,0.0,2.1212,2.0575,2.0619,2.1182,2.183,2.1706,2.2765,2.3983,2.3985,2.5024,2.6189,2.6376,2.6242,2.6111,2.6319,2.5726,2.5146,2.5227,2.5252,2.5493,0.0,0.0,2.5936,2.7722,2.7286,2.7007,2.7856,2.7947,2.7911,0.0,0.0,0.0,0.0,0.0,0.0,2.7871,0.0,3.0016,2.9104,2.9777,3.0176,3.0106,3.0034,2.9964,2.992,2.9832,2.9737,2.9612,2.9531,2.9477,2.9423,2.9417,2.9417,2.9412,2.9353,2.9358,2.9477,3.0214,3.0485,3.0593,3.2115,3.2188,3.1408,3.134,3.0782,3.0115,0.0,0.0,0.0,0.0,0.0,0.0,0.0,0.0,0.0,0.0,0.0,0.0,0.0,0.0,0.0,0.0,0.0,0.0,0.0,0.0,0.0,0.0,0.0,0.0,0.0,0.0,0.0,0.0,0.0,2.386,2.478,2.4916,2.4995,2.5104,2.5835,2.6209,2.6254,2.6254,2.5923,2.5364,0.0,2.4336,2.3705,0.0,0.0,0.0,0.0,0.0,0.0,0.0,0.0,2.1505,2.2092,2.245,2.2614,2.2638,2.3244,2.407,2.4762,2.5112,2.5772,2.7676,2.675,2.5695,2.7048,2.6261,2.5098,2.4595,2.4524,2.463,0.0,0.0,0.0,2.776,2.7377,0.0,2.8807,2.8458,0.0,2.7973,0.0,2.7978,2.7995,2.8721,0.0,0.0,2.9446,3.0268,2.9972,3.0063,3.0138,3.016,3.0065,2.9984,2.9968,2.9906,2.9866,2.9827,2.969,2.9645,2.9626,2.9626,2.9626,2.9626,2.9617,2.9574,2.9615,3.0399,3.03,2.9901,3.2128,3.2424,3.1615,3.1603,3.1354,3.0888,0.0,0.0,0.0,0.0,0.0,0.0,0.0,0.0,0.0,0.0,0.0,0.0,0.0,0.0,0.0,0.0,0.0,0.0,0.0,0.0,0.0,0.0,0.0,0.0,0.0,0.0,0.0,0.0,0.0,0.0,0.0,2.3191,2.3471,2.3554,2.4133,2.4423,2.4458,0.0,0.0,0.0,0.0,0.0,0.0,0.0,0.0,0.0,0.0,0.0,0.0,0.0,0.0,2.2348,2.2725,2.3356,2.3884,2.3497,0.0,2.5026,2.5176,2.5394,2.5926,2.7423,2.6724,2.5847,2.6502,2.5709,2.4598,2.3836,2.3695,0.0,2.4265,0.0,0.0,0.0,0.0,0.0,2.8676,2.8773,2.884,0.0,2.9179,0.0,2.9187,2.9567,2.961,0.0,2.9891,3.0203,2.9743,3.0052,3.0187,3.0113,3.0098,3.0049,2.9955,2.9979,2.9939,2.9806,2.9792,2.977,2.9735,2.9741,2.976,2.9783,0.0,2.9917,3.0227,3.0283,3.0197,3.0155,3.151,3.1711,3.1294,3.1618,3.1656,3.1402,0.0,0.0,0.0,0.0,0.0,0.0,0.0,0.0,0.0,0.0,0.0,0.0,0.0,0.0,0.0,0.0,0.0,0.0,0.0,0.0,0.0,0.0,0.0,0.0,0.0,0.0,0.0,0.0,0.0,0.0,0.0,0.0,0.0,0.0,0.0,0.0,0.0,0.0,0.0,0.0,0.0,0.0,0.0,0.0,0.0,0.0,0.0,0.0,0.0,0.0,2.384,2.3163,2.3153,2.4122,2.5127,2.4328,2.5118,2.6094,2.5466,2.5713,2.6244,2.6603,2.6479,2.6094,2.5464,2.4735,2.3956,2.3031,0.0,2.3117,2.4069,2.4227,2.4598,2.5691,0.0,2.7213,2.8089,2.8959,2.9765,3.0454,3.0635,3.0715,3.0693,3.0658,3.0614,3.0605,3.0487,3.0036,2.9235,2.9937,3.0263,3.0026,3.0122,3.0101,2.9937,3.0026,2.9965,2.9748,2.9855,2.9887,2.9834,2.9834,2.9859,2.9916,0.0,0.0,3.0963,3.0424,3.0504,3.0994,3.1164,3.1149,3.1126,3.1756,3.1942,3.1867,0.0,0.0,0.0,0.0,0.0,0.0,0.0,0.0,0.0,0.0,1.5246,1.5237,0.0,0.0,0.0,0.0,0.0,0.0,0.0,0.0,0.0,0.0,0.0,0.0,0.0,0.0,0.0,0.0,0.0,0.0,0.0,0.0,0.0,0.0,0.0,0.0,0.0,0.0,0.0,0.0,0.0,0.0,0.0,0.0,0.0,0.0,0.0,0.0,0.0,0.0,2.4747,2.4104,2.4759,2.5063,2.5205,2.5159,2.5262,2.5538,2.6173,2.5916,2.5827,2.7281,2.661,2.555,2.54,2.481,0.0,0.0,2.2005,2.2272,2.3152,2.3327,2.4085,2.64,0.0,0.0,0.0,0.0,2.955,0.0,0.0,0.0,0.0,0.0,0.0,0.0,0.0,3.0337,3.0169,3.0219,3.0197,3.0091,3.0117,3.0105,3.0064,3.0026,2.9988,2.9948,2.9964,2.9987,2.9975,2.9975,2.9979,3.0021,3.0673,0.0,3.1172,3.2355,3.249,3.2084,3.3419,3.3473,3.2852,3.2989,3.2955,3.2767,0.0,0.0,0.0,0.0,0.0,0.0,0.0,1.5314,1.5287,1.5269,1.5217,1.516,1.5051,1.5057,1.503,0.0,0.0,0.0,0.0,0.0,0.0,0.0,0.0,0.0,0.0,0.0,0.0,0.0,0.0,0.0,0.0,0.0,0.0,0.0,0.0,0.0,0.0,0.0,0.0,0.0,0.0,0.0,0.0,0.0,0.0,0.0,0.0,0.0,0.0,0.0,2.4541,2.4977,2.5302,2.5625,2.5814,2.5452,2.5591,2.5885,2.5917,2.5646,2.555,2.639,2.568,2.4663,2.4255,0.0,0.0,0.0,2.1178,2.144,2.2319,2.2827,0.0,0.0,0.0,0.0,0.0,0.0,0.0,0.0,0.0,0.0,0.0,0.0,0.0,0.0,0.0,3.0425,3.0339,3.0209,3.0172,3.0192,3.0146,3.0083,3.0046,3.0128,3.009,3.0007,3.0049,3.0015,2.9948,2.9948,3.0203,3.0647,3.1031,0.0,3.1899,3.2618,3.2685,3.2374,3.3117,3.3395,3.3395,3.3355,3.3553,3.3781,0.0,0.0,0.0,0.0,0.0,0.0,0.0,1.5368,1.5324,1.5328,1.5328,1.5281,1.5155,1.5127,1.508,0.0,0.0,0.0,0.0,0.0,0.0,0.0,0.0,0.0,0.0,0.0,0.0,0.0,0.0,0.0,0.0,0.0,0.0,0.0,0.0,0.0,0.0,0.0,0.0,0.0,0.0,0.0,0.0,0.0,0.0,0.0,0.0,0.0,0.0,0.0,2.4096,2.5085,2.5136,2.5534,2.5851,2.5238,2.5499,2.5905,2.5461,2.5389,2.5439,2.5449,2.4834,2.401,2.3199,2.2381,0.0,2.0779,2.0596,2.0875,2.1735,2.2557,2.3398,0.0,2.5701,0.0,0.0,0.0,0.0,0.0,0.0,0.0,0.0,0.0,0.0,0.0,0.0,0.0,3.0311,3.0195,3.0197,3.0305,3.018,3.0098,3.0038,3.0192,3.0185,3.0015,3.0076,3.0034,2.9937,2.9937,3.0411,3.1212,3.1215,0.0,0.0,3.2593,3.2632,3.2666,3.2765,3.3212,3.3775,3.3715,3.4068,3.4545,0.0,0.0,0.0,0.0,0.0,0.0,0.0,1.5393,1.5394,1.5391,1.5395,1.5354,1.5294,1.5237,1.5168,0.0,0.0,0.0,0.0,0.0,0.0,0.0,0.0,0.0,0.0,0.0,0.0,0.0,0.0,0.0,0.0,0.0,0.0,0.0,0.0,0.0,0.0,0.0,0.0,0.0,0.0,0.0,0.0,0.0,0.0,0.0,0.0,0.0,0.0,0.0,0.0,2.3459,2.4174,2.4358,2.4306,2.4224,0.0,0.0,2.5288,2.5529,2.5588,2.5571,2.493,2.4054,2.3202,0.0,2.1563,2.0765,2.0598,2.0876,2.1737,2.2558,2.3398,0.0,0.0,2.6111,0.0,0.0,0.0,0.0,0.0,0.0,0.0,0.0,0.0,0.0,0.0,0.0,3.031,3.0299,3.0299,3.0308,3.0224,3.0197,3.0171,3.0145,3.0109,3.0094,3.0101,3.0098,3.0087,3.0087,3.0521,3.1297,3.1287,0.0,0.0,3.3134,3.3421,3.3554,3.4211,3.4559,3.4675,3.4665,3.4722,3.4763,0.0,0.0,0.0,0.0,0.0,0.0,1.5395,1.5401,1.5402,1.5396,1.5401,1.5381,1.5363,1.5348,1.529,1.5229,0.0,0.0,0.0,0.0,0.0,0.0,0.0,0.0,0.0,0.0,0.0,0.0,0.0,0.0,0.0,0.0,0.0,0.0,0.0,0.0,0.0,0.0,0.0,0.0,0.0,0.0,0.0,0.0,0.0,0.0,0.0,0.0,0.0,0.0,0.0,0.0,2.2245,2.2333,0.0,0.0,2.3798,2.4272,2.4667,2.5181,2.5593,2.5593,2.4578,2.3486,2.3145,0.0,2.0947,2.0669,2.0597,2.0874,2.1734,2.2558,2.3398,0.0,0.0,0.0,0.0,0.0,0.0,0.0,0.0,0.0,0.0,0.0,0.0,0.0,0.0,0.0,3.0366,3.0313,3.0305,3.0305,3.0267,3.0266,3.0266,3.024,3.0194,3.0169,3.0152,3.0139,3.0095,3.0095,3.054,3.1301,3.1299,0.0,0.0,3.3117,3.3341,3.3055,3.4338,3.4804,3.4788,3.4758,3.4703,3.4676,0.0,0.0,0.0,0.0,0.0,1.5394,1.5402,1.5406,1.5407,1.5407,1.539,1.541,1.5402,1.5399,1.5388,1.5329,1.5288,0.0,0.0,0.0,0.0,0.0,0.0,0.0,0.0,0.0,0.0,0.0,0.0,0.0,0.0,0.0,0.0,0.0,0.0,0.0,0.0,0.0,0.0,0.0,0.0,0.0,0.0,0.0,0.0,0.0,0.0,0.0,0.0,0.0,0.0,0.0,0.0,0.0,0.0,0.0,2.3212,2.3906,2.4218,2.4931,2.5543,2.5272,2.4157,2.3026,0.0,0.0,2.0522,2.0592,2.0595,2.0792,2.1399,2.2186,2.3027,0.0,0.0,2.5701,2.6836,0.0,0.0,0.0,0.0,0.0,0.0,0.0,0.0,0.0,0.0,0.0,0.0,3.0366,3.0328,3.0339,3.0333,3.0337,3.0337,3.0311,3.0273,3.0225,3.0485,3.0444,3.0184,3.0673,3.1192,3.1702,0.0,0.0,0.0,3.3256,3.3381,3.3018,3.4344,3.4858,3.4814,3.4778,3.4727,3.4628,0.0,0.0,0.0,0.0,0.0,0.0,1.5404,1.5409,1.5391,1.5391,1.5409,1.5408,1.539,1.5409,1.5405,1.5407,1.5405,0.0,0.0,0.0,0.0,0.0,0.0,0.0,0.0,0.0,0.0,0.0,0.0,0.0,0.0,0.0,0.0,0.0,0.0,0.0,0.0,0.0,0.0,0.0,0.0,0.0,0.0,0.0,0.0,0.0,0.0,0.0,0.0,0.0,0.0,0.0,0.0,0.0,0.0,0.0,2.2382,2.3193,2.4063,2.4938,2.5388,2.4537,2.3696,2.2874,0.0,2.1129,2.0522,2.0592,2.0609,2.0609,2.06,2.1327,2.2187,2.2988,2.3844,0.0,0.0,0.0,0.0,0.0,0.0,0.0,0.0,0.0,0.0,0.0,0.0,0.0,0.0,3.0444,3.04,3.0404,3.0401,3.0401,3.0401,3.0339,3.0307,3.0304,3.1178,3.1139,3.0343,3.2025,3.2748,0.0,0.0,0.0,0.0,3.3717,3.3727,3.3849,3.4532,3.4848,3.4892,3.4892,3.4858,3.468,0.0,0.0,0.0,0.0,0.0,0.0,0.0,1.5409,1.5391,1.5391,1.539,1.5409,1.539,1.5391,1.5391,1.5391,1.5394,0.0,0.0,0.0,0.0,0.0,0.0,0.0,0.0,0.0,0.0,1.5372,1.5374,1.5381,0.0,0.0,0.0,0.0,0.0,0.0,0.0,0.0,0.0,0.0,0.0,0.0,0.0,0.0,0.0,0.0,0.0,0.0,0.0,0.0,0.0,0.0,0.0,0.0,0.0,1.9777,2.1041,2.2245,2.2517,2.3239,2.3827,2.3556,2.2845,2.2134,2.1864,2.1157,2.0563,2.0543,2.0565,2.0763,2.1315,2.2123,2.3006,2.3847,2.4726,0.0,0.0,0.0,0.0,0.0,0.0,0.0,0.0,0.0,0.0,0.0,0.0,0.0,0.0,3.0491,3.0449,3.04,3.0396,3.0404,3.0404,3.0376,3.0633,3.1194,3.1472,3.1456,3.1235,3.2305,0.0,0.0,0.0,0.0,0.0,3.3553,3.3785,3.3876,3.459,3.4888,3.4812,3.4187,3.4313,3.468,0.0,0.0,0.0,0.0,0.0,0.0,0.0,1.541,1.5391,1.5409,1.5409,1.5408,1.5408,1.5407,1.5406,1.5406,1.5409,0.0,0.0,0.0,0.0,0.0,0.0,0.0,0.0,1.5409,1.541,1.541,1.5722,1.5723,1.5409,1.5741,0.0,0.0,0.0,0.0,0.0,0.0,0.0,0.0,0.0,0.0,1.9185,0.0,0.0,0.0,0.0,0.0,0.0,0.0,0.0,0.0,0.0,0.0,0.0,0.0,2.0192,2.1379,2.1706,2.2423,2.2985,2.2682,2.2202,2.1702,2.1378,0.0,2.0553,2.0513,2.0535,2.0715,2.1227,2.1745,2.2396,2.3278,2.4159,0.0,0.0,0.0,0.0,0.0,0.0,0.0,0.0,0.0,0.0,0.0,0.0,0.0,0.0,3.0557,3.0653,3.0874,3.0573,3.055,3.0885,3.0885,3.1282,3.2097,3.2426,3.2414,3.2122,3.3243,0.0,0.0,0.0,0.0,0.0,3.4111,3.4325,3.4367,3.4756,3.4908,3.4841,3.4234,3.4356,3.4685,0.0,0.0,0.0,0.0,0.0,0.0,0.0,1.5391,1.5409,1.5403,1.5404,1.5404,1.5402,1.5395,1.5409,1.5409,0.0,0.0,0.0,0.0,0.0,0.0,0.0,0.0,0.0,1.5408,1.5406,1.5406,1.6206,1.6223,1.5497,1.6316,1.6253,1.5484,0.0,0.0,0.0,0.0,0.0,0.0,1.6695,1.7623,0.0,0.0,0.0,0.0,0.0,0.0,0.0,0.0,0.0,0.0,0.0,0.0,0.0,0.0,0.0,0.0,0.0,2.2243,2.2642,2.1887,2.1717,2.1508,2.0689,0.0,0.0,2.0501,2.0501,2.0503,2.0495,2.0604,2.0924,2.1687,2.2634,0.0,0.0,0.0,0.0,0.0,0.0,0.0,0.0,0.0,0.0,0.0,0.0,0.0,0.0,3.0656,3.1004,3.1684,3.0965,3.0978,3.1775,3.1795,3.216,3.291,3.3779,3.3741,3.2945,3.4562,0.0,0.0,0.0,0.0,0.0,3.5202,3.5204,3.5187,3.4997,3.4922,3.4908,3.4846,3.4816,3.4695,0.0,0.0,0.0,0.0,0.0,0.0,0.0,0.0,0.0,0.0,1.5402,1.5401,1.5397,1.5394,1.5393,0.0,0.0,0.0,0.0,0.0,0.0,0.0,0.0,0.0,0.0,1.5401,1.5396,1.5392,1.5617,1.5919,1.6318,1.6532,1.6509,1.6326,1.6368,0.0,0.0,0.0,0.0,0.0,1.7586,1.7804,0.0,0.0,0.0,0.0,1.7951,1.833,0.0,0.0,0.0,0.0,0.0,0.0,0.0,0.0,1.9356,1.9698,2.0572,0.0,2.1032,2.0847,2.0807,2.0745,0.0,0.0,0.0,0.0,0.0,2.05,2.0504,2.1584,2.2334,2.1876,2.3654,2.4925,0.0,0.0,0.0,0.0,0.0,0.0,0.0,0.0,0.0,0.0,0.0,0.0,0.0,3.1238,3.1627,3.17,3.2156,3.2463,3.2622,3.2622,3.2718,3.291,3.3779,3.3741,3.2968,3.4629,0.0,0.0,0.0,0.0,3.5205,3.5197,3.5191,3.5196,3.5147,3.507,3.4907,3.4291,3.4405,3.4756,0.0,0.0,0.0,0.0,0.0,0.0,0.0,0.0,0.0,0.0,0.0,1.5392,1.5403,1.54,0.0,0.0,0.0,0.0,0.0,0.0,0.0,0.0,0.0,0.0,1.5408,1.5398,1.539,1.5404,1.576,1.6176,1.6614,1.7004,1.6979,1.658,1.6217,0.0,0.0,0.0,0.0,0.0,1.7305,0.0,0.0,0.0,0.0,0.0,1.7285,1.7606,0.0,1.7922,1.8204,1.8522,0.0,0.0,0.0,0.0,1.9485,1.9907,2.0366,2.0508,2.0496,2.0498,2.0486,2.0452,2.0488,0.0,0.0,0.0,0.0,2.0501,2.0491,2.1276,2.1887,2.1802,2.3327,0.0,0.0,0.0,0.0,0.0,0.0,0.0,0.0,0.0,0.0,0.0,0.0,0.0,0.0,3.1004,3.1383,3.1691,3.2153,3.2755,3.349,3.351,3.351,3.351,3.4372,3.4324,3.3484,3.4765,3.5093,0.0,0.0,0.0,3.5167,3.4808,3.4872,3.521,3.5208,3.5151,3.5046,3.4571,3.4626,3.4884,0.0,0.0,0.0,0.0,0.0,0.0,0.0,0.0,0.0,0.0,0.0,0.0,0.0,0.0,0.0,0.0,0.0,0.0,0.0,0.0,0.0,0.0,0.0,1.5393,1.5404,1.5409,1.5399,1.5373,1.6196,1.665,1.6797,1.7672,1.7626,1.6756,1.5865,0.0,0.0,0.0,0.0,0.0,1.6602,0.0,0.0,0.0,0.0,0.0,0.0,0.0,0.0,1.7799,1.8162,1.8288,1.8292,0.0,0.0,0.0,0.0,0.0,2.0494,2.0495,2.0497,2.0501,2.0455,2.0409,2.0477,0.0,0.0,0.0,0.0,0.0,0.0,0.0,0.0,0.0,0.0,0.0,0.0,0.0,0.0,0.0,0.0,0.0,0.0,0.0,0.0,0.0,0.0,0.0,0.0,3.0632,3.102,3.1672,3.1826,3.2582,3.3991,3.4125,3.4125,3.4003,3.5016,3.4995,3.4138,3.4936,3.5301,3.5269,0.0,0.0,3.5148,3.4464,3.4579,3.5201,3.5206,3.5208,3.5196,3.5138,3.5075,3.5015,0.0,0.0,0.0,0.0,0.0,0.0,0.0,0.0,0.0,0.0,0.0,0.0,0.0,0.0,0.0,0.0,0.0,0.0,0.0,0.0,0.0,0.0,1.539,1.5392,1.5409,1.5407,1.5372,1.5319,1.6175,1.6951,1.7629,1.8518,1.8458,1.7585,1.67,1.5933,1.5294,0.0,0.0,1.6603,1.6603,0.0,0.0,0.0,0.0,0.0,0.0,0.0,0.0,1.8649,1.9409,2.0038,2.0078,0.0,0.0,0.0,0.0,0.0,2.049,2.0458,2.0423,2.0497,2.044,2.04,0.0,0.0,0.0,0.0,0.0,0.0,0.0,0.0,0.0,0.0,0.0,0.0,0.0,0.0,0.0,0.0,0.0,0.0,0.0,0.0,0.0,0.0,0.0,0.0,0.0,3.1205,3.1634,3.1691,3.2421,3.2908,3.3106,3.3837,3.3824,3.3118,3.4667,3.4957,3.4138,3.4937,3.5296,3.5289,0.0,3.5091,3.5186,3.5072,3.5091,3.5205,3.5197,3.5196,3.52,3.5191,3.5142,3.5084,0.0,0.0,0.0,0.0,0.0,0.0,0.0,0.0,0.0,0.0,0.0,0.0,0.0,0.0,0.0,0.0,0.0,0.0,0.0,0.0,0.0,1.6084,1.6101,1.61,1.6099,1.5615,1.5767,1.6648,1.6588,1.7206,1.8465,1.8852,1.8597,1.7763,1.6897,1.6284,1.5927,0.0,1.5808,1.6637,0.0,0.0,0.0,0.0,0.0,0.0,0.0,0.0,0.0,0.0,1.9675,2.0405,2.0443,0.0,0.0,0.0,0.0,0.0,2.0502,2.0789,2.1105,2.1144,2.0776,2.0644,0.0,0.0,0.0,0.0,0.0,0.0,0.0,0.0,0.0,0.0,0.0,0.0,0.0,0.0,0.0,0.0,0.0,0.0,0.0,0.0,0.0,0.0,0.0,0.0,0.0,0.0,3.1741,3.1755,3.2115,3.2271,3.2245,3.2619,3.2811,3.2866,3.4094,3.4476,3.4071,3.4914,3.5277,3.5215,0.0,3.4808,3.5167,3.4732,3.4808,3.5205,3.5205,3.5193,3.5196,3.5208,3.5187,3.5147,0.0,0.0,0.0,0.0,0.0,0.0,0.0,0.0,0.0,0.0,0.0,0.0,0.0,0.0,0.0,0.0,0.0,0.0,0.0,0.0,1.6005,1.6669,1.6886,1.6977,1.6977,1.6288,1.6529,1.7798,1.7333,1.7757,1.8991,1.9009,1.8443,1.7453,1.6988,1.6554,1.6177,1.5961,1.6145,1.663,0.0,0.0,0.0,0.0,0.0,0.0,0.0,0.0,0.0,0.0,0.0,0.0,0.0,0.0,0.0,2.0483,2.0503,2.0501,2.0496,2.1093,2.1714,2.1706,0.0,0.0,0.0,0.0,0.0,0.0,0.0,0.0,0.0,0.0,0.0,0.0,0.0,0.0,0.0,0.0,0.0,0.0,0.0,0.0,0.0,0.0,0.0,0.0,0.0,0.0,0.0,0.0,3.1476,3.1517,3.1463,3.1438,3.1411,3.1339,3.1821,3.282,3.3679,3.4148,3.4309,3.4967,3.5257,3.5167,3.4541,3.4636,3.5148,3.4541,3.4644,3.5222,3.5222,3.5222,3.5218,3.521,3.5198,3.5189,0.0,0.0,0.0,0.0,0.0,0.0,0.0,0.0,0.0,0.0,0.0,0.0,0.0,0.0,0.0,0.0,0.0,0.0,0.0,0.0,1.6624,1.6707,1.7428,1.7805,1.7813,1.7752,1.774,1.7807,1.8559,1.8942,1.8997,1.9005,1.8112,1.6527,1.7282,1.6742,1.5401,1.6967,1.7191,1.6512,1.6578,0.0,0.0,0.0,0.0,0.0,0.0,0.0,0.0,0.0,0.0,0.0,0.0,0.0,2.0405,2.0487,2.0497,2.0493,2.0498,2.1136,2.178,2.1723,0.0,0.0,0.0,0.0,0.0,0.0,0.0,0.0,0.0,0.0,0.0,0.0,0.0,0.0,0.0,0.0,0.0,0.0,0.0,0.0,0.0,0.0,0.0,0.0,0.0,0.0,0.0,0.0,0.0,3.0688,3.068,3.0644,3.0598,3.0524,3.1266,3.282,3.3611,3.4397,3.5114,3.5171,3.5209,3.5205,3.5148,3.5148,3.5205,3.5148,3.5172,3.5285,3.5285,3.5285,3.53,3.5218,3.5201,3.5201,0.0,0.0,0.0,0.0,0.0,0.0,0.0,0.0,0.0,0.0,0.0,0.0,0.0,0.0,0.0,0.0,0.0,0.0,0.0,0.0,1.7172,1.8215,1.8589,1.8994,1.9506,1.8444,1.8408,1.9419,1.9714,1.9295,1.8262,1.8771,1.8073,1.6425,1.6785,1.6585,1.5966,1.6128,1.6315,1.6535,1.7001,1.718,0.0,0.0,0.0,0.0,0.0,0.0,0.0,0.0,1.9066,1.9236,2.0086,2.0374,2.0413,2.0487,2.0497,2.0508,2.0499,2.1497,2.2539,2.2518,0.0,0.0,0.0,0.0,0.0,0.0,0.0,0.0,0.0,0.0,0.0,0.0,0.0,0.0,0.0,0.0,0.0,0.0,0.0,0.0,0.0,0.0,0.0,0.0,0.0,0.0,0.0,0.0,0.0,3.1413,3.1373,3.1584,3.2109,3.1021,3.1295,3.2935,3.3158,3.3677,3.4473,3.5012,3.523,3.5205,3.5234,3.5265,3.5269,3.5254,3.5274,3.5304,3.53,3.5304,3.5297,3.5211,3.5205,3.5205,0.0,0.0,0.0,0.0,0.0,0.0,0.0,0.0,0.0,0.0,0.0,0.0,0.0,0.0,0.0,0.0,0.0,0.0,0.0,1.7388,1.7716,1.9131,1.9256,1.9685,2.0476,1.9321,1.927,2.0402,2.0051,1.9179,1.7817,1.8064,1.7397,1.5991,1.6299,1.6264,1.5986,1.5966,1.6157,1.6522,1.7277,1.7564,0.0,0.0,0.0,0.0,0.0,0.0,0.0,0.0,1.9025,1.9201,2.0031,2.0353,2.0404,2.0488,2.0504,2.0558,2.0836,2.1951,2.3037,0.0,0.0,0.0,0.0,0.0,0.0,0.0,0.0,0.0,0.0,0.0,0.0,0.0,0.0,0.0,0.0,0.0,0.0,0.0,0.0,0.0,0.0,0.0,0.0,0.0,0.0,0.0,0.0,3.1224,3.1518,3.1524,3.1456,3.1712,3.2294,3.1125,3.1106,3.2243,3.2384,3.3001,3.4033,3.4381,3.4642,3.4809,3.4607,3.4657,3.4891,3.4913,3.5097,3.5361,3.5358,3.5354,3.5281,3.4967,3.484,3.479,0.0,0.0,0.0,0.0,0.0,0.0,0.0,0.0,0.0,0.0,0.0,0.0,0.0,0.0,0.0,0.0,0.0,0.0,1.7925,1.7906,1.8292,1.9159,1.9253,1.9663,2.0466,2.0494,2.0457,2.0398,1.9453,1.8579,1.7768,1.6835,1.5938,1.5132,1.5946,1.586,1.5228,1.6881,1.7139,1.6495,1.7216,1.7517,1.7523,0.0,0.0,0.0,0.0,0.0,0.0,0.0,1.9009,1.9134,2.0023,2.0347,2.0405,2.049,2.0515,2.07,2.1581,2.2443,2.3099,0.0,0.0,0.0,0.0,0.0,0.0,0.0,0.0,0.0,0.0,0.0,0.0,0.0,0.0,0.0,0.0,0.0,0.0,0.0,0.0,0.0,0.0,0.0,0.0,0.0,0.0,0.0,0.0,3.0691,3.0694,3.0694,3.063,3.0606,3.0606,3.0601,3.0598,3.0617,3.1347,3.2537,3.4054,3.3264,3.3306,3.3957,3.3168,3.3264,3.4018,3.4078,3.4653,3.55,3.55,3.5456,3.5306,3.4413,3.407,3.3907,0.0,0.0,0.0,0.0,0.0,0.0,0.0,0.0,0.0,0.0,0.0,0.0,0.0,0.0,0.0,0.0,0.0,0.0,1.9625,1.8559,1.8288,1.9159,1.8623,1.8748,1.9633,2.021,2.0181,1.9568,1.9222,1.8319,1.6886,1.6554,1.5923,1.5131,1.5943,1.6178,1.5981,1.6465,1.7223,1.8049,1.7665,1.8187,1.9195,0.0,0.0,0.0,0.0,0.0,0.0,0.0,0.0,0.0,1.9855,2.0347,2.0527,2.1159,2.1376,2.1601,2.2482,2.3346,0.0,0.0,0.0,0.0,0.0,0.0,0.0,0.0,0.0,0.0,0.0,0.0,0.0,0.0,0.0,0.0,0.0,0.0,0.0,0.0,0.0,0.0,0.0,0.0,0.0,0.0,0.0,0.0,0.0,3.0699,3.0694,3.0694,3.0681,3.0963,3.1583,3.0975,3.0955,3.1502,3.11,3.1424,3.2369,3.2772,3.3051,3.3259,3.3617,3.3916,3.4183,3.4812,3.5252,3.5497,3.5453,3.5449,3.536,3.4443,3.4085,3.3943,0.0,0.0,0.0,0.0,0.0,0.0,0.0,0.0,0.0,0.0,1.9703,1.9926,0.0,0.0,0.0,0.0,0.0,0.0,2.0378,1.8837,1.8288,1.9159,1.8376,1.8483,1.9756,2.0235,1.9869,1.8648,1.8605,1.7866,1.6492,1.6083,1.5591,1.5098,0.0,1.6284,1.6259,1.6288,1.7076,1.8222,1.766,1.802,1.895,0.0,0.0,0.0,0.0,0.0,0.0,0.0,0.0,0.0,1.9969,0.0,2.0561,2.1435,2.175,2.2074,2.3289,2.4008,0.0,0.0,0.0,0.0,0.0,0.0,0.0,0.0,0.0,0.0,0.0,0.0,0.0,0.0,0.0,0.0,0.0,0.0,0.0,0.0,0.0,0.0,0.0,0.0,0.0,0.0,0.0,0.0,0.0,3.0694,3.0694,3.0694,3.0704,3.0951,3.1472,3.0942,3.0903,3.1375,3.0847,3.0806,3.1171,3.1744,3.2161,3.2468,3.3324,3.3885,3.4273,3.5136,3.5498,3.55,3.5458,3.5448,3.5303,3.4087,3.3629,3.3503,0.0,0.0,1.9462,2.0256,0.0,0.0,0.0,0.0,0.0,0.0,1.8691,1.9189,0.0,0.0,0.0,2.0482,2.0446,2.0399,2.039,1.8895,1.8374,1.9158,1.8432,1.8752,2.0347,2.0376,1.9579,1.7904,1.7823,1.73,1.6354,1.5572,1.5137,1.5033,0.0,1.6428,1.6319,1.6364,1.6868,1.7589,1.7398,1.7334,1.7463,1.8222,0.0,0.0,0.0,0.0,0.0,0.0,0.0,0.0,2.0252,2.0353,2.0574,2.1444,2.1809,2.2284,2.3938,0.0,0.0,0.0,0.0,0.0,0.0,0.0,0.0,0.0,0.0,0.0,0.0,0.0,0.0,0.0,0.0,0.0,0.0,0.0,0.0,0.0,0.0,0.0,0.0,0.0,0.0,0.0,0.0,0.0,0.0,3.0694,3.0692,3.069,3.069,3.0698,3.0696,3.0621,3.06,3.06,3.0595,3.0566,3.0496,3.0518,3.0994,3.1867,3.2586,3.3452,3.4379,3.5178,3.5492,3.5474,3.5479,3.5449,3.5217,3.3599,3.2961,3.2775,0.0,0.0,2.0176,2.0373,0.0,0.0,0.0,0.0,0.0,0.0,0.0,0.0,0.0,0.0,0.0,2.0423,2.0409,2.0381,2.0311,1.9439,1.8986,1.9116,1.899,1.9076,1.9386,2.0014,1.9785,1.8666,1.8038,1.6904,0.0,0.0,0.0,1.5018,0.0,1.7704,1.7148,1.7155,1.7656,1.8376,1.767,1.7357,1.742,1.8327,1.8124,0.0,0.0,0.0,0.0,0.0,0.0,0.0,2.0052,2.0354,2.0562,2.1449,2.2223,2.304,2.4059,2.4868,0.0,0.0,0.0,0.0,0.0,0.0,0.0,0.0,0.0,0.0,0.0,0.0,0.0,0.0,0.0,0.0,0.0,0.0,0.0,0.0,0.0,0.0,0.0,0.0,0.0,0.0,0.0,0.0,3.0694,3.0694,3.0704,3.0707,3.0702,3.0671,3.0614,3.0604,3.0593,0.0,3.0593,3.0564,3.0496,3.0559,3.138,3.2811,3.2936,3.384,3.5231,3.5364,3.539,3.5334,3.5345,3.5375,3.5271,3.4236,3.3434,3.2782,0.0,0.0,0.0,0.0,0.0,0.0,0.0,0.0,0.0,0.0,0.0,0.0,0.0,1.987,0.0,0.0,2.0402,2.0392,2.0348,1.9595,1.9141,1.9101,1.9127,1.9334,1.9701,2.0102,1.9846,1.8909,1.8057,0.0,0.0,0.0,0.0,1.5565,0.0,1.8092,1.7357,1.7423,1.7917,1.858,1.7777,1.7633,1.7934,1.803,1.7531,0.0,0.0,0.0,0.0,0.0,0.0,0.0,0.0,0.0,2.0574,2.143,2.2064,2.2746,0.0,0.0,0.0,0.0,0.0,0.0,0.0,0.0,0.0,0.0,0.0,0.0,0.0,0.0,0.0,0.0,0.0,0.0,0.0,0.0,0.0,0.0,0.0,0.0,0.0,0.0,0.0,0.0,0.0,3.0697,3.0697,3.0697,3.0688,3.0643,3.0655,3.0645,3.0593,3.0567,3.0575,3.0599,3.0576,3.053,3.05,3.0537,3.1242,3.2425,3.2396,3.3086,3.4246,3.4225,3.4168,3.4143,3.456,3.4721,3.4625,3.3786,3.3456,3.3247,0.0,0.0,0.0,0.0,0.0,0.0,0.0,0.0,0.0,0.0,0.0,0.0,0.0,1.9643,2.0172,0.0,0.0,0.0,2.0377,1.9709,1.9316,1.9316,1.9326,1.965,2.0381,2.0334,1.9903,1.9116,0.0,0.0,0.0,0.0,0.0,1.6359,0.0,1.8298,1.7495,1.7599,1.8001,1.8528,1.7922,1.7965,1.8335,1.7807,0.0,0.0,0.0,1.6964,1.7814,1.855,0.0,0.0,0.0,0.0,2.0524,2.1266,2.1636,2.2116,0.0,0.0,2.5237,0.0,0.0,0.0,0.0,0.0,0.0,0.0,0.0,0.0,0.0,0.0,0.0,0.0,0.0,0.0,0.0,0.0,0.0,0.0,0.0,0.0,0.0,0.0,0.0,0.0,0.0,3.0671,3.0675,3.0675,3.0663,3.0602,3.0606,3.0595,3.0584,3.054,3.0525,3.0586,3.0519,3.0477,3.0477,3.0488,3.0937,3.1707,3.1856,3.2279,3.289,3.3034,3.2954,3.2839,3.3569,3.3903,3.3896,3.3226,3.3299,3.3586,0.0,0.0,0.0,0.0,0.0,0.0,0.0,0.0,0.0,0.0,1.8321,1.794,1.7899,1.871,1.9267,1.927,1.9919,2.0305,2.0308,0.0,0.0,2.0219,2.0233,2.0283,2.04,2.0329,2.0213,2.0037,0.0,0.0,0.0,0.0,0.0,1.7128,0.0,0.0,1.8252,1.8205,1.8316,1.8502,1.8402,1.8044,1.7612,0.0,0.0,0.0,0.0,0.0,0.0,1.8742,1.94,0.0,0.0,0.0,2.037,2.0593,2.1196,2.1845,0.0,0.0,2.6894,0.0,0.0,0.0,0.0,0.0,0.0,0.0,0.0,0.0,0.0,0.0,0.0,0.0,0.0,0.0,0.0,0.0,0.0,0.0,0.0,0.0,0.0,0.0,0.0,0.0,3.0608,3.0615,3.061,3.061,3.0602,3.0604,3.06,3.0577,3.0508,3.0499,3.0508,3.0514,3.0458,3.0403,3.04,3.0411,3.0876,3.1746,3.2448,3.2766,3.2879,3.3565,3.3372,3.2645,3.2747,3.327,3.3881,3.3726,3.3324,3.2829,0.0,0.0,0.0,0.0,0.0,0.0,0.0,0.0,0.0,0.0,0.0,1.8621,1.904,1.9076,1.9236,1.9738,2.0104,2.0299,2.0297,2.0304,2.0336,2.0409,2.0355,2.035,2.0333,2.0279,1.9975,0.0,0.0,0.0,0.0,1.8665,1.8362,0.0,0.0,0.0,0.0,0.0,1.8434,1.8555,1.8565,1.8641,0.0,0.0,0.0,0.0,0.0,0.0,0.0,0.0,1.9746,2.0124,2.0212,0.0,0.0,0.0,2.0743,0.0,2.2267,2.4353,2.6604,0.0,0.0,0.0,0.0,0.0,0.0,0.0,0.0,0.0,0.0,0.0,0.0,0.0,0.0,0.0,0.0,0.0,0.0,0.0,0.0,0.0,0.0,0.0,0.0,0.0,3.0593,3.0593,3.0591,3.0597,3.0577,3.0554,3.0542,3.0525,3.0498,3.046,3.0436,3.045,3.0414,3.0406,3.0405,3.0357,3.0571,3.0985,3.1355,3.1437,3.1374,3.1761,3.164,3.1249,3.1748,3.2145,3.2437,3.2412,3.2477,3.2453,0.0,0.0,0.0,0.0,0.0,0.0,0.0,0.0,0.0,0.0,0.0,1.9234,1.9829,0.0,0.0,0.0,2.0176,2.0302,2.0329,2.0306,2.0323,2.0399,2.0353,2.0313,2.0292,2.0258,0.0,0.0,0.0,0.0,1.9048,1.9787,1.9753,0.0,1.9732,0.0,0.0,0.0,0.0,0.0,0.0,0.0,0.0,0.0,0.0,0.0,0.0,0.0,0.0,0.0,0.0,0.0,0.0,0.0,0.0,0.0,0.0,0.0,0.0,0.0,0.0,0.0,0.0,0.0,0.0,0.0,0.0,0.0,0.0,0.0,0.0,0.0,0.0,0.0,0.0,0.0,0.0,0.0,0.0,0.0,0.0,0.0,0.0,0.0,0.0,0.0,3.0585,3.058,3.058,3.0578,3.0557,3.0496,3.0495,3.0499,3.0471,3.0428,3.0403,3.0396,3.0394,3.0386,3.0373,3.0326,3.0323,3.0399,3.0611,3.0503,3.0223,3.0464,3.038,3.0141,3.078,3.1123,3.1242,3.1244,3.1621,3.1973,0.0,0.0,0.0,0.0,0.0,0.0,0.0,0.0,0.0,0.0,0.0,1.9023,1.9056,1.903,1.9011,1.9069,1.9822,2.0331,2.0397,2.0331,2.0331,2.0402,2.0399,0.0,2.0307,2.0302,0.0,0.0,0.0,0.0,1.9941,2.0874,2.1154,2.0852,2.0721,2.0732,2.0807,0.0,0.0,0.0,1.9704,1.9842,0.0,0.0,0.0,0.0,0.0,0.0,0.0,0.0,0.0,0.0,0.0,0.0,0.0,0.0,0.0,0.0,0.0,0.0,0.0,0.0,0.0,0.0,0.0,0.0,0.0,0.0,0.0,0.0,0.0,0.0,0.0,0.0,0.0,0.0,0.0,0.0,0.0,0.0,0.0,0.0,0.0,0.0,0.0,0.0,3.0566,3.0569,3.0501,3.0518,3.0496,3.0496,3.0495,3.0469,3.0417,3.0398,3.0395,3.0392,3.0402,3.0373,3.0307,3.0292,3.0296,3.0353,3.1184,3.1029,3.0268,3.1024,3.0818,3.0011,3.0052,3.0498,3.1108,3.1104,3.113,3.1156,0.0,0.0,0.0,0.0,0.0,0.0,0.0,0.0,0.0,0.0,0.0,0.0,0.0,1.9365,1.9286,1.9853,2.0186,2.0368,2.0333,2.0308,2.0336,2.0398,2.0361,2.0323,2.0306,0.0,0.0,0.0,0.0,1.9824,1.9314,2.0647,2.1241,2.1216,2.1706,2.1915,2.183,2.0833,0.0,0.0,2.0041,1.9846,0.0,0.0,0.0,0.0,0.0,0.0,0.0,0.0,0.0,0.0,0.0,0.0,0.0,0.0,0.0,0.0,0.0,0.0,0.0,0.0,0.0,0.0,0.0,0.0,0.0,0.0,0.0,0.0,0.0,0.0,0.0,0.0,0.0,0.0,0.0,0.0,0.0,0.0,0.0,0.0,0.0,0.0,0.0,0.0,0.0,3.0593,3.0564,3.0513,3.0495,3.0495,3.0466,3.0425,3.0395,3.0394,3.0402,3.0402,3.0354,3.0323,3.0308,3.025,3.0231,3.025,3.0562,3.0503,3.0227,3.0517,3.0372,3.0007,3.0007,3.0142,3.033,3.033,3.0328,3.0336,0.0,0.0,0.0,0.0,0.0,0.0,0.0,0.0,0.0,0.0,0.0,0.0,0.0,0.0,1.9776,2.0341,2.0678,2.0696,2.0352,2.0618,2.0664,2.0416,2.0367,2.0328,2.0297,0.0,0.0,0.0,0.0,0.0,0.0,2.0682,2.1292,2.1337,2.2221,2.2375,0.0,0.0,0.0,2.0801,0.0,2.0335,2.0372,0.0,0.0,0.0,0.0,0.0,0.0,0.0,0.0,0.0,0.0,0.0,0.0,0.0,0.0,0.0,0.0,0.0,0.0,0.0,0.0,0.0,0.0,0.0,0.0,0.0,0.0,0.0,0.0,0.0,0.0,0.0,0.0,0.0,0.0,0.0,0.0,0.0,0.0,0.0,0.0,0.0,0.0,0.0,0.0,0.0,3.0564,3.0525,3.0493,3.0472,3.0419,3.0405,3.0397,3.0419,3.0402,3.037,3.0316,3.0282,3.027,3.0214,3.0197,3.0197,3.0195,3.0208,3.0208,3.0174,3.0113,3.003,3.0014,2.9952,2.9899,2.9899,2.9893,2.9864,0.0,0.0,0.0,0.0,0.0,0.0,0.0,0.0,0.0,0.0,0.0,0.0,0.0,0.0,0.0,2.0471,2.1256,2.1371,2.0531,2.1275,2.135,2.0471,2.0448,2.0405,2.0303,0.0,0.0,0.0,0.0,0.0,0.0,0.0,2.1381,2.1308,2.2276,2.2115,2.1178,0.0,2.1471,2.0108,0.0,2.1339,2.1333,0.0,0.0,0.0,2.1246,2.0737,0.0,2.0006,0.0,0.0,0.0,0.0,0.0,0.0,0.0,0.0,0.0,0.0,0.0,0.0,0.0,0.0,2.637,0.0,0.0,0.0,0.0,0.0,0.0,0.0,0.0,0.0,0.0,0.0,0.0,0.0,0.0,0.0,0.0,0.0,0.0,0.0,0.0,0.0,3.0562,3.0566,3.0518,3.0495,3.0475,3.0407,3.0397,3.04,3.0407,3.0469,3.0439,3.0307,3.0307,3.0267,3.0211,3.0202,3.0208,3.0208,3.0208,3.0208,3.0185,3.012,3.0106,3.0091,3.0026,2.9959,2.9904,2.9904,2.9851,2.9812,0.0,0.0,0.0,0.0,0.0,0.0,0.0,0.0,0.0,0.0,0.0,0.0,0.0,0.0,0.0,2.2277,2.2456,2.2483,2.2287,2.2466,2.2199,2.1376,2.1342,2.1046,2.0388,0.0,0.0,0.0,0.0,0.0,0.0,0.0,0.0,0.0,2.2027,2.2185,2.1362,2.2192,0.0,0.0,2.2456,2.228,0.0,0.0,0.0,0.0,0.0,2.2017,2.1742,0.0,2.1368,2.079,0.0,0.0,0.0,0.0,0.0,0.0,1.9702,0.0,0.0,0.0,0.0,0.0,2.5468,2.6246,0.0,0.0,0.0,0.0,0.0,0.0,0.0,0.0,0.0,0.0,0.0,0.0,0.0,0.0,0.0,0.0,0.0,0.0,0.0,0.0,3.0593,3.0595,3.0566,3.0527,3.0466,3.0403,3.0405,3.0416,3.0477,3.0391,3.0362,3.0373,3.0327,3.026,3.0191,3.0204,3.0206,3.0208,3.0208,3.0208,3.0185,3.014,3.0106,3.0091,2.9968,2.992,2.9899,2.9899,2.9893,2.9868,0.0,0.0,0.0,2.0347,0.0,0.0,0.0,0.0,0.0,0.0,0.0,0.0,0.0,0.0,0.0,2.2993,2.3248,2.3266,2.2975,2.3244,2.3031,2.2248,2.2199,2.197,2.1444,0.0,0.0,0.0,0.0,0.0,0.0,0.0,0.0,0.0,2.1756,2.2342,0.0,0.0,0.0,0.0,2.3488,0.0,0.0,2.376,2.3692,0.0,0.0,0.0,2.3562,2.3581,2.2783,0.0,0.0,0.0,0.0,0.0,0.0,0.0,0.0,0.0,0.0,0.0,0.0,0.0,2.4636,2.5412,2.6186,0.0,0.0,0.0,0.0,0.0,0.0,0.0,0.0,0.0,0.0,0.0,0.0,0.0,0.0,0.0,0.0,3.0595,3.0595,3.06,3.0598,3.0588,3.0569,3.0519,3.0463,3.0394,3.0422,3.0422,3.0427,3.0389,3.0354,3.0324,3.0311,3.025,3.0166,3.0187,3.0188,3.0161,3.0161,3.0161,3.0158,3.0095,3.0061,3.0087,2.9952,2.9893,2.9893,2.9893,2.9903,2.9906,0.0,0.0,2.0408,2.041,2.0541,2.0637,0.0,0.0,0.0,0.0,0.0,0.0,0.0,0.0,0.0,0.0,2.3863,2.3931,2.3244,2.3858,2.388,2.308,2.3038,2.3007,2.2905,0.0,0.0,0.0,0.0,0.0,0.0,0.0,0.0,0.0,2.1748,2.2701,2.4214,0.0,0.0,2.4454,2.4428,2.4889,0.0,0.0,2.5556,2.5568,2.6306,2.6097,2.5421,2.5188,2.4054,0.0,0.0,0.0,0.0,0.0,2.0213,0.0,0.0,0.0,0.0,0.0,0.0,0.0,2.3733,2.4737,2.5583,0.0,0.0,0.0,0.0,0.0,0.0,0.0,0.0,0.0,0.0,0.0,0.0,0.0,0.0,0.0,3.0604,3.0595,3.0598,3.0598,3.0595,3.0554,3.0507,3.0479,3.0453,3.039,3.0442,3.0419,3.0302,3.0408,3.0379,3.0202,3.0254,3.0228,3.0112,3.0171,3.0169,3.0099,3.0099,3.0099,3.0095,3.0026,3.0034,3.008,2.9952,2.9893,2.9893,2.9893,2.9893,2.9893,2.0408,2.0436,2.0477,2.0471,2.1069,0.0,0.0,0.0,0.0,0.0,0.0,0.0,0.0,0.0,0.0,0.0,0.0,2.5095,2.4996,2.509,2.4797,2.3975,2.3943,2.3645,2.2988,2.2805,0.0,0.0,0.0,0.0,0.0,0.0,0.0,0.0,2.3134,2.3944,0.0,0.0,0.0,2.7321,2.6635,0.0,2.7464,2.7475,2.7353,2.7242,2.7447,2.7353,2.6937,2.5628,2.4501,2.3394,0.0,0.0,0.0,0.0,0.0,0.0,0.0,0.0,0.0,0.0,0.0,0.0,2.2,2.2884,2.3942,0.0,0.0,0.0,0.0,0.0,0.0,0.0,0.0,0.0,0.0,0.0,0.0,0.0,0.0,0.0,3.06,3.0604,3.0598,3.0598,3.0557,3.0513,3.0504,3.0458,3.042,3.0406,3.0355,3.0354,3.0386,3.0292,3.026,3.027,3.0241,3.0207,3.0178,3.0185,3.0169,3.0099,3.0099,3.0099,3.0095,3.0026,3.0014,3.0014,2.9936,2.9893,2.9893,2.9893,2.9893,2.9893,2.0453,2.0471,2.0503,2.0509,0.0,0.0,0.0,0.0,0.0,0.0,0.0,0.0,0.0,0.0,0.0,0.0,0.0,0.0,0.0,0.0,2.5179,2.4778,2.4785,2.4614,2.4203,2.38,2.3578,0.0,0.0,0.0,0.0,0.0,0.0,0.0,0.0,0.0,0.0,0.0,2.7688,2.8736,2.7382,0.0,2.8683,2.8664,2.8553,2.8519,2.8984,2.8806,2.8106,2.6449,2.5299,0.0,0.0,2.1794,2.1244,0.0,1.9902,2.0169,0.0,0.0,0.0,2.0396,0.0,0.0,0.0,2.2065,2.2844,2.4595,0.0,0.0,0.0,0.0,0.0,0.0,0.0,0.0,0.0,0.0,0.0,0.0,0.0,0.0,3.0606,3.0597,3.0588,3.0559,3.0513,3.0487,3.0441,3.0428,3.0383,3.0352,3.0322,3.0295,3.0308,3.0276,3.0254,3.024,3.0254,3.0217,3.0154,3.0171,3.0124,3.0007,3.0007,3.0007,3.0007,2.996,2.9952,2.9948,2.9905,2.9893,2.9893,2.9893,2.9893,2.9893,2.0491,2.0637,2.0701,2.0546,0.0,0.0,0.0,0.0,0.0,0.0,0.0,0.0,0.0,0.0,0.0,0.0,0.0,0.0,0.0,0.0,2.5514,2.5361,2.5406,2.5368,2.5192,2.4737,2.4395,2.4227,0.0,0.0,0.0,0.0,0.0,0.0,0.0,0.0,0.0,0.0,0.0,2.9384,0.0,2.8255,2.9636,2.9586,2.9511,2.9519,3.0197,2.9866,2.8873,2.7347,2.611,2.4922,2.3348,2.2216,0.0,0.0,0.0,0.0,0.0,0.0,0.0,0.0,0.0,2.0578,0.0,0.0,0.0,0.0,0.0,0.0,0.0,0.0,0.0,0.0,0.0,0.0,0.0,0.0,0.0,0.0,0.0,0.0,0.0,3.0507,3.0571,3.0518,3.0495,3.0469,3.0398,3.0399,3.0367,3.0307,3.0292,3.0257,3.0191,3.0251,3.0257,3.0208,3.0257,3.0221,3.011,3.0169,3.0083,2.994,2.9913,2.9928,2.9928,2.9916,2.9893,2.9893,2.9893,2.9893,2.9893,2.9893,2.9893,2.9893,2.0505,2.1113,2.1423,2.0716,0.0,0.0,0.0,0.0,0.0,0.0,0.0,0.0,0.0,0.0,0.0,0.0,0.0,0.0,2.5623,0.0,0.0,2.5582,2.558,2.5215,2.4449,2.514,2.5128,2.4297,0.0,0.0,0.0,0.0,0.0,0.0,2.615,0.0,0.0,0.0,2.88,0.0,2.9306,2.9736,0.0,3.0539,3.0421,3.0269,3.0238,2.9742,2.8959,0.0,2.6566,2.5031,0.0,2.2627,2.1313,0.0,0.0,0.0,0.0,0.0,0.0,0.0,2.0316,0.0,0.0,0.0,2.1675,2.1932,0.0,0.0,0.0,0.0,0.0,0.0,0.0,0.0,0.0,0.0,0.0,0.0,0.0,0.0,0.0,3.0154,3.0569,3.0518,3.0495,3.0469,3.0398,3.0343,3.031,3.0307,3.0241,3.0221,3.0191,3.0216,3.0202,3.0208,3.0202,3.0178,3.0098,3.0109,3.0106,3.0061,3.0018,2.9999,2.9976,2.9913,2.9893,2.9893,2.9893,2.9893,2.9893,2.9893,2.9893,2.9893,2.2004,2.1494,2.1096,2.1264,0.0,0.0,0.0,0.0,0.0,0.0,0.0,0.0,0.0,0.0,0.0,0.0,0.0,2.7467,0.0,0.0,0.0,0.0,2.5859,2.5436,2.5057,2.5438,2.5218,2.4361,2.4392,0.0,0.0,0.0,0.0,0.0,2.7206,0.0,2.8573,0.0,2.9999,0.0,0.0,0.0,0.0,3.0697,3.0606,3.0373,2.9784,2.9363,2.8903,0.0,2.6584,0.0,0.0,0.0,0.0,0.0,0.0,0.0,0.0,0.0,0.0,0.0,0.0,0.0,2.1046,0.0,2.1,0.0,0.0,0.0,0.0,0.0,0.0,0.0,0.0,0.0,0.0,0.0,0.0,0.0,0.0,0.0,0.0,0.0,0.0,0.0,2.9469,2.9712,2.9644,3.0061,3.0295,3.0295,3.0224,3.0206,3.0206,3.0195,3.0208,3.0208,3.0208,3.0167,3.0101,3.0101,3.0072,3.0038,3.0014,2.9972,2.9944,2.9905,2.9893,2.9893,2.9893,2.9893,2.9893,2.9893,2.9893,2.9893,2.3681,0.0,0.0,0.0,0.0,0.0,0.0,0.0,0.0,0.0,0.0,0.0,2.6068,2.6617,0.0,0.0,2.7933,2.8468,0.0,0.0,2.739,0.0,0.0,0.0,0.0,2.5515,2.5215,2.4407,0.0,0.0,0.0,0.0,0.0,0.0,0.0,2.8763,2.962,0.0,3.0975,3.1132,3.0895,3.0778,3.0722,3.0692,3.061,3.0441,2.9723,2.9476,2.9236,2.7778,2.6924,0.0,2.4973,0.0,0.0,0.0,0.0,0.0,2.084,0.0,0.0,0.0,0.0,0.0,0.0,0.0,0.0,0.0,0.0,0.0,0.0,0.0,0.0,0.0,0.0,0.0,0.0,0.0,0.0,0.0,0.0,0.0,0.0,0.0,0.0,0.0,0.0,2.8923,2.9088,2.9636,3.0059,3.0289,3.0213,3.0171,3.0171,3.0171,3.0167,3.0179,3.0167,3.015,3.009,3.009,3.0061,3.0026,3.0014,2.9968,2.9932,2.992,2.9893,2.9893,2.9893,2.9893,2.9893,2.9893,2.9893,2.9893,2.5197,2.4797,0.0,0.0,0.0,0.0,0.0,0.0,0.0,0.0,0.0,0.0,0.0,0.0,0.0,0.0,0.0,2.9134,2.8359,0.0,2.8693,0.0,0.0,2.6172,0.0,0.0,2.5273,2.4394,0.0,0.0,0.0,0.0,0.0,0.0,0.0,2.8753,2.9563,3.0435,3.1281,3.1988,3.1132,3.0796,3.0783,0.0,3.0604,3.0572,3.0499,0.0,0.0,2.9326,2.7859,0.0,0.0,0.0,0.0,0.0,0.0,0.0,0.0,0.0,0.0,2.2666,0.0,0.0,0.0,0.0,2.0133,0.0,0.0,0.0,0.0,0.0,0.0,0.0,0.0,0.0,0.0,0.0,0.0,0.0,0.0,0.0,0.0,0.0,0.0,0.0,0.0,0.0,2.9052,2.9057,2.942,3.027,3.0166,3.0105,3.0105,3.0105,3.009,3.0102,3.009,3.0109,3.0099,3.0099,3.0099,3.0095,3.0026,3.0007,2.9984,2.9932,2.9893,2.9893,2.9893,2.9893,2.9893,2.9893,2.9893,2.9893,2.5471,0.0,0.0,0.0,0.0,0.0,0.0,2.5491,0.0,0.0,0.0,0.0,0.0,2.8315,2.8659,0.0,0.0,3.0312,3.0039,2.9746,0.0,0.0,0.0,2.7578,0.0,0.0,0.0,0.0,0.0,0.0,0.0,0.0,0.0,0.0,0.0,2.8948,0.0,0.0,0.0,0.0,0.0,3.1658,3.1583,0.0,3.0662,3.0662,3.0645,3.0559,0.0,2.9506,2.8762,2.8006,2.6926,2.555,2.4271,2.3987,2.3334,0.0,0.0,0.0,2.3558,2.3558,0.0,0.0,0.0,0.0,0.0,0.0,0.0,0.0,0.0,0.0,0.0,0.0,0.0,0.0,0.0,0.0,0.0,0.0,0.0,0.0,0.0,0.0,0.0,0.0,0.0,0.0,0.0,2.8719,2.9394,3.027,3.0207,3.0167,3.0167,3.012,3.0109,3.0099,3.0057,3.0068,3.0106,3.0106,3.0099,3.0099,3.008,3.0018,2.994,2.9956,2.9944,2.9897,2.9952,2.9944,2.9893,2.9893,2.9893,2.9893,2.5556,0.0,0.0,0.0,0.0,0.0,0.0,0.0,0.0,0.0,2.781,0.0,2.8593,0.0,2.9496,0.0,3.0337,3.0874,3.0898,3.037,0.0,2.9609,2.9062,0.0,0.0,0.0,0.0,0.0,0.0,2.7058,0.0,0.0,0.0,0.0,0.0,2.9367,2.9253,0.0,3.1824,0.0,0.0,3.2109,0.0,0.0,3.1194,3.1197,0.0,3.0916,3.0496,2.9958,2.95,2.899,2.7921,2.6928,2.5982,2.5116,2.4485,2.4084,2.4028,2.4215,0.0,2.478,2.4347,0.0,2.3113,0.0,0.0,0.0,0.0,0.0,0.0,0.0,0.0,0.0,0.0,0.0,0.0,0.0,0.0,0.0,0.0,0.0,0.0,0.0,0.0,0.0,0.0,0.0,0.0,0.0,2.8935,2.981,3.0044,3.0164,3.0164,3.0116,3.0109,3.0099,3.0061,3.0042,3.0061,3.0061,3.0046,3.003,3.003,2.9984,2.9944,2.9976,2.9968,2.9944,2.9976,2.9956,2.9893,2.9893,2.9893,2.9893,2.5504,2.5441,0.0,0.0,2.5522,0.0,0.0,0.0,2.8448,0.0,2.9494,2.952,2.9556,2.9552,2.9553,2.9559,3.032,3.0835,3.0894,3.0896,0.0,0.0,2.9664,2.9271,2.8446,0.0,0.0,0.0,0.0,0.0,0.0,0.0,0.0,0.0,2.9088,0.0,3.0645,3.0808,3.1336,3.2096,3.2146,3.2159,3.2164,3.2207,3.2238,3.2211,3.2057,3.1474,3.0752,3.0649,3.007,2.9354,2.9241,2.8644,2.7795,2.6925,2.6677,2.6655,2.6606,2.5986,2.5499,2.6218,0.0,0.0,0.0,0.0,2.2451,0.0,0.0,0.0,0.0,0.0,0.0,0.0,0.0,0.0,0.0,0.0,0.0,0.0,0.0,0.0,0.0,0.0,0.0,0.0,0.0,0.0,0.0,0.0,2.8052,2.898,2.9633,3.001,3.0105,3.0067,3.0052,3.0099,3.0106,3.0064,2.9996,2.9992,2.9968,2.9901,2.992,2.9944,3.0007,2.9992,3.0011,3.0007,2.9992,2.996,2.9893,2.9893,2.9893,2.9893,2.5614,2.5336,2.5151,0.0,2.5847,2.655,0.0,0.0,0.0,0.0,2.9475,2.973,3.0338,3.0435,3.0475,3.0477,3.0667,0.0,0.0,0.0,0.0,3.0562,3.0562,3.0463,3.0243,2.96,0.0,3.0156,0.0,0.0,2.7903,0.0,0.0,0.0,0.0,0.0,2.9884,3.1158,3.1851,3.2161,3.2802,3.3068,3.3136,0.0,3.4023,3.3862,3.2554,3.192,3.1638,3.0972,3.058,3.0218,2.9569,2.9169,2.8776,2.7909,2.7607,2.7415,2.6778,2.6866,2.7002,2.6512,2.6022,2.5471,0.0,0.0,0.0,0.0,0.0,0.0,0.0,0.0,0.0,0.0,0.0,0.0,0.0,0.0,0.0,1.939,0.0,0.0,0.0,0.0,0.0,0.0,0.0,0.0,0.0,0.0,0.0,2.8941,2.8565,2.8907,3.0152,2.9532,2.95,3.0099,3.0106,3.0091,3.0072,3.0072,3.0053,3.0042,3.0003,2.9976,2.9992,3.0046,3.0038,2.9992,3.0046,3.0011,2.9893,2.9893,2.9893,2.9893,2.647,0.0,0.0,2.5515,0.0,0.0,2.7764,2.8192,0.0,3.0323,3.0533,0.0,3.1215,3.1646,3.1882,3.1882,3.1563,0.0,3.1902,0.0,0.0,3.1408,3.1061,3.0864,3.0858,3.0374,0.0,3.0793,0.0,0.0,2.8787,0.0,0.0,0.0,0.0,2.9993,3.0119,3.1445,3.204,3.2171,3.3044,3.3625,0.0,3.4505,3.494,3.5097,3.3724,3.2753,3.203,3.1535,3.1091,3.0646,3.0121,2.9941,2.9734,2.8825,2.8517,2.835,2.7833,2.7745,2.7747,2.7548,2.7168,2.6581,2.5674,2.5044,2.4406,0.0,0.0,0.0,0.0,0.0,0.0,0.0,0.0,0.0,0.0,0.0,0.0,0.0,1.9047,0.0,0.0,0.0,0.0,0.0,0.0,0.0,0.0,0.0,0.0,2.731,2.7912,2.852,2.9096,2.8977,2.9128,2.9587,2.9587,2.9758,3.0101,3.0091,3.0099,3.0095,3.0007,2.9988,3.0042,3.0072,3.0084,3.0038,3.0022,2.9964,2.9893,2.9893,2.9893,2.9893,0.0,0.0,0.0,0.0,0.0,0.0,0.0,2.945,0.0,3.1835,0.0,3.2093,3.2147,3.2833,3.3304,3.3307,0.0,3.2571,3.3343,3.1853,3.1309,3.2062,3.1272,3.0807,3.08,3.0793,3.0796,0.0,0.0,0.0,0.0,0.0,0.0,0.0,0.0,0.0,0.0,3.1677,3.2095,3.2327,3.3225,3.4025,3.4705,3.4829,3.5346,3.5898,3.5135,3.3819,3.2418,3.2171,3.16,3.0937,3.0754,3.0704,3.0541,2.9708,2.9429,2.9332,2.9168,2.862,2.8245,2.877,2.829,2.7477,2.6687,2.6344,2.5935,2.5118,2.4918,2.4613,0.0,0.0,0.0,0.0,0.0,0.0,0.0,0.0,0.0,0.0,0.0,0.0,0.0,0.0,0.0,0.0,0.0,0.0,0.0,0.0,0.0,2.5341,2.7354,2.8249,2.7851,0.0,2.8739,2.9067,2.8949,2.9332,3.0112,3.0098,3.0102,3.0099,2.9968,2.9977,3.0101,3.0091,3.0099,3.0091,2.996,2.992,2.9897,2.9901,2.992,2.9907,0.0,0.0,0.0,0.0,0.0,2.9832,3.1547,3.1524,3.1717,3.2833,3.2971,3.2972,3.2982,3.3181,3.3295,3.3291,3.3179,0.0,0.0,0.0,0.0,3.2088,3.1274,3.0796,3.079,3.0805,3.0802,0.0,0.0,0.0,0.0,0.0,0.0,0.0,0.0,0.0,3.1778,3.1945,0.0,3.3179,3.4093,3.4562,3.4775,3.5504,3.5867,3.5974,3.582,3.5112,3.402,3.2575,3.2008,3.1733,3.0959,3.0693,3.066,3.0441,3.0321,3.0105,2.9377,2.952,2.9717,2.9068,2.8725,2.8491,2.8235,2.7611,2.6824,2.5979,2.5775,2.5504,2.4651,0.0,0.0,0.0,0.0,0.0,0.0,0.0,0.0,0.0,0.0,0.0,0.0,0.0,0.0,0.0,0.0,0.0,0.0,0.0,0.0,0.0,2.5969,0.0,0.0,0.0,2.7889,2.9956,2.9237,2.9352,3.0174,3.0135,3.0094,3.009,3.0011,3.0026,3.0101,3.0091,3.0099,3.0091,3.0018,2.9952,2.992,2.996,2.9948,2.9893,0.0,0.0,0.0,0.0,0.0,0.0,0.0,3.2828,3.3016,3.3682,3.3742,3.3761,3.3811,3.4222,3.4514,3.4598,3.4177,3.4112,3.4565,3.3354,3.2646,3.2718,3.1887,3.1236,3.0802,3.0807,3.0805,3.0793,0.0,0.0,0.0,0.0,0.0,0.0,0.0,3.1152,0.0,0.0,0.0,3.4055,3.4955,3.5327,3.5363,3.5825,3.5997,3.6009,3.5996,3.5721,3.5186,3.3882,3.2846,3.2021,3.1572,3.1091,3.0695,3.0655,3.0606,3.045,2.9956,3.0086,3.023,2.9743,2.9549,2.9338,2.8822,2.8306,2.769,2.6845,2.6317,2.5598,2.4271,2.3371,0.0,0.0,0.0,0.0,0.0,0.0,0.0,0.0,0.0,0.0,0.0,0.0,0.0,0.0,0.0,0.0,0.0,0.0,0.0,0.0,0.0,0.0,0.0,0.0,0.0,2.953,2.9109,2.9367,3.0208,3.0123,3.0101,3.0101,3.0068,3.0065,3.0098,3.0102,3.0106,3.0095,3.0034,2.9972,2.9952,2.9952,2.9936,2.9893,0.0,2.886,0.0,0.0,3.0695,0.0,3.3299,3.3685,3.3974,3.4395,3.442,3.4437,3.454,3.5145,3.5576,3.5666,3.5064,3.4967,3.563,3.4246,3.3404,3.3441,3.2478,3.1642,3.1035,3.0869,3.0773,0.0,0.0,0.0,0.0,0.0,0.0,0.0,0.0,0.0,0.0,0.0,3.4682,3.4923,3.562,3.5893,3.5908,3.5967,3.5988,3.6004,3.5994,3.5996,3.5897,3.5204,3.3937,3.2587,3.2216,3.1579,3.0972,3.0971,3.0791,3.0601,3.0685,3.0546,3.0379,3.0318,3.0206,2.9923,2.9212,2.8906,2.8545,2.7717,2.6724,2.5575,2.4207,2.3655,0.0,0.0,0.0,0.0,0.0,0.0,0.0,0.0,0.0,0.0,0.0,0.0,0.0,0.0,0.0,0.0,0.0,0.0,0.0,0.0,0.0,2.6224,2.6573,0.0,2.7932,2.9155,2.8984,2.9367,3.0208,3.0153,3.0116,3.0116,3.0102,3.0102,3.0099,3.0106,3.0091,3.0076,3.0042,3.0014,3.0003,2.9956,2.994,2.9928,0.0,0.0,0.0,0.0,0.0,0.0,3.404,3.422,3.4411,3.4864,3.4979,3.5027,3.502,3.5205,3.531,3.5255,3.5299,3.5293,3.525,3.4484,3.3994,3.3942,3.2521,3.1718,3.1701,3.105,3.0688,0.0,0.0,3.0607,0.0,0.0,0.0,0.0,0.0,0.0,0.0,3.4447,3.4964,3.5696,3.5835,3.5898,3.5893,3.5907,3.5952,3.5995,3.6004,3.5993,3.5996,3.5914,3.5242,3.4171,3.2595,3.2003,3.1881,3.1886,3.1268,3.0767,3.1473,3.1057,3.0378,3.0316,3.0241,3.0134,2.9928,2.9773,2.9428,2.8564,2.7115,2.594,2.5786,2.4465,2.3093,0.0,0.0,0.0,0.0,0.0,0.0,0.0,0.0,0.0,0.0,2.0152,0.0,0.0,0.0,0.0,0.0,0.0,0.0,2.4927,0.0,2.5936,2.7455,2.677,2.7627,2.9991,2.9251,2.9367,3.0208,3.0185,3.0181,3.0181,3.0139,3.0102,3.0099,3.0106,3.0061,3.0003,3.0076,3.0046,3.0011,3.0053,3.0038,2.998,0.0,0.0,0.0,0.0,0.0,0.0,0.0,3.413,3.4238,3.4381,3.4675,3.4934,3.5145,3.5142,3.5134,3.5139,3.5193,3.5209,3.5201,3.4917,3.4518,3.396,3.3397,3.2616,3.1645,3.1361,3.0972,0.0,0.0,0.0,0.0,0.0,0.0,0.0,0.0,3.38,3.4473,3.5047,3.5484,3.5811,3.5875,3.5901,3.5897,3.5893,3.594,3.6006,3.5995,3.6008,3.5996,3.5996,3.5422,3.4579,3.3876,3.3265,3.2783,3.278,3.2512,3.2164,3.1883,3.1538,3.1097,3.0513,3.027,3.0195,3.0135,2.998,2.975,2.9361,2.7917,2.6574,2.609,2.4991,2.4071,0.0,0.0,0.0,0.0,0.0,0.0,0.0,0.0,0.0,0.0,0.0,0.0,0.0,0.0,0.0,0.0,0.0,0.0,2.5685,0.0,2.658,2.8307,2.7966,2.858,3.0101,2.9762,2.9825,3.0208,3.0208,3.0208,3.0204,3.0124,3.0117,3.0165,3.0128,3.0087,3.0061,3.0098,3.0065,2.9992,3.003,3.0007,2.9944,3.2913,0.0,3.2613,0.0,3.3103,3.3211,3.3762,3.3934,3.4017,3.403,3.4296,3.4598,3.4883,3.4856,3.4832,3.4897,3.4943,3.4993,3.4997,3.5056,3.4795,3.4155,3.3983,0.0,3.217,3.1981,3.1584,3.0976,3.0995,0.0,0.0,0.0,0.0,0.0,3.4098,3.4541,3.4824,3.5494,3.5773,3.5808,3.5848,3.5878,3.5901,3.5897,3.5947,3.5996,3.6006,3.6003,3.5994,3.5996,3.5581,3.5031,3.4786,3.4235,3.3674,3.3675,3.3494,3.319,3.2724,3.2384,3.1955,3.1045,3.0707,3.0544,3.027,3.0061,2.9903,2.9793,2.8608,2.7334,2.6503,2.5637,2.4896,2.4414,0.0,0.0,0.0,0.0,0.0,0.0,2.2065,2.1949,2.312,2.1831,0.0,0.0,0.0,0.0,0.0,0.0,0.0,0.0,0.0,0.0,2.8429,2.8695,2.9254,3.0101,3.0116,3.016,3.0208,3.0208,3.0208,3.0204,3.0154,3.0154,3.0167,3.0116,3.0098,3.009,3.0101,3.0072,3.0023,3.0023,2.9996,2.9956,3.604,3.545,3.494,3.4887,3.4266,3.3768,3.3712,3.3766,3.3868,3.4074,3.4049,3.4068,3.4203,3.4328,3.4416,3.4403,3.4583,3.465,3.4517,3.4692,3.4778,0.0,0.0,3.3691,3.3663,3.2962,3.2588,3.2576,0.0,0.0,3.2561,0.0,3.3301,3.4106,3.4314,3.4871,3.5688,3.5707,3.5737,3.5803,3.5806,3.5844,3.5903,3.5901,3.5935,3.6006,3.5996,3.5997,3.5992,3.5996,3.5994,3.5826,3.4973,3.4642,3.4577,3.4571,3.3971,3.3468,3.4253,3.3798,3.2872,3.2006,3.1671,3.1348,3.0403,3.0098,2.994,2.9748,2.9045,2.8218,2.7344,2.6468,2.5296,2.3516,0.0,0.0,0.0,0.0,0.0,2.2822,2.1572,2.1391,2.3134,2.1893,0.0,0.0,0.0,0.0,0.0,0.0,0.0,2.4952,2.5848,0.0,2.7614,2.8469,2.9304,3.0105,3.0167,3.0208,3.0208,3.0208,3.0208,3.0208,3.0208,3.0164,3.0105,3.0101,3.0106,3.0102,3.009,3.0101,3.0101,3.0101,3.0102,3.0091,3.4608,3.5089,3.5509,3.4929,3.5082,3.529,3.5268,3.5283,3.5327,3.5399,3.5423,3.5468,3.554,3.4829,3.4328,0.0,3.442,3.4478,0.0,3.4495,3.4517,3.4495,3.4331,3.3999,3.3445,3.3237,3.2906,3.2404,0.0,0.0,0.0,3.3641,3.4222,3.5126,3.5186,3.5403,3.5701,3.57,3.5708,3.574,3.5784,3.5801,3.5842,3.5873,3.5884,3.5884,3.5971,3.5977,3.5931,3.5971,3.5996,3.5952,3.567,3.5531,3.5494,3.5481,3.528,3.4982,3.461,3.4242,3.3776,3.2908,3.2166,3.1581,3.1235,3.0525,2.9916,2.9859,2.9156,2.8462,2.8147,2.7416,2.6643,2.603,2.5628,0.0,0.0,0.0,0.0,2.4028,2.3186,2.3067,2.4212,2.29,0.0,0.0,0.0,0.0,0.0,0.0,0.0,0.0,2.6726,0.0,2.9285,2.9571,2.9872,3.0167,3.0181,3.0208,3.0208,3.0208,3.0208,3.0208,3.0208,3.0181,3.0167,3.0167,3.0146,3.0094,3.0153,3.0139,3.0095,3.0094,3.0106,3.0095,3.5558,3.5945,3.6273,3.5766,3.5847,3.5992,3.5962,3.5985,3.5992,3.5962,3.6039,3.6109,3.6153,3.5259,0.0,3.5138,3.5249,3.5172,3.488,3.4866,3.4758,3.4439,3.4478,3.4281,3.3792,3.3824,0.0,3.3275,3.3355,3.3735,3.4385,3.4525,3.4911,3.5528,3.559,3.5623,3.5651,3.567,3.568,3.5694,3.5718,3.5732,3.5773,3.5812,3.5801,3.5809,3.5894,3.5912,3.5913,3.5983,3.5995,3.5995,3.6008,3.5971,3.5923,3.5907,3.59,3.5776,3.515,3.4941,3.4672,3.3804,3.2908,3.2029,3.128,3.0541,2.9999,2.999,2.9493,2.8978,2.8613,2.8102,2.7625,2.7221,2.6972,2.6703,2.6435,0.0,0.0,0.0,0.0,0.0,0.0,2.3785,2.3286,0.0,0.0,0.0,0.0,0.0,0.0,2.6271,2.7472,0.0,2.969,2.9992,3.0166,3.0249,3.0249,3.0249,3.0245,3.0213,3.0213,3.0245,3.0199,3.0195,3.0202,3.0192,3.0174,3.013,3.0178,3.016,3.0143,3.0142,3.0124,3.0095,3.8127,3.7665,3.7223,0.0,3.6565,0.0,3.6074,3.611,3.6126,3.6074,3.6176,3.6255,3.6255,3.5764,3.5782,3.6675,0.0,0.0,0.0,3.5651,3.5356,3.4626,3.4521,3.4512,3.4561,3.4572,3.4689,3.4908,3.5102,3.5213,3.5218,3.5338,3.5412,3.542,3.5547,3.559,3.5598,3.5601,3.5632,3.5675,3.5612,3.5634,3.5691,3.5693,3.5728,3.5788,3.5802,3.5839,3.5906,3.5975,3.5991,3.5996,3.5991,3.6,3.5986,3.5925,3.5891,3.5896,3.5813,3.5767,3.5507,3.4683,3.3793,3.2618,3.0799,3.0289,3.0171,3.0117,3.0011,2.9657,2.8845,2.8636,2.8304,2.7409,2.7954,2.8185,2.7332,0.0,0.0,0.0,0.0,0.0,2.6052,2.468,2.3779,0.0,0.0,0.0,0.0,0.0,2.5615,2.6384,2.8025,2.8971,2.9095,2.9835,3.0234,3.0289,3.0289,3.0289,3.0308,3.0231,3.0234,3.0305,3.0223,3.0209,3.0214,3.0206,3.0195,3.0192,3.0192,3.0192,3.0208,3.0208,3.0164,3.0109,0.0,0.0,3.7769,3.7136,3.7398,3.767,3.7664,3.768,3.767,3.7664,3.7735,3.7782,3.7782,3.775,3.7851,3.8169,3.6637,3.5638,3.5596,3.5522,3.5448,3.5417,3.4682,3.4275,3.4293,3.4386,3.4591,3.4908,3.5155,3.5269,3.5281,3.5409,3.5488,3.5483,3.5509,3.5525,3.5534,3.5583,3.5586,3.5559,3.5598,3.5575,3.5555,3.5596,3.5624,3.5662,3.5754,3.5805,3.5831,3.5897,3.5965,3.5991,3.5996,3.5991,3.5987,3.5916,3.5893,3.5893,3.5877,3.5836,3.5711,3.5452,3.4199,3.2718,3.1562,3.0727,3.018,3.0109,3.0076,2.9961,2.9642,2.954,2.9396,2.9121,2.8704,2.8168,2.7382,2.7327,2.7142,0.0,2.6549,2.672,2.7067,2.6114,2.5773,0.0,0.0,0.0,0.0,2.7484,2.7551,2.6431,2.8077,2.9309,2.9992,3.018,3.0279,3.0289,3.0289,3.0289,3.0308,3.0279,3.0283,3.0308,3.0273,3.027,3.0276,3.0289,3.025,3.02,3.02,3.0206,3.0208,3.0208,3.0181,3.0174,3.7081,3.7681,3.8143,3.7715,3.7998,3.8289,3.8289,3.8274,3.8259,3.8259,3.7955,3.7744,3.7744,3.7244,3.6923,3.7004,3.6936,3.68,3.6573,3.6574,3.631,3.5669,3.5218,3.4824,3.4478,3.4545,3.4715,3.4997,3.5205,3.5316,3.5357,3.5416,3.5477,3.5499,3.5499,3.5518,3.5554,3.5587,3.5584,3.5554,3.559,3.5563,3.5505,3.5537,3.555,3.5575,3.5671,3.5727,3.5763,3.5874,3.5921,3.5959,3.5991,3.5996,3.5983,3.596,3.5914,3.5906,3.5909,3.5845,3.5685,3.5221,3.4372,3.3304,3.1991,3.1267,3.0759,3.0301,3.0183,3.0146,3.0026,2.9944,2.9859,2.9753,2.9427,2.9039,2.8639,2.8315,2.8112,2.8048,2.7771,2.7738,2.8098,2.7329,2.7001,2.7544,2.7169,0.0,2.7713,2.8566,2.8616,2.7651,2.8936,2.9879,3.0333,3.0353,3.0353,3.0353,3.0353,3.0353,3.0333,3.0302,3.0324,3.0333,3.0302,3.0299,3.0295,3.0299,3.0276,3.0237,3.0217,3.02,3.0206,3.0192,3.0208,3.0208,3.8196,3.8194,3.8194,3.8194,3.8202,3.8192,3.8192,3.8172,3.8087,3.7978,3.736,3.6924,3.6924,3.5871,3.5153,3.5167,3.7136,3.8103,3.7438,3.7632,3.7143,3.57,3.5668,3.5383,3.4776,3.4788,3.4903,3.5092,3.5219,3.5315,3.5398,3.5402,3.5423,3.5493,3.5497,3.5511,3.556,3.5582,3.5573,3.5544,3.557,3.5534,3.5463,3.549,3.5485,3.5499,3.5562,3.5629,3.5694,3.5813,3.5865,3.5895,3.5962,3.5975,3.5995,3.6001,3.5954,3.5919,3.5892,3.5859,3.5607,3.4814,3.4403,3.3839,3.2497,3.1937,3.1515,3.0822,3.0596,3.0461,3.0359,3.0178,3.0019,2.9893,3.0015,3.0084,2.9961,0.0,2.9426,2.9966,2.8887,2.8367,2.9101,2.8337,2.7892,2.8136,2.7959,2.7921,2.8182,2.8901,2.9305,2.9316,3.0025,3.0418,3.0418,3.0413,3.039,3.039,3.0407,3.0404,3.0401,3.0342,3.0345,3.0401,3.0346,3.0324,3.031,3.0318,3.0302,3.0296,3.0241,3.0224,3.0217,3.0213,3.0225,3.0225,3.7352,3.7217,3.7217,3.7217,3.7255,3.7295,3.7295,3.7335,3.713,3.644,3.624,3.6167,3.6167,3.5986,3.5875,3.5919,3.6289,3.6348,3.5944,3.65,3.6495,3.58,3.5034,3.4615,3.4558,3.4706,3.4898,3.5092,3.5176,3.5246,3.5319,3.5372,3.5409,3.5416,3.5467,3.5435,3.5346,3.5463,3.5427,3.5272,3.5458,3.5434,3.533,3.5382,3.5442,3.5493,3.5505,3.555,3.5623,3.5647,3.5717,3.5835,3.5882,3.5916,3.5934,3.5971,3.5995,3.5979,3.5921,3.5859,3.5773,3.5629,3.4424,3.3427,3.388,3.2811,3.1847,3.2391,3.1917,3.1398,3.1376,3.0753,3.0254,3.0225,3.026,3.0023,2.934,0.0,2.9966,2.9335,2.9586,2.9844,2.9928,2.918,2.9018,2.9778,2.9231,2.9202,2.9968,3.018,3.0283,3.0278,3.0419,3.0488,3.0488,3.0422,3.0406,3.0406,3.0396,3.0404,3.0404,3.0398,3.0398,3.0404,3.0392,3.0373,3.0379,3.0373,3.0358,3.0298,3.0292,3.027,3.0279,3.0276,3.0276,3.0276,3.6551,3.6446,3.6596,3.7033,3.7129,3.7169,3.7197,3.7197,3.6913,3.6148,3.5662,3.5352,3.5352,3.5031,3.4821,3.4852,3.5358,3.5403,3.4773,3.5935,3.6551,3.6352,3.5604,3.505,3.4721,3.484,3.495,3.5057,3.5149,3.5224,3.5246,3.5308,3.5368,3.5405,3.5382,3.5383,3.5354,3.5372,3.5343,3.526,3.5358,3.5361,3.5312,3.5372,3.5444,3.5495,3.5499,3.555,3.5606,3.5596,3.567,3.5753,3.5869,3.5897,3.5907,3.5976,3.5999,3.5993,3.592,3.5882,3.5859,3.5805,3.5165,3.4405,3.3829,3.305,3.2282,3.1719,3.1325,3.1179,3.1588,3.0975,3.0508,3.0833,3.0629,0.0,2.9855,3.015,3.026,2.9858,3.0065,3.026,3.0257,2.9938,2.9901,3.0386,3.0076,3.0034,3.0438,3.0518,3.053,3.0496,3.0505,3.05,3.05,3.0474,3.0441,3.0441,3.0447,3.0431,3.0391,3.0391,3.0402,3.0404,3.0404,3.0404,3.0404,3.0404,3.0376,3.0345,3.0313,3.0298,3.0299,3.0299,3.0289,3.0289,3.5755,3.5633,3.5868,3.6497,3.675,3.6916,3.6993,3.6978,3.6685,3.5937,3.5096,3.4578,3.4578,3.4099,3.3887,3.4116,3.4633,3.4853,3.4615,3.5519,3.6105,3.6193,3.5801,3.5374,3.4911,3.495,3.4978,3.5001,3.5125,3.5189,3.5193,3.5266,3.5323,3.5372,3.5323,3.5315,3.5342,3.53,3.5265,3.5253,3.5293,3.5297,3.532,3.5357,3.5416,3.5474,3.5489,3.5512,3.5575,3.559,3.563,3.5696,3.583,3.5886,3.5888,3.5976,3.6003,3.5984,3.5921,3.5904,3.5882,3.5832,3.5652,3.5197,3.4006,3.3391,3.2779,3.1647,3.1131,3.1078,3.1647,3.1236,3.0912,3.1171,0.0,3.0975,0.0,3.0612,3.0667,3.0466,3.0405,3.0398,3.0444,3.0431,3.0478,3.059,3.055,3.0521,3.0552,3.0585,3.0583,3.0516,3.0528,3.0525,3.0525,3.0503,3.0492,3.0492,3.0507,3.0466,3.0395,3.0395,3.0397,3.0404,3.0404,3.0404,3.0404,3.0404,3.0404,3.0382,3.0342,3.0316,3.0313,3.0324,3.0311,3.0311,3.4896,3.4659,3.473,3.4777,3.5452,3.6027,3.6085,3.6134,3.5926,3.5185,3.4374,3.386,3.386,3.3837,3.4153,3.5024,3.4375,3.4613,3.6296,3.501,3.4259,3.4395,3.4579,3.4767,3.4911,3.4902,3.4931,3.5001,3.5075,3.5142,3.5208,3.5273,3.5289,3.5312,3.5289,3.527,3.5218,3.5213,3.5164,3.5138,3.5245,3.5293,3.5296,3.5316,3.5357,3.5409,3.5412,3.5449,3.5518,3.5572,3.5608,3.5632,3.5764,3.5817,3.5823,3.5968,3.5991,3.5995,3.5914,3.5898,3.5904,3.5885,3.5242,3.4769,3.5458,3.43,3.3292,3.3975,3.2882,3.1815,3.1874,3.1835,3.1551,3.0776,0.0,0.0,3.0804,3.1283,3.1487,3.069,3.0583,3.0583,3.0586,3.0528,3.051,3.0597,3.0604,3.061,3.0688,3.0631,3.0593,3.0593,3.0588,3.0595,3.0595,3.0528,3.0494,3.0494,3.0492,3.0466,3.0395,3.0395,3.0397,3.0404,3.0404,3.0404,3.0404,3.0404,3.0404,3.0404,3.0382,3.0382,3.0382,3.0398,3.0395,3.0395,3.4702,3.4147,3.4001,3.4508,3.531,3.5747,3.5323,3.6163,3.6219,3.4484,3.4417,3.4573,3.4653,3.4678,3.5024,3.5928,3.5219,3.5036,3.575,3.4709,3.4142,3.431,3.4501,3.4655,3.4773,3.4858,3.4912,3.4931,3.5043,3.5101,3.5142,3.5242,3.5308,3.5308,3.5258,3.5215,3.5197,3.5068,3.5051,3.5097,3.5168,3.5239,3.5289,3.5304,3.5331,3.5405,3.5405,3.5442,3.5515,3.5585,3.5599,3.5613,3.5754,3.5807,3.5837,3.5957,3.5996,3.5992,3.5965,3.5939,3.5897,3.5893,3.5639,3.5307,3.5105,3.4103,3.3328,3.3643,3.2788,3.2106,3.2617,3.2303,3.1829,3.1406,0.0,3.1394,3.0699,3.0886,3.0963,3.0642,3.06,3.0608,3.06,3.061,3.0634,3.0667,3.0653,3.0676,3.0701,3.0645,3.0597,3.06,3.0608,3.0595,3.0598,3.0566,3.0562,3.0562,3.0554,3.0535,3.0465,3.0465,3.0452,3.0466,3.0466,3.0466,3.0466,3.0466,3.0436,3.0397,3.0397,3.0402,3.0404,3.0404,3.0404,3.0404,3.4648,3.3912,3.3574,3.4135,3.4947,3.5357,3.4867,3.5798,3.6073,3.4754,3.4821,3.5142,3.554,3.5319,3.5551,3.644,3.552,3.5034,3.5365,3.4643,3.4257,3.4386,3.4489,3.4596,3.4692,3.4788,3.4863,3.4892,3.5007,3.5079,3.5097,3.5235,3.5308,3.5304,3.5223,3.5205,3.5193,3.4992,3.4988,3.5092,3.5092,3.5166,3.5269,3.5285,3.5331,3.5368,3.5382,3.5432,3.5515,3.555,3.5584,3.5612,3.5704,3.5762,3.5816,3.5937,3.5965,3.5974,3.5976,3.5947,3.5933,3.5938,3.5921,3.5747,3.5142,3.4335,3.3713,3.3706,3.279,3.224,3.3087,3.253,3.193,3.1852,3.1642,3.1282,3.0687,3.0838,3.0907,3.0657,3.0624,3.0637,3.0634,3.0669,3.0711,3.0737,3.0716,3.0707,3.0694,3.0657,3.0631,3.0638,3.061,3.0595,3.0592,3.0602,3.0598,3.0598,3.0598,3.0564,3.0496,3.0496,3.0503,3.0504,3.0504,3.0504,3.0504,3.0504,3.0471,3.0431,3.042,3.04,3.0399,3.0407,3.039,3.0399,3.4656,3.3912,3.3411,3.3393,3.4123,3.4713,3.4798,3.4874,3.5249,3.6167,3.5562,3.5363,3.6292,3.563,3.5526,3.6525,3.5029,3.4463,3.5535,3.4861,3.441,3.441,3.4392,3.4495,3.4687,3.4692,3.4768,3.4892,3.4974,3.5024,3.5097,3.5235,3.5308,3.5304,3.5223,3.5205,3.5193,3.4992,3.4988,3.5092,3.5092,3.5149,3.5209,3.5273,3.5293,3.5312,3.5372,3.5449,3.5507,3.5496,3.5531,3.5607,3.561,3.5696,3.5813,3.5881,3.5901,3.5907,3.5892,3.5957,3.5991,3.5991,3.5955,3.5907,3.5907,3.5226,3.4601,3.4612,3.3239,3.2276,3.3146,3.254,3.1913,3.1894,3.2626,3.2585,3.0838,3.1347,3.159,3.0795,3.0701,3.0699,3.0693,3.0691,3.0728,3.0785,3.0734,3.0707,3.0694,3.0692,3.07,3.07,3.0637,3.0597,3.06,3.0592,3.0598,3.0598,3.0598,3.0564,3.0496,3.0496,3.0503,3.0504,3.0504,3.0504,3.0504,3.0504,3.0504,3.0482,3.0428,3.0395,3.0392,3.0396,3.0405,3.0411,3.5531,3.4782,3.4056,3.3502,3.4164,3.4776,3.4805,3.5901,3.641,3.5518,3.6193,3.6673,3.6494,3.6235,3.6696,3.8224,3.6891,3.6118,3.6497,3.6297,3.591,3.5408,3.4791,3.4517,3.4629,3.4671,3.4747,3.4838,3.4903,3.4992,3.5097,3.5241,3.5301,3.5304,3.5223,3.5205,3.5193,3.4992,3.4988,3.5092,3.5092,3.5149,3.5205,3.5222,3.5269,3.5289,3.5323,3.5405,3.5507,3.5496,3.5515,3.554,3.5582,3.5687,3.5809,3.5816,3.584,3.5837,3.589,3.5909,3.5937,3.5935,3.5951,3.5965,3.5965,3.526,3.4767,3.5393,3.4607,3.3899,3.4155,3.3482,3.2683,3.2077,3.1718,3.1318,3.0751,3.0886,3.0989,3.0794,3.0731,3.0718,3.076,3.076,3.0784,3.0795,3.0731,3.0703,3.0694,3.0706,3.069,3.0635,3.0608,3.0597,3.06,3.0591,3.0597,3.0598,3.0598,3.0593,3.0566,3.0566,3.0562,3.0576,3.0576,3.0576,3.0576,3.0576,3.0545,3.0505,3.0476,3.0463,3.0469,3.0477,3.0833,3.1325,3.6274,3.5589,3.4816,3.4019,3.4374,3.4768,3.4805,3.548,3.5889,3.5555,3.6141,3.6561,3.6503,3.6512,3.685,3.7608,3.6869,3.6516,3.6888,3.665,3.6287,3.5825,3.4991,3.4556,3.4607,3.4666,3.4737,3.4793,3.4879,3.4978,3.5097,3.5212,3.5273,3.5304,3.5262,3.5242,3.5227,3.505,3.5033,3.51,3.5101,3.5136,3.5204,3.5237,3.5254,3.5293,3.5327,3.5409,3.5503,3.5492,3.5522,3.5544,3.5585,3.5669,3.5759,3.5762,3.5783,3.5801,3.585,3.5887,3.5899,3.5894,3.5937,3.597,3.5983,3.554,3.5268,3.5799,3.5232,3.4744,3.5069,3.3868,3.276,3.2551,3.1546,3.0795,3.0741,3.0734,3.0759,3.0798,3.0767,3.0769,3.0794,3.0792,3.0805,3.0795,3.0735,3.0709,3.0695,3.1022,3.1048,3.0653,3.0962,3.0993,3.0645,3.0645,3.0628,3.0595,3.0595,3.0595,3.0595,3.0602,3.0605,3.0595,3.0595,3.0595,3.0595,3.0595,3.0585,3.0547,3.0504,3.0508,3.0495,3.0507,3.1039,3.1747,3.682,3.6335,3.5631,3.4744,3.4714,3.4804,3.479,3.4296,3.4458,3.5984,3.5662,3.559,3.6311,3.6527,3.636,3.5764,3.5907,3.6284,3.6888,3.6403,3.6062,3.5911,3.5223,3.4819,3.4819,3.4741,3.4742,3.4804,3.4855,3.4964,3.5084,3.5155,3.5219,3.5297,3.5304,3.5293,3.5297,3.517,3.51,3.5096,3.5087,3.5138,3.5208,3.5268,3.5289,3.5312,3.5368,3.5446,3.55,3.5503,3.5541,3.5593,3.5607,3.5643,3.5707,3.5694,3.5732,3.5786,3.5791,3.5843,3.5884,3.5899,3.5897,3.5916,3.5973,3.5957,3.5911,3.5913,3.5325,3.5031,3.5761,3.3942,3.2572,3.3311,3.2013,3.093,3.0926,3.086,3.0802,3.0803,3.0794,3.0796,3.0798,3.0799,3.0806,3.081,3.0732,3.073,3.0816,3.1568,3.1644,3.0849,3.1584,3.1612,3.0816,3.0739,3.0661,3.0602,3.0602,3.0602,3.06,3.0597,3.0599,3.0602,3.0602,3.0602,3.0602,3.0602,3.0602,3.0595,3.0525,3.0561,3.0636,3.0638,3.1225,3.203,3.7054,3.6834,3.6298,3.4852,3.5185,3.5451,3.4889,3.5246,3.5513,3.5309,3.5772,3.5984,3.5605,3.6182,3.6805,3.7336,3.8125,3.8159,3.712,3.7519,3.7487,3.6843,3.6694,3.6633,3.6633,3.5364,3.4763,3.4877,3.4839,3.4864,3.4945,3.5079,3.5151,3.5215,3.5277,3.5293,3.5297,3.517,3.51,3.5096,3.5032,3.5088,3.5204,3.5221,3.5257,3.5308,3.5319,3.5405,3.5507,3.5502,3.554,3.5598,3.5609,3.5654,3.5698,3.5703,3.5707,3.5723,3.5799,3.5801,3.5824,3.5891,3.5907,3.5913,3.5987,3.5995,3.5976,3.5975,3.5838,3.576,3.5955,3.4961,3.4199,3.4373,3.2945,3.1827,3.1818,3.1224,3.079,3.0794,3.0807,3.0807,3.0796,3.0806,3.0808,3.08,3.0786,3.1045,3.1686,3.1898,3.1906,3.1727,3.19,3.1889,3.1635,3.101,3.0667,3.06,3.06,3.06,3.06,3.0593,3.0593,3.06,3.06,3.06,3.06,3.06,3.06,3.0597,3.0587,3.1,3.1605,3.1601,3.2505,3.3865,3.7505,3.7201,3.6731,3.5929,3.5841,3.5783,3.548,3.5477,3.5392,3.5045,3.5129,3.5056,3.4672,3.5466,3.638,3.7308,3.789,3.7879,3.7101,3.7487,3.7367,3.656,3.6184,3.6021,3.6048,3.5231,3.4997,3.5424,3.5016,3.4815,3.4855,3.4927,3.5001,3.5117,3.5201,3.5262,3.5297,3.523,3.5194,3.5187,3.5164,3.517,3.5196,3.5235,3.5265,3.5301,3.5301,3.5383,3.5491,3.5531,3.5567,3.5607,3.564,3.5665,3.5705,3.5705,3.5725,3.5752,3.5788,3.5795,3.5823,3.5876,3.5906,3.5929,3.5971,3.6004,3.6009,3.5994,3.5995,3.5995,3.5995,3.5291,3.4704,3.4706,3.3594,3.2715,3.2713,3.2337,3.2041,3.2043,3.2038,3.1878,3.147,3.1031,3.0803,3.0802,3.0809,3.099,3.1417,3.2194,3.2436,3.2004,3.2801,3.3025,3.2576,3.1748,3.1294,3.1253,3.0845,3.0647,3.0657,3.0616,3.0612,3.0641,3.0641,3.0641,3.0641,3.0641,3.0876,3.1225,3.1213,3.176,3.2519,3.2511,3.3304,3.4466,3.796,3.7557,3.7182,3.7118,3.6661,3.6224,3.5945,3.5443,3.5026,3.4825,3.4265,3.3895,3.3895,3.4806,3.5719,3.6503,3.6752,3.6788,3.6585,3.6763,3.6586,3.5935,3.5273,3.5011,3.5227,3.5151,3.5345,3.5814,3.5119,3.479,3.4787,3.4797,3.487,3.4964,3.5115,3.5222,3.5293,3.5304,3.5304,3.5304,3.5296,3.5261,3.5222,3.5277,3.5316,3.5327,3.5327,3.5406,3.5537,3.5587,3.5618,3.5632,3.5675,3.5696,3.5694,3.5699,3.5735,3.5797,3.5806,3.5807,3.5813,3.5874,3.5905,3.5901,3.5965,3.5974,3.5982,3.5983,3.5986,3.6007,3.6007,3.5404,3.4917,3.4917,3.4197,3.3612,3.3612,3.3496,3.3397,3.3398,3.3279,3.2883,3.2179,3.145,3.1011,3.1019,3.1026,3.1088,3.1242,3.2564,3.2984,3.2245,3.3764,3.4242,3.3522,3.2506,3.2156,3.2436,3.1413,3.0839,3.0695,3.064,3.0651,3.0705,3.0705,3.0783,3.0917,3.0917,3.1402,3.2116,3.2117,3.266,3.3439,3.3576,3.4049,3.4739,3.8167,3.8093,3.7835,3.7209,3.758,3.7327,3.5367,3.5553,3.5465,3.4142,3.3929,3.3895,3.3895,3.4806,3.5477,3.5665,3.636,3.6242,3.4926,3.5555,3.5959,3.5891,3.5857,3.6184,3.6958,3.628,3.5649,3.5053,3.4875,3.4773,3.4713,3.4764,3.4815,3.4841,3.5031,3.5174,3.5308,3.5296,3.5297,3.5281,3.5246,3.5234,3.5281,3.5308,3.5331,3.5391,3.5391,3.5468,3.5585,3.5598,3.5642,3.5687,3.569,3.5695,3.5703,3.5705,3.5715,3.5733,3.5778,3.5797,3.5811,3.5875,3.5897,3.5893,3.5912,3.5907,3.5915,3.5901,3.5968,3.5996,3.6004,3.5908,3.5813,3.5819,3.5085,3.4522,3.4522,3.3881,3.3395,3.3395,3.2734,3.2226,3.2105,3.2,3.1914,3.1912,3.1917,3.2253,3.3004,3.3252,3.3318,3.3138,3.4073,3.4532,3.4437,3.2804,3.2754,3.4226,3.259,3.1425,3.0691,3.0685,3.0697,3.0708,3.0708,3.1133,3.1829,3.1829,3.2305,3.3026,3.3024,3.357,3.442,3.5105,3.542,3.5533,3.8105,3.7828,3.7628,3.779,3.7809,3.7314,3.5897,3.5984,3.5625,3.4002,3.3834,3.3835,3.3835,3.4316,3.4635,3.4717,3.5578,3.5621,3.4449,3.5266,3.5598,3.5139,3.5217,3.5445,3.584,3.557,3.5242,3.4848,3.4778,3.4737,3.4692,3.4687,3.4713,3.4756,3.4959,3.51,3.5191,3.5308,3.5365,3.5361,3.5369,3.5358,3.5354,3.5354,3.5342,3.5361,3.5423,3.5489,3.556,3.5592,3.5637,3.5692,3.5707,3.5693,3.5718,3.5742,3.5769,3.5764,3.5799,3.5793,3.5821,3.5873,3.5906,3.5897,3.5894,3.5901,3.5914,3.5954,3.5981,3.6006,3.5991,3.5992,3.5994,3.5997,3.5674,3.5425,3.5425,3.5083,3.4856,3.4841,3.4081,3.3555,3.3553,3.3101,3.2628,3.2135,3.2558,3.2783,3.2674,3.3608,3.4105,3.4082,3.4899,3.5336,3.5332,3.4074,3.3839,3.4588,3.3354,3.2566,3.215,3.2159,3.2146,3.2149,3.2149,3.2361,3.2728,3.2728,3.321,3.392,3.392,3.4456,3.5256,3.558,3.5728,3.5747]}]]